[[{"header":{"parameterUnit":"m.s-1","parameterCategory":1,"la1":30.6,"la2":29.2853,"lo1":-89.7004,"lo2":-87.6739,"dy":0.0162,"dx":0.0183,"nx":112,"ny":82,"refTime":"2023-06-12T06:00:00:Z","depth":0,"parameterNumber":2,"parameterNumberName":"U-component_of_WINDS"},"data":[0.0,0.0,0.0,0.0,0.0,0.0,0.0,0.0,0.0,0.0,0.0,0.0,0.0,0.0,0.0,0.0,0.0,0.0,0.0,0.0,0.0,0.0,0.0,0.0,0.0,0.0,0.0,0.0,0.0,0.0,0.0,0.0,0.0,0.0,0.0,0.0,0.0,0.0,0.0,0.0,0.0,0.0,0.0,0.0,0.0,0.0,0.0,0.0,0.0,0.0,0.0,0.0,0.0,0.0,0.0,0.0,0.0,0.0,0.0,0.0,0.0,0.0,0.0,0.0,0.0,0.0,0.0,0.0,0.0,0.0,0.0,0.0,0.0,0.0,0.0,0.0,0.0,0.0,0.0,0.0,0.0,0.0,0.0,0.0,0.0,0.0,0.0,0.0,0.0,0.0,-5.9608,-6.3408,-6.8764,-7.2265,-7.2864,-7.2295,-6.9153,-6.278,0.0,0.0,0.0,0.0,0.0,0.0,0.0,0.0,0.0,0.0,0.0,0.0,0.0,0.0,0.0,0.0,0.0,0.0,0.0,0.0,0.0,0.0,0.0,0.0,0.0,0.0,0.0,0.0,0.0,0.0,0.0,0.0,0.0,0.0,0.0,0.0,0.0,0.0,0.0,0.0,0.0,0.0,0.0,0.0,0.0,0.0,0.0,0.0,0.0,0.0,0.0,0.0,0.0,0.0,0.0,0.0,0.0,0.0,0.0,0.0,0.0,0.0,0.0,0.0,0.0,0.0,0.0,0.0,0.0,0.0,0.0,0.0,0.0,0.0,0.0,0.0,0.0,0.0,0.0,0.0,0.0,0.0,0.0,0.0,0.0,0.0,0.0,0.0,0.0,0.0,0.0,0.0,0.0,0.0,0.0,0.0,0.0,0.0,0.0,0.0,0.0,0.0,0.0,0.0,-6.0475,-6.658,-7.056,-7.2804,-7.2894,-7.2295,-6.9542,-6.4066,0.0,0.0,0.0,0.0,0.0,0.0,0.0,0.0,0.0,0.0,0.0,0.0,0.0,0.0,0.0,0.0,0.0,0.0,0.0,0.0,0.0,0.0,0.0,0.0,0.0,0.0,0.0,0.0,0.0,0.0,0.0,0.0,0.0,0.0,0.0,0.0,0.0,0.0,0.0,0.0,0.0,0.0,0.0,0.0,0.0,0.0,0.0,0.0,0.0,0.0,0.0,0.0,0.0,0.0,0.0,0.0,0.0,0.0,0.0,0.0,0.0,0.0,0.0,0.0,0.0,0.0,0.0,0.0,0.0,0.0,0.0,0.0,0.0,0.0,0.0,0.0,0.0,0.0,0.0,0.0,0.0,0.0,0.0,0.0,0.0,0.0,0.0,0.0,0.0,0.0,0.0,0.0,0.0,0.0,0.0,0.0,0.0,0.0,0.0,0.0,0.0,0.0,0.0,-5.9488,-6.266,-6.8884,-7.0919,-7.2116,-7.2864,-7.1637,-6.8764,-6.3797,-6.1642,0.0,0.0,0.0,0.0,0.0,0.0,0.0,0.0,0.0,0.0,0.0,0.0,0.0,0.0,0.0,0.0,0.0,0.0,0.0,0.0,0.0,0.0,0.0,0.0,0.0,0.0,0.0,0.0,0.0,0.0,0.0,0.0,0.0,0.0,0.0,0.0,0.0,0.0,0.0,0.0,0.0,0.0,0.0,0.0,0.0,0.0,0.0,0.0,0.0,0.0,0.0,0.0,0.0,0.0,0.0,0.0,0.0,0.0,0.0,0.0,0.0,0.0,0.0,0.0,0.0,0.0,0.0,0.0,0.0,0.0,0.0,0.0,0.0,0.0,0.0,0.0,0.0,0.0,0.0,0.0,0.0,0.0,0.0,0.0,0.0,0.0,0.0,0.0,0.0,0.0,0.0,0.0,0.0,0.0,0.0,0.0,0.0,0.0,0.0,0.0,0.0,0.0,-6.1912,-6.4755,-6.9901,-7.0709,-7.1308,-7.2355,-7.0649,-6.7657,-6.3348,-6.1044,0.0,0.0,0.0,0.0,0.0,0.0,0.0,0.0,0.0,0.0,0.0,0.0,0.0,0.0,0.0,0.0,0.0,0.0,0.0,0.0,0.0,0.0,0.0,0.0,0.0,0.0,0.0,0.0,0.0,0.0,0.0,0.0,0.0,0.0,0.0,0.0,0.0,0.0,0.0,0.0,0.0,0.0,0.0,0.0,0.0,0.0,0.0,0.0,0.0,0.0,0.0,0.0,0.0,0.0,0.0,0.0,0.0,0.0,0.0,0.0,0.0,0.0,0.0,0.0,0.0,0.0,0.0,0.0,0.0,0.0,0.0,0.0,0.0,0.0,0.0,0.0,0.0,0.0,0.0,0.0,0.0,0.0,0.0,0.0,0.0,0.0,0.0,0.0,0.0,0.0,0.0,0.0,0.0,0.0,0.0,0.0,0.0,0.0,0.0,0.0,0.0,0.0,-6.251,-6.5922,-6.8824,-7.0201,-7.0949,-7.1038,-6.9243,-6.667,-6.3288,-6.0625,0.0,0.0,0.0,0.0,0.0,0.0,0.0,0.0,0.0,0.0,0.0,0.0,0.0,0.0,0.0,0.0,0.0,0.0,0.0,0.0,0.0,0.0,0.0,0.0,0.0,0.0,0.0,0.0,0.0,0.0,0.0,0.0,0.0,0.0,0.0,0.0,0.0,0.0,0.0,0.0,0.0,0.0,0.0,0.0,0.0,0.0,0.0,0.0,0.0,0.0,0.0,0.0,0.0,0.0,0.0,0.0,0.0,0.0,0.0,0.0,0.0,0.0,0.0,0.0,0.0,0.0,0.0,0.0,0.0,0.0,0.0,0.0,0.0,0.0,0.0,0.0,0.0,0.0,0.0,0.0,0.0,0.0,0.0,0.0,0.0,0.0,0.0,0.0,0.0,0.0,0.0,0.0,0.0,0.0,0.0,0.0,0.0,0.0,0.0,0.0,0.0,0.0,-6.2121,-6.5443,0.0,-7.062,-7.1068,-7.1487,-6.9722,-6.7029,-6.3318,0.0,0.0,0.0,0.0,0.0,0.0,0.0,0.0,0.0,0.0,0.0,0.0,0.0,0.0,0.0,0.0,0.0,0.0,0.0,0.0,0.0,0.0,0.0,0.0,0.0,0.0,0.0,0.0,0.0,0.0,0.0,0.0,0.0,0.0,0.0,0.0,0.0,0.0,0.0,0.0,0.0,0.0,0.0,0.0,0.0,0.0,0.0,0.0,0.0,0.0,0.0,0.0,0.0,0.0,0.0,0.0,0.0,0.0,0.0,0.0,0.0,0.0,0.0,0.0,0.0,0.0,0.0,0.0,0.0,0.0,0.0,0.0,0.0,0.0,0.0,0.0,0.0,0.0,0.0,0.0,0.0,0.0,0.0,0.0,0.0,0.0,0.0,0.0,0.0,0.0,0.0,0.0,0.0,0.0,0.0,0.0,0.0,0.0,0.0,0.0,0.0,0.0,-5.9638,-6.2211,-6.5383,0.0,-7.0649,-7.1098,-7.1517,-6.9213,-6.6311,-6.2959,0.0,0.0,0.0,0.0,0.0,0.0,0.0,0.0,0.0,0.0,0.0,0.0,0.0,0.0,0.0,0.0,0.0,0.0,0.0,0.0,0.0,0.0,0.0,0.0,0.0,0.0,0.0,0.0,0.0,0.0,0.0,0.0,0.0,0.0,0.0,0.0,0.0,0.0,0.0,0.0,0.0,0.0,0.0,0.0,0.0,0.0,0.0,0.0,0.0,0.0,0.0,0.0,0.0,0.0,0.0,0.0,0.0,0.0,0.0,0.0,0.0,0.0,0.0,0.0,0.0,0.0,0.0,0.0,0.0,0.0,0.0,0.0,0.0,0.0,0.0,0.0,0.0,0.0,0.0,0.0,0.0,0.0,0.0,0.0,0.0,0.0,0.0,0.0,0.0,0.0,0.0,0.0,0.0,0.0,0.0,0.0,0.0,0.0,0.0,0.0,0.0,0.0,-5.9757,-6.2989,-6.6041,-6.8704,-7.0141,-7.0889,-7.0889,-6.7298,-6.4216,0.0,0.0,0.0,0.0,0.0,0.0,0.0,0.0,0.0,0.0,0.0,0.0,0.0,0.0,0.0,0.0,0.0,0.0,0.0,0.0,0.0,0.0,0.0,0.0,0.0,0.0,0.0,0.0,0.0,0.0,0.0,0.0,0.0,0.0,0.0,0.0,0.0,0.0,0.0,0.0,0.0,0.0,0.0,0.0,0.0,0.0,0.0,0.0,0.0,0.0,0.0,0.0,0.0,0.0,0.0,0.0,0.0,0.0,0.0,0.0,0.0,0.0,0.0,0.0,0.0,0.0,0.0,0.0,0.0,0.0,0.0,0.0,0.0,0.0,0.0,0.0,0.0,0.0,0.0,0.0,0.0,0.0,0.0,0.0,0.0,0.0,0.0,0.0,0.0,0.0,0.0,0.0,0.0,0.0,0.0,0.0,0.0,0.0,0.0,0.0,0.0,0.0,0.0,-5.9817,-6.2989,-6.6041,-6.8704,-7.0141,-7.0889,-7.0889,-6.8136,-6.5383,-6.2929,0.0,0.0,0.0,0.0,0.0,0.0,0.0,0.0,0.0,0.0,0.0,0.0,0.0,0.0,0.0,0.0,0.0,0.0,0.0,0.0,0.0,0.0,0.0,0.0,0.0,0.0,0.0,0.0,0.0,0.0,0.0,0.0,0.0,0.0,0.0,0.0,0.0,0.0,0.0,0.0,0.0,0.0,0.0,0.0,0.0,0.0,0.0,0.0,0.0,0.0,0.0,0.0,0.0,0.0,0.0,0.0,0.0,0.0,0.0,0.0,0.0,0.0,0.0,0.0,0.0,0.0,0.0,0.0,0.0,0.0,0.0,0.0,0.0,0.0,0.0,0.0,0.0,0.0,0.0,0.0,0.0,0.0,0.0,0.0,0.0,0.0,0.0,0.0,0.0,0.0,0.0,0.0,0.0,0.0,0.0,0.0,0.0,0.0,0.0,0.0,0.0,0.0,-6.0206,-6.3139,-6.6041,-6.8704,-7.0141,-7.0799,-7.056,-6.8345,-6.5652,-6.248,0.0,0.0,0.0,0.0,0.0,0.0,0.0,0.0,0.0,0.0,0.0,0.0,0.0,0.0,0.0,0.0,0.0,0.0,0.0,0.0,0.0,0.0,0.0,0.0,0.0,0.0,0.0,0.0,0.0,0.0,0.0,0.0,0.0,0.0,0.0,0.0,0.0,0.0,0.0,0.0,0.0,0.0,0.0,0.0,0.0,0.0,0.0,0.0,0.0,0.0,0.0,0.0,0.0,0.0,0.0,0.0,0.0,0.0,0.0,0.0,0.0,0.0,0.0,0.0,0.0,0.0,0.0,0.0,0.0,0.0,0.0,0.0,0.0,0.0,0.0,0.0,0.0,0.0,0.0,0.0,0.0,0.0,0.0,0.0,0.0,0.0,0.0,0.0,0.0,0.0,0.0,0.0,0.0,0.0,0.0,0.0,0.0,0.0,0.0,0.0,0.0,0.0,-6.0775,-6.3348,-6.5951,-6.8615,-6.9991,-7.05,-6.9931,-6.8046,-6.5263,-6.1433,0.0,0.0,0.0,0.0,0.0,0.0,0.0,0.0,0.0,0.0,0.0,0.0,0.0,0.0,0.0,0.0,0.0,0.0,0.0,0.0,0.0,0.0,0.0,0.0,0.0,0.0,0.0,0.0,0.0,0.0,0.0,0.0,0.0,0.0,0.0,0.0,0.0,0.0,0.0,0.0,0.0,0.0,0.0,0.0,0.0,0.0,0.0,0.0,0.0,0.0,0.0,0.0,0.0,0.0,0.0,0.0,0.0,0.0,0.0,0.0,-6.5443,0.0,0.0,0.0,0.0,0.0,0.0,0.0,0.0,0.0,0.0,0.0,0.0,0.0,0.0,0.0,0.0,0.0,0.0,0.0,0.0,0.0,0.0,0.0,0.0,0.0,0.0,0.0,0.0,0.0,0.0,0.0,0.0,0.0,0.0,0.0,0.0,0.0,0.0,0.0,0.0,0.0,-6.0775,-6.2929,-6.5233,-6.7897,-6.8914,-6.9363,-6.9213,-6.7358,-6.4994,-6.2061,-5.886,0.0,0.0,0.0,0.0,0.0,0.0,0.0,0.0,0.0,0.0,0.0,0.0,0.0,0.0,0.0,0.0,0.0,0.0,0.0,0.0,0.0,0.0,0.0,0.0,0.0,0.0,0.0,0.0,0.0,0.0,0.0,0.0,0.0,0.0,0.0,0.0,0.0,0.0,0.0,0.0,0.0,0.0,0.0,0.0,0.0,0.0,0.0,0.0,0.0,0.0,0.0,0.0,0.0,0.0,0.0,0.0,0.0,0.0,0.0,0.0,-6.6842,0.0,0.0,0.0,0.0,0.0,0.0,0.0,0.0,0.0,0.0,0.0,0.0,0.0,0.0,0.0,0.0,0.0,0.0,0.0,0.0,0.0,0.0,0.0,0.0,0.0,0.0,0.0,0.0,0.0,0.0,0.0,0.0,0.0,0.0,0.0,0.0,0.0,0.0,0.0,0.0,-6.0775,-6.281,-6.5024,-6.7687,-6.8585,-6.8854,-6.8525,-6.7268,-6.5353,-6.272,-5.9727,0.0,0.0,0.0,0.0,0.0,0.0,0.0,0.0,0.0,0.0,0.0,0.0,0.0,0.0,0.0,0.0,0.0,0.0,0.0,0.0,0.0,0.0,0.0,0.0,0.0,0.0,0.0,0.0,0.0,0.0,0.0,0.0,0.0,0.0,0.0,0.0,0.0,0.0,0.0,0.0,0.0,0.0,0.0,0.0,0.0,0.0,0.0,0.0,0.0,0.0,0.0,0.0,0.0,-7.2633,-7.2828,-7.2402,-7.3608,-7.2509,-6.9664,-6.9464,-6.7777,-6.529,0.0,0.0,0.0,0.0,0.0,0.0,0.0,0.0,0.0,0.0,0.0,0.0,0.0,0.0,0.0,0.0,0.0,0.0,0.0,0.0,0.0,0.0,0.0,0.0,0.0,-6.1283,-6.1014,0.0,0.0,0.0,0.0,0.0,0.0,0.0,0.0,0.0,0.0,0.0,0.0,-6.0775,-6.272,-6.4844,-6.7508,-6.8315,-6.8435,-6.7837,-6.7208,-6.5742,-6.3228,-6.0805,-5.853,0.0,0.0,0.0,0.0,0.0,0.0,0.0,0.0,0.0,0.0,0.0,0.0,0.0,0.0,0.0,0.0,0.0,0.0,0.0,0.0,0.0,0.0,0.0,0.0,0.0,0.0,0.0,0.0,0.0,0.0,0.0,0.0,-5.0661,-5.0136,0.0,0.0,0.0,0.0,0.0,0.0,0.0,0.0,0.0,0.0,0.0,0.0,0.0,-6.921,-7.2732,-7.1276,-7.2378,-7.6043,-7.5923,-7.5298,-7.4225,-7.5971,-7.4516,-7.0789,-7.227,0.0,-6.872,-6.7458,0.0,0.0,0.0,0.0,0.0,0.0,0.0,0.0,0.0,0.0,0.0,0.0,0.0,0.0,0.0,0.0,0.0,0.0,0.0,0.0,0.0,0.0,-6.1852,-6.1942,-6.1972,-6.2061,0.0,-6.1253,-5.9727,-5.8501,-5.8261,0.0,0.0,0.0,0.0,0.0,0.0,0.0,-6.0775,-6.2331,-6.4216,-6.6849,-6.7208,-6.7208,-6.7119,-6.652,-6.5263,-6.3199,-6.1672,-5.9697,-5.7094,-5.5568,0.0,0.0,0.0,0.0,0.0,0.0,0.0,0.0,0.0,0.0,0.0,0.0,0.0,0.0,0.0,0.0,0.0,0.0,0.0,0.0,0.0,0.0,0.0,0.0,0.0,0.0,0.0,0.0,0.0,-5.0541,-5.1575,-5.1056,-5.2971,-5.4162,0.0,0.0,0.0,0.0,0.0,0.0,0.0,0.0,0.0,-6.9769,-6.9246,-7.0989,-7.5371,-7.4681,-7.5462,-7.7837,-7.923,-7.8926,-7.7179,-7.8913,-7.7728,-7.4401,-7.546,-7.4482,-7.1886,-6.9933,-6.8287,-6.6806,0.0,0.0,0.0,0.0,-6.0954,-6.1373,-6.248,-6.2869,0.0,-6.3109,0.0,0.0,0.0,0.0,0.0,0.0,0.0,0.0,0.0,0.0,0.0,-6.4665,-6.4844,-6.4814,-6.4755,-6.3737,-6.2361,0.0,-5.9458,-5.8501,-5.7932,0.0,0.0,0.0,0.0,-5.9069,-6.1373,-6.281,-6.4455,-6.6759,-6.6999,-6.6999,-6.6999,-6.6729,-6.5892,-6.4276,-6.2929,-6.1343,-5.9428,-5.7034,-5.5529,0.0,0.0,0.0,0.0,0.0,0.0,0.0,0.0,0.0,0.0,0.0,0.0,0.0,0.0,0.0,0.0,0.0,0.0,0.0,0.0,0.0,0.0,0.0,0.0,0.0,0.0,0.0,0.0,-5.2037,-5.3391,-5.2476,-5.5409,-5.7037,0.0,0.0,0.0,0.0,0.0,0.0,-6.6497,-6.747,-6.9478,-7.2652,-7.1552,-7.3224,-7.8096,-7.7539,-7.8054,-7.965,-8.1687,-8.1569,-7.9619,-8.1094,-8.0238,-7.7574,-7.7773,-7.6616,-7.4459,-7.1961,-6.9395,-6.7012,-6.5709,-6.4223,-6.2811,-6.2795,-6.2959,-6.3288,-6.4755,-6.5293,-6.5233,-6.4874,0.0,-6.263,-6.1433,0.0,0.0,0.0,0.0,-6.278,-6.3617,-6.4665,-6.5832,-6.6969,-6.7238,-6.7148,-6.6849,-6.5862,-6.4455,0.0,-6.0894,-5.9697,-5.9189,0.0,0.0,0.0,0.0,-5.9907,-6.2061,-6.3318,-6.4755,-6.6789,-6.6999,-6.6999,-6.6999,-6.6819,-6.6251,-6.5114,-6.3947,-6.272,-6.1433,-5.868,-5.6997,-5.6406,0.0,0.0,0.0,0.0,0.0,0.0,0.0,0.0,0.0,0.0,0.0,0.0,0.0,0.0,0.0,0.0,0.0,0.0,0.0,0.0,0.0,0.0,0.0,0.0,0.0,0.0,0.0,0.0,0.0,-5.4688,-5.9199,0.0,0.0,0.0,0.0,-6.4208,-6.6252,-6.7964,-6.9075,-7.0735,-7.2851,-7.5518,-7.5378,-7.7277,-8.1414,-7.9625,-8.0009,-8.2713,-8.2839,-8.2165,-8.0931,-8.1756,-8.0977,-7.8955,-7.8313,-7.7376,-7.606,-7.2474,-7.0523,-6.9579,-6.6974,-6.5862,-6.5712,-6.5084,-6.5293,-6.5832,-6.5922,-6.5951,-6.6071,-6.664,-6.5951,-6.4755,-6.4036,-6.3378,0.0,0.0,-6.3857,-6.4216,-6.5533,-6.637,-6.7059,-6.7747,-6.7926,-6.8076,-6.8704,-6.6849,-6.4455,0.0,-6.2002,-6.1343,-5.9428,0.0,-5.88,-5.8171,-5.865,-6.0057,-6.269,-6.3588,-6.4755,-6.6789,-6.6999,-6.6999,-6.6999,-6.643,-6.5772,-6.5024,-6.4366,-6.3378,-6.2091,-6.0655,-5.9009,-5.7094,-5.5119,0.0,0.0,0.0,0.0,0.0,0.0,0.0,0.0,0.0,0.0,0.0,0.0,0.0,0.0,0.0,0.0,0.0,0.0,0.0,0.0,0.0,0.0,0.0,0.0,0.0,0.0,0.0,0.0,-5.9372,-6.336,0.0,-6.3494,-6.5103,-6.6323,-6.6675,-6.902,-7.1004,-7.2237,-7.3719,-7.574,-7.8343,-7.7587,-7.888,-8.2458,-8.2316,-8.2234,-8.2302,-8.3698,-8.3163,-8.1056,-8.1372,-8.0786,-7.9694,-7.8986,-7.7965,-7.663,-7.4485,-7.2308,-7.0207,-6.9013,-6.7508,-6.6071,-6.67,-6.7059,-6.7388,-6.8256,-6.8555,-6.8345,-6.7328,-6.637,-6.5533,-6.4874,-6.4814,-6.5024,-6.5233,-6.5892,-6.6759,-6.7687,-6.8435,-6.9064,-6.9722,-6.9871,-6.9812,-6.9662,-6.8884,-6.7627,-6.5622,-6.3887,-6.251,-6.1792,-6.1313,-6.0954,-6.0715,-6.1224,-6.2301,-6.4096,-6.4904,-6.5742,-6.6879,-6.6999,-6.6999,-6.6999,-6.64,-6.5712,-6.5054,-6.4366,-6.3438,-6.2151,-6.0386,-5.8919,-5.7782,-5.5418,-5.3743,0.0,0.0,0.0,0.0,0.0,0.0,0.0,0.0,0.0,0.0,0.0,0.0,0.0,0.0,0.0,0.0,0.0,0.0,0.0,0.0,0.0,0.0,0.0,0.0,0.0,0.0,-6.2138,-6.3208,-6.7272,-6.9367,-6.7754,-6.9443,-7.0551,-7.0305,-7.2829,-7.4676,-7.5323,-7.6862,-7.8367,-7.9906,-7.9578,-8.032,-8.227,-8.3258,-8.3057,-8.1725,-8.3533,-8.329,-8.1079,-8.1294,-8.1048,-8.0402,-7.9694,-7.8672,-7.7366,-7.6191,-7.4117,-7.1737,-7.0929,-6.9542,-6.8076,-6.8704,-6.8974,-6.9093,-6.9991,-7.0141,-6.9722,-6.8435,-6.7567,-6.6939,-6.649,-6.667,-6.7059,-6.7298,-6.7986,-6.8794,-6.9482,-6.9961,-7.038,-7.0799,-7.0889,-7.0799,-7.038,-7.0141,-6.9512,-6.7956,-6.5892,-6.4186,-6.3498,-6.3019,-6.275,-6.275,-6.3109,-6.3857,-6.5173,-6.5742,-6.6251,-6.6909,-6.6999,-6.6909,-6.667,-6.6071,-6.5293,-6.4425,-6.3318,-6.2211,-6.1134,-5.9608,-5.8471,-5.7782,-5.5418,-5.3773,-5.2845,0.0,0.0,0.0,0.0,0.0,0.0,0.0,0.0,0.0,0.0,0.0,0.0,0.0,0.0,0.0,0.0,0.0,0.0,0.0,0.0,0.0,0.0,0.0,-5.8201,-6.2271,-6.5441,-6.6181,-7.0914,-7.3358,-7.1383,-7.4214,-7.5877,-7.5199,-7.7662,-7.8893,-7.8185,-8.0063,-8.0832,-8.0217,-8.1448,-8.1787,-8.114,-8.2503,-8.2503,-8.114,-8.2534,-8.2473,-8.111,-8.1787,-8.1694,-8.1017,-8.0371,-7.9459,-7.8413,-7.7433,-7.5964,-7.4299,-7.2577,-7.1936,-7.1816,-7.1158,-7.0919,-7.0889,-7.0889,-7.05,-7.0021,-7.0021,-6.9572,-6.9064,-6.9064,-6.9064,-6.9183,-6.9842,-7.0021,-7.0141,-7.0739,-7.0889,-7.0889,-7.0889,-7.0889,-7.0889,-7.0889,-7.044,-6.9812,-6.9153,-6.7986,-6.643,-6.4395,-6.4066,-6.4066,-6.4066,-6.4066,0.0,-6.5862,-6.6071,-6.6311,-6.6939,-6.6999,-6.6729,-6.6101,-6.5413,-6.4455,-6.3169,-6.1164,-5.9757,-5.9099,-5.8411,-5.7752,-5.7034,-5.5149,-5.3533,-5.2247,0.0,0.0,0.0,0.0,0.0,0.0,0.0,0.0,0.0,0.0,0.0,0.0,0.0,0.0,0.0,0.0,0.0,0.0,0.0,0.0,0.0,0.0,-6.2002,-6.1762,-6.5682,-6.9526,-7.2186,-7.5565,-7.7592,-7.7565,-7.8862,-7.9417,-7.877,-8.0278,-8.1171,-8.0986,-8.1971,-8.2464,-8.2279,-8.2618,-8.271,-8.2525,-8.3881,-8.3881,-8.2525,-8.3881,-8.3601,-8.1817,-8.2002,-8.1694,-8.1017,-7.9878,-7.9029,-7.8383,-7.6916,-7.5813,-7.4985,-7.3806,-7.2744,-7.1876,-7.1667,-7.1308,-7.0889,-7.0889,-7.0799,-7.0649,-7.0649,-7.053,-7.038,-7.038,-7.038,-7.041,-7.059,-7.0649,-7.0679,-7.0859,-7.0889,-7.0889,-7.0889,-7.0889,-7.0889,-7.0889,-7.0769,-7.047,-6.9842,-6.9423,-6.8375,-6.5892,-6.5443,-6.5443,-6.5443,-6.5862,0.0,-6.667,-6.7148,-6.7328,-6.7029,-6.6999,-6.6909,-6.6729,-6.5233,-6.3947,-6.3139,-6.0745,-5.9069,-5.8411,-5.7304,-5.6406,-5.5718,-5.4221,-5.3533,0.0,0.0,0.0,0.0,0.0,0.0,0.0,0.0,0.0,0.0,0.0,0.0,0.0,0.0,0.0,0.0,0.0,0.0,0.0,0.0,0.0,0.0,-6.3019,-6.634,-6.7089,-6.9609,-7.2726,-7.6288,-7.8437,-8.0086,-8.1225,-8.1941,-8.2064,-8.1417,-8.2587,-8.311,-8.2525,-8.3418,-8.3664,-8.311,-8.3634,-8.3664,-8.308,-8.4451,-8.4451,-8.311,-8.4451,-8.4078,-8.2095,-8.2372,-8.1971,0.0,-8.0248,-7.9298,-7.8239,-7.7274,-7.6199,0.0,0.0,0.0,0.0,0.0,-7.1218,-7.0889,-7.0889,-7.0889,-7.0889,-7.0889,-7.0889,-7.0889,-7.0889,-7.0889,-7.0889,-7.0889,-7.0889,-7.0889,-7.0889,-7.0889,-7.0889,-7.0889,-7.0889,-7.0889,-7.0889,-7.0889,-7.0709,-7.0111,0.0,0.0,-6.7567,-6.7029,-6.6819,-6.6819,-6.7148,-6.7508,-6.7807,-6.7897,-6.7837,-6.7448,-6.7148,-6.6879,-6.661,-6.4994,0.0,0.0,0.0,-5.7842,-5.6915,-5.6166,0.0,0.0,0.0,-5.4072,-5.4221,0.0,0.0,0.0,-5.3744,-5.3594,0.0,0.0,0.0,0.0,0.0,0.0,0.0,0.0,0.0,0.0,0.0,0.0,0.0,0.0,0.0,0.0,-6.6789,-7.026,-7.305,-7.3894,-7.5406,-7.8716,-8.013,-8.1459,-8.308,-8.388,-8.4034,-8.3357,-8.4495,-8.468,-8.348,0.0,0.0,0.0,0.0,-8.4526,-8.3326,-8.4495,-8.4495,-8.3326,-8.4526,-8.4126,-8.2341,-8.2926,-8.2464,-8.1171,-8.111,-7.9927,-7.8079,-7.7988,-7.6757,-7.4749,-7.3522,-7.2984,-7.2774,-7.1487,-7.0949,-7.0889,-7.0889,0.0,0.0,-7.0889,-7.0889,-7.0889,-7.0889,-7.0889,-7.0889,-7.0889,-7.0889,-7.0889,-7.0889,-7.0889,-7.0889,-7.0889,-7.0889,-7.0889,-7.0889,-7.0889,-7.0739,-7.0201,-7.0081,-6.9871,-6.9213,-6.8555,-6.8076,-6.8076,-6.8136,-6.8375,-6.8824,-6.8405,-6.8016,-6.7867,0.0,0.0,-6.6161,-6.4755,-6.3378,-6.2181,-5.8949,-5.6555,-5.5359,-5.5299,-5.5329,-5.5388,-5.5329,-5.5029,-5.4431,-5.4431,-5.47,-5.5179,-5.5179,-5.4976,0.0,0.0,0.0,0.0,0.0,0.0,0.0,0.0,0.0,0.0,0.0,0.0,0.0,0.0,0.0,-6.5592,-6.9093,-7.2577,-7.603,-7.7832,-7.905,-7.9688,-8.1685,-8.3276,-8.388,-8.5019,-8.545,-8.4773,-8.545,-8.5788,-8.5542,-8.5265,0.0,-8.5511,-8.5265,-8.4988,-8.4711,-8.4988,-8.4988,-8.4711,0.0,0.0,-8.3695,-8.3849,-8.3172,-8.1848,-8.1016,-7.9895,-7.8716,-7.7893,-7.6482,-7.4809,-7.4001,-7.3373,-7.2804,-7.1996,-7.1368,-7.0889,-7.0889,-7.0889,-7.0889,-7.0889,-7.0889,-7.0889,-7.0889,-7.0889,0.0,-7.0889,-7.0889,-7.0889,-7.0889,-7.0889,-7.0889,-7.0889,-7.0889,-7.0889,-7.0889,-7.0889,-7.0859,-7.0739,-7.0739,-7.053,-6.9901,-6.9243,-6.8794,-6.8794,-6.9243,-6.9243,-6.8286,-6.8525,-6.8375,-6.7298,-6.7059,-6.6939,-6.6819,-6.4635,-6.2929,-6.2151,-5.8949,-5.6765,-5.6068,-5.5987,-5.6226,-5.6705,-5.6226,-5.5927,-5.5777,-5.5777,-5.5598,-5.5179,-5.5006,-5.4722,0.0,0.0,0.0,0.0,0.0,0.0,0.0,0.0,0.0,0.0,0.0,-5.7363,-5.9668,0.0,-6.6011,-6.8944,-7.2475,-7.5626,-7.7815,-8.006,-8.1429,-8.1248,-8.2765,-8.4033,-8.4557,-8.5203,-8.5604,-8.5604,-8.5911,-8.6281,-8.6619,-8.6342,-8.6127,-8.6127,-8.5788,-8.5604,-8.5604,-8.5265,-8.5265,-8.5604,-8.5265,-8.4742,-8.4095,-8.4095,-8.3285,-8.1753,-8.1205,-8.0151,-7.8619,-7.7535,-7.6415,-7.5347,-7.5018,-7.3881,-7.2355,-7.1996,-7.1457,-7.0889,-7.0889,-7.0889,-7.0889,-7.0889,-7.0889,-7.0889,-7.0889,-7.0889,-7.0889,-7.0889,-7.0889,-7.0889,-7.0889,-7.0889,-7.0889,-7.0889,-7.0889,-7.0889,-7.0889,-7.0889,-7.0889,-7.0889,-7.0889,-7.0799,-7.05,-7.0171,-6.9842,-6.9542,-6.9782,-6.9842,-6.9482,-6.9482,-6.9123,-6.8106,-6.7687,-6.7358,-6.7029,-6.4575,-6.251,-6.1164,-5.889,-5.7304,-5.6645,-5.6645,-5.6765,-5.7094,-5.6795,-5.6645,-5.6645,-5.6645,-5.6466,-5.6137,-5.5982,-5.5521,0.0,0.0,0.0,0.0,0.0,0.0,0.0,0.0,-5.482,-5.7992,-5.9608,-6.1373,-6.4425,-6.7268,-6.9901,-7.2116,-7.5377,-7.7962,-7.8885,-8.1329,-8.293,-8.2826,-8.3665,-8.4526,-8.505,-8.5234,-8.5542,-8.6065,-8.625,-8.6619,-8.7358,-8.7266,-8.6989,-8.6527,-8.625,-8.6127,-8.6127,-8.545,-8.5388,-8.5911,-8.5357,-8.4834,-8.428,-8.428,-8.3389,-8.1868,-8.1451,-8.0234,-7.8377,-7.7434,-7.6724,-7.6245,-7.6006,-7.442,-7.2265,-7.2116,-7.1667,-7.1068,-7.0949,-7.0889,-7.0889,-7.0889,-7.0889,-7.0889,-7.0889,-7.0889,-7.0889,-7.0889,-7.0889,-7.0889,-7.0889,-7.0889,-7.0889,-7.0889,-7.0889,-7.0889,-7.0889,-7.0889,-7.0889,-7.0889,-7.0889,-7.0889,-7.0889,-7.0889,-7.0739,-7.0231,-7.0171,-7.029,-7.0679,-7.029,-6.9662,-6.8884,-6.8315,-6.7537,-6.649,-6.4485,-6.2361,-6.0206,-5.9099,-5.8201,-5.7513,-5.7483,-5.7483,-5.7483,-5.7483,-5.7423,-5.7304,-5.7304,-5.7214,-5.7094,-5.7094,-5.6414,-5.069,-5.0196,-5.0973,-5.3832,-5.4192,-5.5269,0.0,0.0,-6.0894,-6.3588,-6.4725,-6.5892,-6.8046,-6.9213,-7.0859,-7.4031,-7.5886,-7.7594,-7.9567,-8.1649,-8.3228,-8.386,-8.4588,-8.5019,-8.508,-8.5665,-8.6035,-8.6096,-8.6712,-8.7358,-8.8035,-8.7512,-8.742,-8.7943,-8.6773,-8.6127,-8.6127,-8.545,-8.5142,-8.5203,-8.5142,-8.508,-8.4988,-8.4988,-8.4371,-8.3171,-8.1335,-7.9821,-7.8711,-7.7981,-7.7652,-7.7502,-7.6335,-7.4988,-7.3582,-7.3013,-7.2355,-7.1697,-7.1098,-7.0889,-7.0889,-7.0889,-7.0889,-7.0889,-7.0889,-7.0889,-7.0889,-7.0889,-7.0889,-7.0889,-7.0889,-7.0889,-7.0889,-7.0889,-7.0889,-7.0889,-7.0889,-7.0889,-7.0889,-7.0889,-7.0889,-7.0889,-7.0889,-7.0889,-7.0889,-7.0799,-7.0799,-7.062,-7.0141,-7.0021,-6.9512,-6.8226,-6.8016,-6.6999,-6.4545,-6.4066,-6.281,-6.0236,-5.9937,-5.9578,-5.889,-5.889,-5.889,-5.889,-5.889,-5.859,-5.8022,-5.8022,-5.7693,-5.7094,-5.7094,-5.6445,-5.2875,-5.3114,0.0,0.0,-5.7274,-5.9069,-6.2331,-6.2929,-6.3528,-6.6191,-6.7567,-6.8884,-7.0919,-7.2116,-7.3522,0.0,-7.7442,-7.8831,-7.9761,-8.1644,-8.2736,-8.2306,-8.3225,-8.4403,-8.5573,-8.5942,-8.6466,-8.7266,-8.7604,-8.8066,-8.8743,-8.8528,-8.8312,-8.8189,-8.7635,-8.7327,-8.7327,-8.625,-8.5911,-8.6312,-8.548,-8.5111,-8.5111,-8.4862,-8.4088,-8.2729,-8.0917,-7.9802,-7.9327,-7.8669,-7.816,-7.7771,-7.7233,-7.5976,-7.433,-7.3283,-7.2235,-7.1278,-7.1009,-7.0889,-7.0889,-7.0889,-7.0889,-7.0889,-7.0889,-7.0889,-7.0889,-7.0889,-7.0889,-7.0889,-7.0889,-7.0889,-7.0889,-7.0889,-7.0889,-7.0889,-7.0889,-7.0889,-7.0889,-7.0889,-7.0889,-7.0889,-7.0889,-7.0889,-7.0889,-7.0889,-7.0889,-7.0799,-7.056,-7.053,-7.0021,-6.8704,-6.8196,-6.7208,-6.5323,-6.4126,-6.2839,-6.1343,-6.0146,-5.9398,-5.9129,-5.9099,-5.9099,-5.9099,-5.9099,-5.8979,-5.871,-5.871,-5.856,-5.8261,-5.8261,-5.769,-5.4192,0.0,0.0,-5.8082,-6.0206,-6.2391,-6.4276,-6.5203,-6.6311,-6.8585,-6.9812,-7.1068,-7.3073,-7.4091,-7.5138,-7.6844,-7.8639,-7.9806,-7.9952,-8.1498,-8.2238,-8.1227,-8.1918,-8.3264,-8.5111,-8.5634,-8.6404,-8.782,-8.8097,-8.8497,-8.9174,-8.9205,-8.899,-8.8497,-8.8282,-8.8097,-8.7912,-8.6927,-8.6496,-8.6589,-8.5788,-8.5296,-8.5111,-8.457,-8.3647,-8.2316,-8.0731,-7.9986,-7.9776,-7.9088,-7.84,-7.7801,-7.7622,-7.6455,-7.4719,-7.3402,-7.2295,-7.1457,-7.1457,-7.1338,-7.1188,-7.1188,-7.1038,-7.0859,-7.0709,-7.0769,-7.0829,-7.047,-7.05,-7.0649,-7.0649,-7.0649,-7.0679,-7.0859,-7.0889,-7.0889,-7.0889,-7.0889,-7.0889,-7.0889,-7.0889,-7.0889,-7.0889,-7.0889,-7.0889,-7.0889,-7.0889,-7.0889,-7.0889,-7.0714,-7.0085,-6.8824,-6.8106,-6.7238,-6.6101,-6.4545,-6.3199,-6.2151,-6.0565,-5.9488,-5.9129,-5.9099,-5.9099,-5.9099,-5.9099,-5.9099,-5.9099,-5.9099,-5.9099,-5.9099,-5.9099,-5.8698,-5.3683,0.0,-5.7146,-6.0984,-6.2929,-6.4784,-6.8076,-6.9333,-7.0171,-7.1487,-7.1787,-7.2445,-7.445,-7.433,-7.4779,-7.7352,-7.8938,-7.9952,-8.0285,-8.1251,-8.1866,-8.1491,-8.1301,-8.1664,0.0,-8.4372,-8.5727,-8.7112,-8.782,-8.8497,-8.9174,-8.9205,-8.9205,-8.9174,-8.8528,-8.7881,-8.7235,-8.7173,-8.6496,-8.5173,-8.5788,-8.5727,-8.5111,-8.4307,-8.3351,-8.2347,-8.1211,-8.0405,-7.9776,-7.9088,-7.84,-7.7741,-7.7113,-7.6036,-7.4719,-7.3402,-7.2894,-7.2864,-7.2864,-7.2415,-7.1846,-7.1846,-7.1427,-7.0799,-7.0201,-7.044,-7.0649,-6.9423,-6.9512,-7.0021,-7.0021,-7.0021,-7.0171,-7.0769,-7.0889,-7.0889,-7.0889,-7.0889,-7.0889,-7.0889,-7.0889,-7.0889,-7.0889,-7.0889,-7.0889,-7.0889,-7.0889,-7.0889,-7.0889,-7.0149,-6.9223,-6.8168,-6.7418,-6.6759,-6.6071,-6.5383,-6.4156,-6.2211,-6.1433,-6.0475,-5.9159,-5.9099,-5.9099,-5.9099,-5.9099,-5.9099,-5.9099,-5.9099,-5.9099,-5.9099,-5.9099,-5.8936,-5.5598,0.0,-6.0954,-6.4455,-6.634,-6.7956,-7.035,-7.1098,-7.1368,-7.1787,-7.1547,-7.1427,-7.2116,-7.2415,-7.3283,-7.5497,-7.7711,-7.937,-7.9892,-8.161,-8.2067,-8.0041,-8.0697,0.0,0.0,0.0,0.0,-8.702,-8.7389,-8.8005,-8.9144,-8.9205,-8.9205,-8.9205,-8.899,-8.8959,-8.9205,-8.8312,-8.7851,-8.782,-8.6459,-8.5126,-8.3938,-8.3671,-8.301,-8.1975,-8.1167,-8.0434,-7.9776,-7.9088,-7.84,-7.7801,-7.7562,-7.6155,-7.427,-7.4719,-7.3762,-7.2176,-7.1727,-7.1427,-7.1248,-7.1248,-7.1068,-7.0859,-7.0649,-7.0739,-7.0799,-7.038,-7.041,-7.059,-7.059,-7.059,-7.0649,-7.0859,-7.0889,-7.0889,-7.0889,-7.0889,-7.0889,-7.0889,-7.0889,-7.0889,-7.0889,-7.0889,-7.0889,-7.0889,-7.0899,-7.0753,-7.032,-6.9389,-6.8552,-6.8016,-6.7777,-6.7029,-6.5503,-6.4725,-6.3707,-6.2181,-6.1044,-6.0236,-5.9787,-5.9338,-5.9099,-5.9099,-5.9099,-5.9099,-5.9099,-5.9099,-5.9099,-5.9099,-5.8882,-5.8803,-5.8082,-6.0775,-6.3617,-6.7178,-6.8884,-7.0081,-7.1547,-7.2086,-7.2176,-7.1936,-7.1009,-7.038,-7.0829,-7.0679,-7.1128,-7.3133,-7.5288,-7.7263,-7.8878,-8.0067,-8.0562,-7.9739,-8.0304,-8.0724,0.0,0.0,0.0,-8.625,-8.7143,-8.7912,-8.8805,-8.9082,-8.9205,-8.9205,-8.9205,-8.9297,-8.9482,-8.8866,-8.8452,-8.8209,-8.6175,-8.4464,-8.301,-8.301,-8.2425,-8.1392,-8.0734,-8.0225,-7.9746,-7.8819,-7.8041,-7.7442,-7.7203,-7.5796,-7.3971,-7.4599,-7.3582,-7.1906,-7.1966,-7.1667,-7.1248,-7.1248,-7.1098,-7.0859,-7.0649,-7.0739,-7.0769,-7.0051,-7.0201,-7.053,-7.029,-7.041,-7.062,-7.0859,-7.0889,-7.0889,-7.0889,-7.0889,-7.0889,-7.0889,-7.0889,-7.0889,-7.0889,-7.0889,-7.0889,-7.0889,-7.0873,-7.0607,-6.9961,-6.9086,-6.8307,-6.7712,-6.7625,-6.7119,-6.5832,-6.5114,-6.4156,-6.2869,-6.1523,-6.0595,-6.0116,-5.9458,-5.9099,-5.9099,-5.9099,-5.9099,-5.9099,-5.9099,-5.9045,-5.8936,-5.8803,-5.8609,-6.1014,-6.3258,-6.5233,-6.9123,-7.053,-7.1128,-7.1787,-7.2385,-7.2595,-7.1876,-7.0201,-6.9183,0.0,-6.9064,-6.8555,-7.05,-7.2146,-7.43,-7.7502,-7.7304,-7.7835,0.0,0.0,0.0,0.0,0.0,0.0,-8.4957,0.0,-8.8097,-8.8189,-8.8836,-8.9205,-8.9205,-8.9205,-8.8928,-8.8312,-8.8897,-8.827,-8.6545,-8.52,-8.3782,-8.2437,-8.2437,-8.1823,-8.0764,-8.0135,-7.9836,-7.9656,-7.834,-7.7412,-7.6754,-7.6125,-7.5048,-7.3821,-7.3193,-7.2505,-7.2086,-7.3402,-7.2954,-7.1816,-7.1787,-7.1368,-7.0739,-7.0111,-7.035,-7.044,-6.8585,-6.9004,-6.9842,-6.9243,-6.9572,-7.0171,-7.0769,-7.0889,-7.0889,-7.0889,-7.0889,-7.0889,-7.0889,-7.0889,-7.0889,-7.0889,-7.0889,-7.0889,-7.0889,-7.0873,-7.0607,-6.9748,-6.9239,-6.8492,-6.7168,-6.7025,-6.6969,-6.6939,-6.637,-6.5443,-6.4066,-6.2839,-6.1553,-6.0236,-5.9548,-5.9219,-5.9219,-5.9189,-5.9159,-5.9159,-5.9129,-5.8936,-5.8748,-5.8694,-5.85,-6.3558,-6.6311,-6.8884,-7.0889,-7.1517,-7.1816,-7.2505,-7.1996,-7.1098,-6.9961,-6.8166,-6.6281,-6.4635,-6.5922,-6.7717,-6.9243,-7.3462,0.0,-7.9716,-8.1496,0.0,-8.2365,0.0,-8.3453,-8.3347,-8.3788,0.0,0.0,-8.5881,-8.6558,-8.8128,-8.8836,-8.9205,-8.9205,-8.9205,-8.9359,-8.9698,-8.9054,-8.789,-8.6123,-8.4941,-8.3839,-8.268,-8.268,-8.202,-8.0794,-8.0614,-7.9986,-7.8998,-7.816,-7.7412,-7.6724,-7.5587,-7.4629,-7.3881,-7.3702,-7.2894,-7.1996,-7.2864,-7.2295,-7.1068,-7.062,-7.035,-7.0081,-6.9453,-6.9363,-6.9482,-6.9482,-6.9722,-7.0051,-7.035,-7.053,-7.0709,-7.0859,-7.0889,-7.0889,-7.0889,-7.0889,-7.0889,-7.0889,-7.0889,-7.0889,-7.0889,-7.0889,-7.0889,-7.0889,-7.0924,-7.0599,-6.9699,-6.9256,-6.8505,-6.7147,-6.7029,-6.6789,-6.6311,-6.6101,-6.5443,-6.4066,-6.3258,-6.245,-6.1613,-6.0954,-6.0595,-6.0595,-6.0086,-5.9847,-5.9847,-5.9338,-5.9045,-5.8991,-5.8555,-5.825,-6.658,-6.8944,-7.1098,-7.2445,-7.2774,-7.2565,-7.1787,-7.1248,-7.0141,-6.7358,-6.5473,0.0,-6.2002,-6.3647,-6.5712,0.0,0.0,0.0,-7.9896,-8.1362,-8.274,0.0,-8.5122,0.0,-8.5008,-8.5604,-8.6188,0.0,-8.6496,-8.6958,-8.8128,-8.8836,-8.9205,-8.9205,-8.9205,-8.9314,-8.9529,-8.8625,-8.731,-8.5743,-8.482,-8.3703,-8.232,-8.205,-8.1332,-8.0345,0.0,-7.9327,-7.831,-7.7652,-7.6814,-7.5886,-7.4839,-7.3851,-7.3013,-7.3013,-7.2355,-7.1517,-7.1906,-7.1547,-7.0829,-7.05,-7.038,-7.026,-6.9632,-6.9632,-6.9812,-6.9602,-6.9961,-7.041,-7.047,-7.0709,-7.0889,-7.0889,-7.0889,-7.0889,-7.0889,-7.0889,-7.0889,-7.0889,-7.0889,-7.0889,-7.0889,-7.0889,-7.0889,-7.0889,-7.0889,-7.0714,-7.0217,-6.9313,-6.8408,-6.7623,-6.7207,-6.6849,-6.646,-6.643,-6.5862,-6.4545,-6.3827,-6.3079,-6.2121,-6.1164,-6.0655,-6.0655,-5.9997,-5.9668,-5.9668,-5.9279,-5.8936,-5.8719,-5.836,-5.8029,-6.9662,-7.1308,-7.2565,-7.3732,-7.3971,-7.3223,-7.0679,-7.0171,-6.9004,-6.4635,0.0,-6.1463,-6.0715,-6.1882,-6.3528,-6.5263,0.0,-7.418,-7.9567,-7.9896,-8.1419,-8.6349,-8.6502,-8.6305,-8.6441,-8.7081,-8.7481,-8.7574,-8.8035,-8.8282,-8.8189,-8.8836,-8.9205,-8.9205,-8.9129,-8.8869,-8.8563,-8.7845,-8.6716,-8.5407,-8.4561,-8.3447,-8.1901,-8.1242,-8.0584,-7.9926,0.0,0.0,-7.7891,-7.7143,-7.6125,-7.4929,-7.418,-7.3133,-7.2026,-7.2026,-7.1607,-7.1038,-7.1038,-7.0979,-7.0889,-7.0799,-7.0769,-7.0679,-7.0051,-7.0231,-7.044,-6.9423,-6.9931,-7.0679,-7.0231,-7.05,-7.0889,-7.0889,-7.0889,-7.0889,-7.0889,-7.0889,-7.0889,-7.0889,-7.0889,-7.0889,-7.0889,-7.0889,-7.0889,-7.0889,-7.0889,-7.0894,-7.0912,-6.9423,-6.8333,-6.8273,-6.7473,-6.6999,-6.6999,-6.6999,-6.643,-6.5054,-6.4455,-6.3558,-6.2271,-6.1014,-6.0356,-6.0356,-5.9608,-5.9249,-5.9249,-5.9105,-5.8773,-5.825,-5.8195,-5.7863,-7.1846,-7.3373,-7.442,-7.4659,-7.43,-7.3343,-7.1218,-6.8734,0.0,0.0,-6.0924,-5.9249,-5.8022,-6.0236,-6.3588,-6.7657,0.0,0.0,0.0,0.0,-8.4539,0.0,-8.7409,-8.7751,-8.812,-8.8547,0.0,0.0,0.0,0.0,-8.822,-8.8836,-8.9205,-8.9205,-8.8486,-8.8332,-8.8563,-8.72,-8.6148,-8.5407,-8.4286,-8.3413,-8.2559,-8.1901,-8.1242,-8.0584,0.0,0.0,-7.8519,-7.7322,-7.6395,-7.5617,-7.436,-7.3432,-7.2744,-7.2744,-7.2295,-7.1727,-7.1727,-7.1368,-7.0829,-7.032,-7.0141,-7.0021,-6.9363,-6.9243,-6.9393,-6.9722,-6.9961,-7.0231,-7.0649,-7.0829,-7.0889,-7.0889,-7.0889,-7.0889,-7.0889,-7.0889,-7.0889,-7.0889,-7.0889,-7.0889,-7.0889,-7.0889,-7.0889,-7.0889,-7.0889,-7.0889,-7.0894,-6.9385,-6.8214,-6.8044,-6.7418,-6.6999,-6.6999,-6.6999,-6.643,-6.5054,-6.4904,-6.4276,-6.2959,-6.2151,-6.1762,-6.1762,-6.0535,-5.9907,-5.9907,-5.915,-5.8748,-5.8609,-5.8114,-5.7836,-7.4121,-7.5677,-7.6844,-7.6485,-7.5407,-7.3522,-7.0141,0.0,0.0,0.0,-5.871,-5.7663,-5.6346,0.0,0.0,0.0,0.0,0.0,0.0,0.0,0.0,0.0,0.0,0.0,0.0,0.0,0.0,0.0,0.0,0.0,-8.9236,-8.9053,-8.8793,-8.8563,-8.8147,-8.7914,-8.7945,-8.7145,-8.6248,-8.5023,-8.4462,-8.3547,-8.223,-8.1572,-8.0913,-8.0255,-7.9567,0.0,-7.7682,-7.6754,-7.5557,-7.424,-7.3253,-7.2445,-7.1876,-7.1876,-7.1667,-7.1368,-7.1368,-7.1158,-7.0859,-7.056,-7.047,-7.035,-6.9692,-6.9722,-6.9991,-6.9991,-7.0201,-7.044,-7.044,-7.0649,-7.0829,-7.05,-7.0679,-7.0889,-7.0889,-7.0889,-7.0889,-7.0889,-7.0889,-7.0889,-7.0889,-7.0889,-7.0889,-7.0889,-7.0889,-7.0889,-7.0889,-6.9927,-6.8967,-6.8555,-6.7597,-6.6999,-6.6999,-6.6999,-6.643,-6.5054,-6.4695,-6.4066,-6.3109,-6.1762,-6.1224,-6.1583,-6.0266,-5.9578,-5.9578,-5.917,-5.8719,-5.8445,-5.8335,-5.8003,-7.5886,-7.7532,-7.8849,-7.819,-7.6425,-7.3702,-6.9213,-6.6221,0.0,0.0,-5.6974,-5.6406,-5.5568,0.0,-6.0954,0.0,0.0,0.0,0.0,0.0,0.0,0.0,0.0,0.0,0.0,0.0,0.0,0.0,0.0,0.0,0.0,-8.8869,-8.8147,-8.7914,-8.7759,-8.7525,-8.732,-8.7091,-8.6194,-8.4714,-8.4564,-8.3547,-8.1751,-8.1093,-8.0434,-7.9776,-7.9088,0.0,0.0,-7.6365,-7.4929,-7.3073,-7.2535,-7.1727,-7.0919,-7.1068,-7.1009,-7.0889,-7.0889,-7.0889,-7.0889,-7.0889,-7.0889,-7.0799,-7.032,-7.053,-7.0769,-7.0141,-7.044,-7.0769,-7.0141,-7.044,-7.0769,-7.029,-7.056,-7.0889,-7.0889,-7.0889,-7.0889,-7.0889,-7.0889,-7.0889,-7.0889,-7.0889,-7.0889,-7.0889,-7.0889,-7.0889,-7.0889,-7.035,-6.9782,-6.9273,-6.8016,-6.7208,-6.7208,-6.7059,-6.649,-6.5323,-6.4605,-6.3887,-6.3109,-6.1283,-6.0505,-6.0894,-5.9727,-5.9045,-5.8991,-5.8936,-5.8664,-5.8085,-5.8335,-5.7974,-7.6395,-7.819,-7.9567,-7.8878,-7.6784,-7.3821,-6.9812,0.0,0.0,-5.862,-5.6615,-5.5508,-5.6038,-5.6825,-5.9069,0.0,0.0,-6.9243,0.0,0.0,0.0,0.0,0.0,0.0,0.0,0.0,0.0,0.0,0.0,0.0,0.0,-8.7897,-8.7555,-8.7914,-8.7211,-8.7005,-8.732,-8.6326,-8.5432,-8.4714,-8.4115,-8.3098,-8.1751,-8.1093,-8.0434,-7.9776,0.0,0.0,0.0,-7.7023,-7.5587,-7.3791,-7.3732,-7.2565,-7.0979,-7.1577,-7.1427,-7.0889,-7.0889,-7.0889,-7.0889,-7.0889,-7.0889,-7.0889,-7.0829,-7.0859,-7.0769,-7.0141,-7.044,-7.0769,-7.0141,-7.044,-7.0889,-7.0829,-7.0859,-7.0889,-7.0889,-7.0889,-7.0889,-7.0889,-7.0889,-7.0889,-7.0889,-7.0889,-7.0889,-7.0889,-7.0889,-7.0889,-7.0889,-7.035,-6.9961,-6.9901,-6.8675,-6.7897,-6.7897,-6.7328,-6.67,-6.5951,-6.5293,-6.4366,-6.3139,-6.1762,-6.0745,-6.0176,-5.9458,-5.8991,-5.8748,-5.8445,-5.8114,-5.7836,-5.7528,-5.736,-7.6754,-7.9477,-8.1332,-8.0255,-7.7113,-7.3373,-6.9812,0.0,0.0,-5.7962,-5.6256,-5.5269,-5.5538,-5.6107,-5.7603,0.0,0.0,0.0,0.0,0.0,0.0,0.0,0.0,0.0,0.0,0.0,0.0,0.0,0.0,0.0,0.0,-8.7265,-8.7241,-8.7211,-8.6817,-8.6558,-8.6326,-8.5899,-8.5162,-8.4115,-8.3846,-8.2828,-8.1183,-8.0913,-8.0225,-7.9178,0.0,0.0,0.0,-7.5647,-7.436,-7.3223,-7.2415,-7.1607,-7.0949,-7.1188,-7.1128,-7.0889,-7.0889,-7.0889,-7.0889,-7.0889,-7.0889,-7.0829,-7.047,-7.062,-7.0769,-7.0141,-7.044,-7.0769,-7.0141,-7.0171,-7.044,-7.0799,-7.0889,-7.0889,-7.0889,-7.0889,-7.0889,-7.0889,-7.0889,-7.0889,-7.0889,-7.0889,-7.0889,-7.0889,-7.0889,-7.0889,-7.0889,-7.0679,-7.053,-7.053,-6.9363,-6.8435,-6.8016,-6.7717,-6.7119,-6.6071,-6.4994,-6.4006,-6.3109,-6.1403,-6.0356,-6.0086,-5.9428,-5.8936,-5.8694,-5.8555,-5.828,-5.7781,-5.7807,-5.764,-7.5856,-7.9357,-8.1901,-8.0794,-7.7173,-7.3043,0.0,0.0,-5.9518,-5.7513,-5.6226,-5.5418,-5.5239,-5.5867,-5.7034,0.0,0.0,-6.1523,0.0,0.0,0.0,0.0,0.0,0.0,0.0,0.0,0.0,0.0,0.0,0.0,0.0,-8.6332,-8.6404,-8.609,-8.627,-8.606,-8.5402,-8.5222,-8.4564,-8.3427,-8.3247,-8.223,-8.0494,-8.0494,-7.9896,-7.8759,0.0,0.0,0.0,-7.4839,-7.3552,-7.2505,-7.1547,-7.1068,-7.0889,-7.0889,-7.0889,-7.0889,-7.0889,-7.0769,-7.0649,-7.0829,-7.0769,-7.05,-6.9871,-7.0141,-7.053,-7.0111,-7.029,-7.056,-7.032,-7.026,-7.035,-7.0799,-7.0889,-7.0889,-7.0889,-7.0889,-7.0889,-7.0889,-7.0889,-7.0889,-7.0889,-7.0889,-7.0889,-7.0889,-7.0889,-7.0889,-7.0889,-7.0889,-7.0889,-7.0889,-7.0111,-6.9213,-6.8345,-6.8076,-6.7478,-6.637,-6.5054,-6.3947,-6.3109,-6.1343,-6.0206,-5.9787,-5.9338,-5.8936,-5.8694,-5.8694,-5.839,-5.7781,-5.8003,-5.7807,-7.3402,-7.7293,-8.0674,-7.9986,-7.6844,-7.3043,0.0,0.0,-5.9518,-5.7513,-5.6585,-5.5957,-5.5299,-5.6226,-5.7543,-5.889,0.0,0.0,0.0,0.0,0.0,0.0,0.0,0.0,0.0,0.0,0.0,0.0,0.0,0.0,0.0,0.0,-8.4743,-8.4743,-8.5372,-8.5402,-8.4743,-8.4085,-8.3427,-8.2844,-8.211,-8.1093,-7.9836,-7.9836,-7.9447,0.0,0.0,0.0,0.0,-7.5168,-7.3702,-7.1906,-7.1876,-7.1487,-7.0889,-7.0889,-7.0889,-7.0889,-7.0889,-7.05,-7.0081,-7.0709,-7.05,-6.9871,-6.9213,-6.9482,-6.9991,-6.9991,-6.9991,-7.0141,-7.0739,-7.0889,-7.0889,-7.0889,-7.0889,-7.0889,-7.0889,-7.0889,-7.0889,-7.0889,-7.0889,-7.0889,-7.0889,-7.0889,-7.0889,-7.0889,-7.0889,-7.0889,-7.0889,-7.0889,-7.0889,-7.0889,-7.0889,-7.038,-6.9093,-6.8375,-6.7687,-6.7029,-6.5742,-6.4425,-6.3139,-6.1822,-6.0475,-5.9129,-5.9099,-5.8936,-5.8694,-5.8694,-5.839,-5.7781,-5.7781,-5.7613,-6.9064,-7.2565,-7.5138,-7.4001,-7.1787,-6.9213,-6.6819,0.0,-5.9638,-5.8112,-5.7274,-5.6735,-5.6526,-5.6825,-5.7842,-6.0116,-6.0655,0.0,0.0,0.0,0.0,0.0,0.0,0.0,0.0,0.0,0.0,0.0,0.0,0.0,0.0,0.0,-8.4265,-8.4714,-8.4923,-8.4714,-8.4055,-8.3397,-8.2739,-8.208,-8.1422,-8.0644,-7.9806,-7.9806,0.0,0.0,0.0,0.0,0.0,-7.3313,-7.2445,-7.1846,-7.1398,-7.1098,-7.0859,-7.044,-7.026,-7.0201,-6.9752,-6.9782,-7.0021,-7.0201,-7.0141,-6.9931,-6.9722,-6.9812,-6.9991,-6.9991,-7.029,-7.0649,-7.0859,-7.0889,-7.0889,-7.0889,-7.0889,-7.0889,-7.0889,-7.0889,-7.0889,-7.0889,-7.0889,-7.0889,-7.0889,-7.056,-7.0415,-7.0847,-7.0569,-7.0415,-7.0847,-7.0929,-7.0889,-7.0889,-7.0889,-7.038,-6.9123,-6.8794,-6.8196,-6.7059,-6.5742,-6.4635,-6.3737,-6.248,-6.1373,-6.0505,-6.0027,-5.9678,-5.9402,-5.8707,-5.8059,-5.7472,-5.7472,-5.7416,0.0,-6.9273,-7.1637,-7.1068,-6.9243,0.0,0.0,0.0,-5.9398,-5.8351,-5.7782,-5.7393,-5.7154,-5.7513,-5.8411,-6.0086,0.0,0.0,0.0,0.0,0.0,0.0,0.0,0.0,0.0,0.0,0.0,0.0,0.0,0.0,0.0,0.0,-8.3547,-8.3965,-8.4205,-8.4025,-8.3367,-8.2709,-8.205,-8.1392,-8.0734,-7.9956,-7.9058,-7.9058,0.0,0.0,0.0,0.0,0.0,-7.2355,-7.1727,-7.1457,-7.1068,-7.0889,-7.0829,-7.0201,-6.9991,-6.9871,-6.9243,-6.9093,-6.9273,-6.9512,-6.9423,-6.9213,-6.9213,-6.9393,-6.9602,-6.9602,-7.0081,-7.062,-7.0829,-7.0889,-7.0829,-7.062,-7.0739,-7.0829,-7.062,-7.0739,-7.0889,-7.0889,-7.0709,-7.056,-7.056,-7.0021,-6.9756,-7.0093,-7.0089,-7.0239,-7.0855,-7.0869,-7.0889,-7.0889,-7.0709,-7.0141,-6.9093,-6.9004,-6.8435,-6.7059,-6.5981,-6.4964,-6.4036,-6.3019,-6.2032,-6.1134,-6.0446,-6.0031,-5.9866,-5.8741,-5.7918,-5.7472,-5.736,-5.7303,0.0,-6.6849,0.0,0.0,0.0,0.0,0.0,-6.1822,0.0,-5.8321,-5.8201,-5.8022,-5.7423,-5.8291,-5.9159,-5.9368,0.0,0.0,0.0,0.0,0.0,0.0,0.0,0.0,0.0,0.0,0.0,0.0,0.0,0.0,0.0,0.0,0.0,-8.2844,-8.3307,-8.3307,-8.2709,-8.1991,-8.1332,-8.0734,-8.0016,-7.9028,-7.7801,-7.7711,0.0,0.0,0.0,0.0,0.0,-7.2086,-7.1457,-7.0889,-7.0889,-7.0889,-7.0829,-7.0141,-6.9901,-6.9812,-6.9093,-6.8465,-6.8076,-6.8704,-6.8495,-6.7956,-6.7897,-6.8375,-6.8944,-6.8944,-6.9393,-7.0051,-7.0679,-7.0799,-7.0649,-7.0171,-7.044,-7.0679,-7.0171,-7.047,-7.0829,-7.0829,-7.032,-6.9901,-6.9901,-6.9363,-6.8944,-6.8974,-6.9512,-7.0179,-7.0825,-7.0933,-7.0889,-7.0889,-7.035,-6.9722,-6.9064,-6.8944,-6.8375,-6.7059,-6.637,-6.5413,-6.4126,-6.3468,-6.254,-6.1283,-6.0535,-6.0061,-5.9942,-5.8711,-5.8059,-5.7781,-5.7416,-5.7303,-5.9099,0.0,-6.2421,-6.26,-6.257,-6.2271,0.0,-6.0535,-5.9668,-5.9009,-5.886,-5.8979,-5.9308,-5.9219,-5.9757,0.0,0.0,0.0,0.0,0.0,0.0,0.0,0.0,0.0,0.0,0.0,0.0,0.0,0.0,0.0,0.0,0.0,0.0,-8.2844,-8.2409,-8.217,-8.202,-8.0853,-8.0195,-8.0045,-7.8849,-7.81,-7.7771,-7.6784,0.0,0.0,0.0,0.0,-7.1368,-7.1188,-7.1038,-7.0889,-7.0889,-7.0889,-7.0769,-6.9662,-6.9243,-6.9064,-6.7867,-6.7687,-6.8048,-6.8166,-6.8106,-6.7867,-6.7358,-6.7687,-6.8226,-6.8226,-6.8704,-6.9393,-7.0021,-6.9812,-6.9662,-7.05,-7.044,-7.029,-7.062,-7.044,-7.0201,-7.0201,-6.9662,-6.9243,-6.9243,-6.8675,-6.844,-6.8928,-6.91,-6.9673,-7.0779,-7.0877,-7.0889,-7.0889,-7.035,-6.9722,-6.9064,-6.8525,-6.7867,-6.7029,-6.637,-6.5652,-6.4814,-6.4126,-6.3408,-6.263,-6.1208,-5.977,-5.8349,-5.8006,-5.7725,-5.7416,-5.736,-5.7303,-5.7304,-5.883,-6.0236,-6.0864,-6.1074,-6.1014,-6.0655,0.0,-5.9548,-5.9189,-5.9099,-5.9308,-5.9967,-5.9787,0.0,0.0,0.0,0.0,0.0,0.0,0.0,0.0,0.0,0.0,0.0,0.0,0.0,0.0,0.0,0.0,0.0,0.0,0.0,0.0,-8.1841,-8.1482,-8.1781,-8.0464,-7.9656,-7.9327,-7.831,-7.7502,-7.6904,-7.5886,0.0,0.0,0.0,0.0,-7.0889,-7.0889,-7.0889,-7.0889,-7.0889,-7.0739,-7.035,-6.9363,-6.8794,-6.8375,-6.7358,-6.7418,-6.7956,-6.7956,-6.7956,-6.7897,-6.7537,-6.7478,-6.7597,-6.7897,-6.8256,-6.8675,-6.9363,-6.9273,-6.9093,-6.9482,-6.9782,-6.9991,-7.0021,-6.9991,-6.9991,-6.9991,-6.9183,-6.8525,-6.8525,-6.7956,-6.7659,-6.8054,-6.8405,-6.9007,-6.9931,-7.0153,-7.0346,-7.047,-6.9632,-6.9034,-6.9004,-6.7807,-6.6909,-6.655,-6.5922,-6.5263,-6.4575,-6.4186,-6.335,-6.201,-6.1038,-5.9691,-5.7781,-5.7781,-5.7613,-5.7303,-5.7303,-5.7303,-5.6915,-5.88,-6.0595,-6.1433,-6.1283,-6.0924,-6.0835,0.0,0.0,0.0,0.0,0.0,0.0,-6.0416,0.0,0.0,0.0,0.0,0.0,0.0,0.0,0.0,0.0,0.0,0.0,0.0,0.0,0.0,0.0,0.0,0.0,0.0,0.0,0.0,-8.1452,-8.1003,-8.1482,-8.0285,-7.9267,-7.8489,-7.7831,-7.6844,-7.5587,-7.4899,-7.3911,0.0,0.0,0.0,-7.0889,-7.0889,-7.0889,-7.0889,-7.0889,-7.053,-6.9901,-6.9243,-6.8555,-6.7867,-6.7208,-6.7418,-6.7956,-6.7956,-6.7956,-6.7956,-6.7956,-6.7508,-6.7119,-6.7657,-6.7837,-6.7986,-6.8675,-6.8764,-6.8585,-6.8226,-6.8914,-6.9542,-6.9093,-6.9363,-6.9662,-6.9662,-6.8675,-6.7837,-6.7837,-6.7358,-6.6999,-6.6999,-6.7742,-6.8462,-6.8807,-6.9187,-6.9504,-6.9812,-6.8704,-6.8196,-6.8794,-6.7089,-6.5981,-6.5862,-6.5323,-6.4725,-6.4036,-6.3739,-6.2696,-6.0654,-6.0449,-5.9546,-5.7781,-5.7781,-5.7613,-5.7303,-5.7303,-5.7303,-5.7603,-5.9847,-6.1433,-5.9937,-5.9907,-6.0086,-5.9548,0.0,0.0,0.0,0.0,0.0,0.0,-6.1852,0.0,0.0,0.0,0.0,0.0,0.0,0.0,0.0,0.0,0.0,0.0,0.0,0.0,0.0,0.0,0.0,0.0,0.0,0.0,0.0,0.0,-8.0584,-8.0135,-7.9357,-7.834,-7.7113,-7.6485,-7.5497,-7.418,-7.3522,-7.2804,0.0,0.0,-7.1517,-7.0889,-7.0889,-7.0889,-7.0889,-7.0889,-7.053,-6.9901,-6.9243,-6.8555,-6.7867,-6.7208,-6.7418,-6.7956,-6.7956,-6.7956,-6.7956,-6.7956,-6.7508,-6.6999,-6.7119,-6.7148,-6.7298,-6.7956,-6.7717,-6.7567,-6.8585,-6.8555,-6.8405,-6.8884,-6.8615,-6.8286,-6.8286,-6.7657,-6.7148,-6.7148,-6.7059,-6.6999,-6.6999,-6.7749,-6.835,-6.8413,-6.8462,-6.8665,-6.9123,-6.8435,-6.8016,-6.8106,-6.6819,-6.5772,-6.5203,-6.5084,-6.4725,-6.4036,-6.2698,-6.1543,-6.0624,-5.9836,-5.8906,-5.7781,-5.7781,-5.7613,-5.7303,-5.7303,-5.7303,-5.7304,-5.9249,-6.0954,-6.0775,-6.1463,-6.1942,-6.0954,-6.0446,0.0,0.0,0.0,0.0,0.0,0.0,0.0,0.0,0.0,0.0,0.0,0.0,0.0,0.0,0.0,0.0,0.0,0.0,0.0,0.0,0.0,0.0,0.0,0.0,0.0,0.0,0.0,-7.9387,-7.8729,-7.7741,-7.6933,-7.6305,-7.5318,-7.43,-7.3343,-7.2654,-7.2176,-7.1876,0.0,-7.1188,-7.0889,-7.0889,-7.0889,-7.0889,-7.0889,-7.053,-6.9842,-6.8824,-6.8016,-6.7388,-6.7089,-6.7657,-6.8525,-6.8525,-6.8525,-6.8525,-6.8525,-6.7807,-6.6999,-6.6999,-6.6999,-6.7059,-6.7358,-6.7208,-6.7148,-6.7777,-6.7956,-6.8046,-6.8375,-6.8196,-6.7956,-6.7956,-6.7448,-6.6999,-6.6999,-6.6999,-6.6999,-6.6999,-6.7356,-6.7775,-6.823,-6.8525,-6.8728,-6.9004,-6.8375,-6.7956,-6.7956,-6.6759,-6.5562,-6.4545,-6.4156,-6.3827,-6.3528,-6.2455,-6.1422,-6.0428,-5.9634,-5.862,-5.7528,-5.7528,-5.7416,-5.7303,-5.7303,-5.7303,-5.7393,-5.9039,-6.0805,-6.1822,-6.2839,-6.3498,-6.3288,-6.263,-6.2151,-6.263,0.0,0.0,0.0,0.0,0.0,0.0,0.0,0.0,0.0,0.0,0.0,0.0,0.0,0.0,0.0,0.0,0.0,0.0,0.0,0.0,0.0,0.0,0.0,0.0,-7.9327,-7.834,-7.7382,-7.6096,-7.5347,-7.5198,-7.4151,-7.3223,-7.2445,-7.2056,-7.1787,-7.1637,-7.1278,-7.1038,-7.0889,-7.0889,-7.0889,-7.0889,-7.0889,-7.044,-6.9572,-6.8226,-6.7418,-6.6999,-6.7178,-6.8016,-6.9004,-6.9004,-6.9004,-6.8974,-6.8794,-6.7926,-6.6999,-6.6999,-6.6999,-6.6999,-6.6999,-6.6999,-6.6999,-6.6999,-6.7358,-6.7747,-6.7747,-6.7747,-6.7747,-6.7747,-6.7328,-6.6999,-6.6999,-6.6999,-6.6999,-6.6999,-6.6964,-6.72,-6.7897,-6.8863,-6.9316,-6.8887,-6.8315,-6.7837,-6.7537,-6.646,-6.5263,-6.4066,-6.3408,-6.3019,-6.2839,-6.2097,-6.1157,-6.0077,-5.9286,-5.8361,-5.7416,-5.7416,-5.736,-5.7303,-5.7303,-5.7303,-5.877,-6.0416,-6.1972,-6.2061,-6.2181,-6.3019,-6.5951,-6.5652,-6.5263,-6.7089,-6.7986,0.0,0.0,0.0,0.0,0.0,0.0,0.0,0.0,0.0,0.0,0.0,0.0,0.0,0.0,0.0,0.0,0.0,0.0,0.0,0.0,0.0,0.0,0.0,0.0,-7.7891,-7.6066,-7.4719,-7.3732,-7.3133,-7.3043,-7.2295,-7.1068,-7.1637,-7.1547,-7.1009,-7.1577,-7.1457,-7.0889,-7.0889,-7.0889,-7.0889,-7.0889,-7.0141,-6.8914,-6.7567,-6.7029,-6.7089,-6.7687,-6.8375,-6.9004,-6.9004,-6.9004,-6.8884,-6.8226,-6.7537,-6.6999,-6.6999,-6.6999,-6.6999,-6.6999,-6.6999,-6.6999,-6.6999,-6.7029,-6.7059,-6.7059,-6.7059,-6.7059,-6.7059,-6.7029,-6.6999,-6.6999,-6.6999,-6.6999,-6.6999,-6.6999,-6.6995,-6.7108,-6.9235,-7.0153,-6.8503,-6.8138,-6.7478,-6.6251,-6.5503,-6.4784,-6.4036,-6.3408,-6.281,-6.2181,-6.1013,-6.0161,-5.9733,-5.8526,-5.7895,-5.7781,-5.7781,-5.7613,-5.7303,-5.7303,-5.7303,-5.8441,-6.0565,-6.272,-6.272,-6.3617,-6.5084,-6.7119,-6.7537,-6.7926,-6.9482,-7.1009,-7.1816,0.0,0.0,0.0,0.0,0.0,0.0,0.0,0.0,0.0,0.0,0.0,0.0,0.0,0.0,0.0,0.0,0.0,0.0,0.0,0.0,0.0,0.0,0.0,-7.6634,-7.4689,-7.3732,-7.2744,-7.1667,-7.1667,-7.1398,-7.0919,-7.1158,-7.1128,-7.0919,-7.1158,-7.1128,-7.0889,-7.0889,-7.0889,-7.0859,-7.047,-6.9782,-6.8884,-6.7956,-6.7358,-6.7029,-6.7268,-6.8076,-6.8944,-6.8495,-6.8645,-6.8884,-6.8166,-6.7508,-6.6999,-6.6999,-6.6999,-6.6999,-6.6999,-6.6999,-6.6999,-6.6999,-6.6999,-6.6999,-6.6999,-6.6999,-6.6999,-6.6999,-6.6999,-6.6999,-6.6999,-6.6999,-6.6999,-6.6999,-6.6999,-6.721,-6.7753,-6.8904,-6.9574,-6.9181,-6.8086,-6.6999,-6.6071,-6.5413,-6.4725,-6.4036,-6.3408,-6.278,-6.2121,-6.1038,-6.0072,-5.9421,-5.8326,-5.7725,-5.7472,-5.7472,-5.7416,-5.7303,-5.7303,-5.7303,-5.8231,-6.0086,-6.2241,-6.266,0.0,-6.667,-6.9243,-7.0051,-7.0889,-7.3223,-7.3971,-7.433,-7.4749,0.0,0.0,0.0,0.0,0.0,0.0,0.0,0.0,0.0,0.0,0.0,0.0,0.0,0.0,0.0,0.0,0.0,0.0,0.0,0.0,0.0,0.0,0.0,-7.3612,-7.2924,-7.2026,-7.0889,-7.0889,-7.0889,-7.0889,-7.0889,-7.0889,-7.0889,-7.0889,-7.0799,-7.062,-7.062,-7.062,-7.053,-6.9692,-6.9213,-6.8884,-6.7986,-6.7388,-6.7029,-6.7238,-6.8046,-6.8914,-6.8435,-6.8615,-6.8884,-6.8166,-6.7508,-6.6999,-6.6999,-6.6999,-6.6999,-6.6999,-6.6999,-6.6999,-6.6999,-6.6999,-6.6999,-6.6999,-6.6999,-6.6999,-6.6999,-6.6999,-6.6999,-6.6999,-6.6999,-6.6999,-6.6999,-6.6789,-6.694,-6.7784,-6.7934,-6.8087,-6.8394,-6.7214,-6.6101,-6.5443,-6.4964,-6.4366,-6.365,-6.3202,-6.2665,-6.2007,-6.0924,-5.9903,-5.9085,-5.8102,-5.7528,-5.7303,-5.7303,-5.7303,-5.7303,-5.7303,-5.7303,-5.8501,-5.9099,-6.0446,-6.1762,0.0,0.0,-7.2714,-7.3402,-7.424,-7.8878,-7.7233,-7.5318,-7.6634,-7.6365,0.0,0.0,0.0,0.0,0.0,0.0,0.0,0.0,0.0,0.0,0.0,0.0,0.0,0.0,0.0,0.0,0.0,0.0,0.0,0.0,0.0,0.0,-7.2924,-7.2235,-7.1547,-7.0889,-7.0889,-7.0889,-7.0889,-7.0889,-7.0889,-7.0889,-7.0889,-7.056,-6.9991,-6.9961,-6.9961,-6.9842,-6.8495,-6.8405,-6.8824,-6.7478,-6.6999,-6.7089,-6.7747,-6.8405,-6.9004,-6.8974,-6.9004,-6.8854,-6.8166,-6.7508,-6.6999,-6.6999,-6.6999,-6.6999,-6.6999,-6.6999,-6.6999,-6.6999,-6.6999,-6.6999,-6.6999,-6.6999,-6.6999,-6.6999,-6.6999,-6.6999,-6.6999,-6.6999,-6.6999,-6.6999,-6.628,-6.6009,-6.6867,-6.6216,-6.5741,-6.5981,-6.5413,-6.4755,-6.4066,-6.4006,-6.362,-6.2644,-6.2615,-6.2288,-6.1605,-6.038,-5.939,-5.8689,-5.7792,-5.7303,-5.7303,-5.7303,-5.7303,-5.7303,-5.7303,-5.7303,-5.9039,-6.0475,0.0,-6.3228,0.0,0.0,0.0,-7.442,0.0,0.0,-8.0375,-7.9297,-8.0165,0.0,0.0,0.0,0.0,0.0,0.0,0.0,0.0,0.0,0.0,0.0,0.0,0.0,0.0,0.0,0.0,0.0,0.0,0.0,0.0,0.0,0.0,0.0,-7.2206,-7.1996,-7.1547,-7.0889,-7.0889,-7.0889,-7.0889,-7.0889,-7.0889,-7.0889,-7.0889,-7.056,-6.9931,-6.9482,-6.9303,-6.9213,-6.8315,-6.8106,-6.8166,-6.7298,-6.6999,-6.7029,-6.7208,-6.7717,-6.8196,-6.7747,-6.7897,-6.8136,-6.7478,-6.7148,-6.6999,-6.6999,-6.6999,-6.6999,-6.6999,-6.6999,-6.6999,-6.6999,-6.6999,-6.6999,-6.6999,-6.6999,-6.6999,-6.6999,-6.6999,-6.6999,-6.6999,-6.6999,-6.6999,-6.6999,-6.628,-6.5561,-6.5202,-6.4427,-6.4219,-6.5174,-6.5144,-6.4755,-6.4066,-6.3588,-6.2963,-6.1931,-6.1314,-6.0786,-6.0637,-6.003,-5.9185,-5.8102,-5.7588,-5.7303,-5.7303,-5.7303,-5.7303,-5.7303,-5.7303,-5.7303,-5.9518,-6.1253,0.0,-6.4844,-6.8196,-7.2086,-7.5617,0.0,0.0,0.0,0.0,-8.1871,-8.2769,0.0,0.0,0.0,0.0,0.0,0.0,0.0,0.0,0.0,0.0,0.0,0.0,0.0,0.0,0.0,0.0,0.0,0.0,0.0,0.0,0.0,0.0,0.0,-7.1906,-7.1637,-7.1308,-7.0889,-7.0649,-7.053,-7.056,-7.0799,-7.0769,-7.05,-6.9961,-6.9512,-6.9123,-6.8465,-6.8345,-6.8525,-6.7837,-6.7747,-6.7897,-6.7238,-6.6819,-6.664,-6.6909,-6.7238,-6.7567,-6.7418,-6.7657,-6.7897,-6.7508,-6.7208,-6.6999,-6.6999,-6.6999,-6.6999,-6.6999,-6.6789,-6.667,-6.6939,-6.6999,-6.6999,-6.6999,-6.6999,-6.6999,-6.6999,-6.6999,-6.6999,-6.6999,-6.6759,-6.661,-6.661,-6.5921,-6.5024,-6.398,-6.3415,-6.3385,-6.4127,-6.4246,-6.4096,-6.3677,-6.3049,-6.2396,-6.1634,-6.0696,-5.9995,-5.9617,-5.9331,-5.878,-5.8021,-5.7561,-5.7303,-5.7303,-5.7303,-5.7303,-5.7303,-5.7303,-5.7303,-5.9997,0.0,0.0,-6.667,-7.047,0.0,-7.822,-8.1482,-8.3876,-8.4414,0.0,0.0,0.0,0.0,0.0,0.0,0.0,0.0,0.0,0.0,0.0,0.0,0.0,0.0,0.0,0.0,0.0,0.0,0.0,0.0,0.0,0.0,0.0,0.0,0.0,0.0,-7.1787,-7.1188,-7.0889,0.0,-7.026,-6.9961,-6.9901,-7.047,-7.044,-6.9812,-6.8525,-6.7989,-6.7837,-6.7238,-6.7298,-6.7747,-6.7208,-6.7358,-6.7807,-6.7208,-6.661,-6.6191,-6.67,-6.6939,-6.7059,-6.7537,-6.7777,-6.7867,-6.7807,-6.7358,-6.6909,-6.6909,-6.6849,-6.6819,-6.6819,-6.637,-6.6071,-6.667,-6.6849,-6.6909,-6.6909,-6.6909,-6.6909,-6.6969,-6.6939,-6.6909,-6.6909,-6.64,-6.5951,-6.5832,-6.5353,-6.4515,-6.3228,-6.3114,-6.3116,-6.3109,-6.3079,-6.3079,-6.3079,-6.2421,-6.1831,-6.1516,-6.0491,-5.9558,-5.8602,-5.8376,-5.8261,-5.8203,-5.7623,-5.7303,-5.7303,-5.7303,-5.7303,-5.7303,-5.7303,-5.7303,0.0,0.0,0.0,0.0,0.0,-7.8819,-8.0704,-8.2469,-8.3636,0.0,0.0,0.0,0.0,0.0,0.0,0.0,0.0,0.0,0.0,0.0,0.0,0.0,0.0,0.0,0.0,0.0,0.0,0.0,0.0,0.0,0.0,0.0,0.0,0.0,0.0,-7.1128,-7.1128,-7.0979,-7.0649,0.0,-7.0051,-6.9722,-6.9213,-6.9363,-6.9333,-6.9153,-6.8315,-6.7687,-6.7178,-6.7059,-6.6759,-6.646,-6.6849,-6.7089,-6.7178,-6.7029,-6.6909,-6.6729,-6.634,-6.655,-6.6849,-6.5951,-6.637,-6.7119,-6.658,-6.634,-6.6221,-6.6221,-6.5862,-6.5443,-6.5443,-6.5353,-6.5263,-6.5413,-6.5832,-6.6221,-6.6221,-6.6221,-6.637,-6.6879,-6.658,-6.6221,-6.6221,-6.6101,-6.5652,-6.4605,-6.4752,-6.4541,-6.3286,-6.3139,-6.3081,-6.3079,-6.3079,-6.3079,-6.3079,-6.1744,-6.0776,-6.0491,-5.9117,-5.8076,-5.7619,-5.8086,-5.8058,-5.7536,-5.739,-5.7303,-5.7303,-5.7303,-5.7303,-5.7303,-5.7303,-5.7303,0.0,0.0,0.0,0.0,0.0,0.0,0.0,0.0,0.0,0.0,0.0,0.0,0.0,0.0,0.0,0.0,0.0,0.0,0.0,0.0,0.0,0.0,0.0,0.0,0.0,0.0,0.0,0.0,0.0,0.0,0.0,0.0,0.0,0.0,-7.0968,-7.0509,-7.0181,-7.0052,-6.966,-6.9035,-6.8866,-6.8399,-6.7597,-6.8226,-6.8495,-6.8465,-6.7448,-6.6849,-6.649,-6.6191,-6.5862,-6.5562,-6.5922,-6.6251,-6.652,-6.652,-6.652,-6.646,-6.6131,-6.6011,-6.5951,-6.5263,-6.5503,-6.5981,-6.5652,-6.5533,-6.5533,-6.5533,-6.5293,-6.5024,-6.5024,-6.4784,-6.4545,-6.4545,-6.5054,-6.5533,-6.5533,-6.5533,-6.5652,-6.5981,-6.5772,-6.5533,-6.5533,-6.5263,-6.4725,-6.3707,-6.3854,-6.3852,-6.3196,-6.2515,-6.2396,-6.3019,-6.251,-6.2214,-6.2398,-6.1035,-6.0037,-5.9755,-5.8505,-5.7725,-5.7528,-5.7708,-5.7652,-5.7303,-5.7303,-5.7303,-5.7303,-5.7303,-5.7303,-5.7303,-5.7303,-5.7303,0.0,0.0,0.0,0.0,0.0,0.0,0.0,0.0,0.0,0.0,0.0,0.0,0.0,0.0,0.0,0.0,0.0,0.0,0.0,0.0,0.0,0.0,0.0,0.0,0.0,0.0,0.0,0.0,0.0,0.0,0.0,0.0,-7.1427,-7.0674,-7.0349,-6.9892,-6.9203,-6.8761,-6.8248,-6.7663,-6.7212,-6.6602,-6.5892,-6.6969,-6.7478,-6.7418,-6.6311,-6.5772,-6.5622,-6.5203,-6.4964,-6.4844,-6.4844,-6.5173,-6.5652,-6.5652,-6.5652,-6.5652,-6.5652,-6.5383,-6.4934,-6.4755,-6.4844,-6.4994,-6.4874,-6.4844,-6.4844,-6.4844,-6.4784,-6.4695,-6.4695,-6.4276,-6.3827,-6.3827,-6.4276,-6.4725,-6.4814,-6.4844,-6.4874,-6.4994,-6.4934,-6.4844,-6.4844,-6.4276,-6.3677,-6.3169,-6.3079,-6.3079,-6.3079,-6.1923,-6.1451,-6.2311,-6.1589,-6.1201,-6.1397,-6.0327,-5.9477,-5.9112,-5.8244,-5.7725,-5.7725,-5.7416,-5.7303,-5.7303,-5.7303,-5.7303,-5.7303,-5.7303,-5.7303,-5.7303,-5.7303,-5.7303,0.0,0.0,0.0,0.0,0.0,0.0,0.0,0.0,0.0,0.0,0.0,0.0,0.0,0.0,0.0,0.0,0.0,0.0,0.0,0.0,0.0,0.0,0.0,0.0,0.0,0.0,0.0,0.0,0.0,0.0,0.0,-7.0979,-7.061,-6.963,-6.9535,-6.9109,-6.82,-6.7575,-6.6892,-6.6277,-6.5403,-6.5053,-6.5173,-6.5353,-6.5413,-6.5413,-6.5233,-6.4814,-6.4306,-6.4814,-6.4665,-6.4126,-6.4126,-6.4186,-6.4276,-6.4276,-6.4276,-6.4276,-6.4276,-6.4605,-6.4844,-6.3707,-6.4096,-6.4904,-6.4306,-6.4126,-6.4126,-6.4126,-6.3767,-6.3348,-6.3348,-6.3258,-6.3199,-6.3199,-6.3258,-6.3498,-6.4006,-6.4126,-6.4306,-6.4904,-6.4545,-6.4126,-6.4126,-6.3617,-6.3169,-6.3079,-6.3079,-6.3079,-6.3079,-6.1923,-6.0748,-5.9762,-6.0506,-6.1022,-6.0743,-5.9836,-5.9141,-5.8889,-5.7907,-5.736,-5.736,-5.7303,-5.7303,-5.7303,-5.7303,-5.7303,-5.7303,-5.7303,-5.7303,-5.7303,-5.7303,-5.7303,0.0,0.0,0.0,0.0,0.0,0.0,0.0,0.0,0.0,0.0,0.0,0.0,0.0,0.0,0.0,0.0,0.0,0.0,0.0,0.0,0.0,0.0,0.0,0.0,0.0,0.0,0.0,0.0,0.0,0.0,-7.0919,-7.0366,-6.9843,-6.9446,-6.8673,0.0,-6.6608,-6.6124,-6.5543,-6.4917,-6.4539,-6.4367,-6.4455,-6.4096,-6.4336,-6.4994,-6.4246,-6.3767,-6.3438,-6.3019,-6.266,-6.2391,-6.2391,-6.26,-6.2989,-6.3348,-6.3498,-6.3528,-6.3887,-6.3737,-6.3348,-6.3139,-6.2959,-6.2929,-6.3348,-6.3228,-6.3019,-6.3378,-6.3288,-6.3079,-6.3079,-6.3079,-6.3079,-6.3079,-6.3079,-6.3139,-6.3438,-6.3498,-6.3558,-6.3887,-6.3677,-6.3498,-6.3498,-6.3258,-6.3079,-6.3079,-6.3079,-6.3079,-6.3079,-6.1918,-6.0859,-6.0345,-5.9974,-5.9759,-5.9806,-5.8965,-5.8388,-5.8219,-5.7996,-5.7681,-5.7332,-5.7652,-5.7681,-5.7303,-5.7303,-5.7303,-5.7303,-5.7303,-5.7303,-5.7303,-5.7303,-5.7303,0.0,0.0,0.0,0.0,0.0,0.0,0.0,0.0,0.0,0.0,0.0,0.0,0.0,0.0,0.0,0.0,0.0,0.0,0.0,0.0,0.0,0.0,0.0,0.0,0.0,0.0,0.0,0.0,0.0,0.0,-7.0679,-6.9943,-6.9273,-6.8669,-6.7624,-6.6358,-6.4881,-6.458,-6.398,-6.3089,-6.3326,-6.3387,-6.3258,-6.278,-6.3109,-6.3977,-6.2989,-6.257,-6.251,-6.1523,-6.1104,-6.1104,-6.0924,-6.1164,-6.1642,-6.2121,-6.2301,-6.2421,-6.3049,-6.263,-6.1942,-6.2421,-6.2032,-6.1553,-6.254,-6.26,-6.245,-6.2929,-6.3079,-6.3079,-6.3079,-6.3079,-6.3079,-6.3079,-6.3079,-6.3079,-6.3079,-6.3079,-6.3079,-6.3079,-6.3079,-6.3079,-6.3079,-6.3079,-6.3079,-6.3079,-6.3079,-6.3079,-6.3079,-6.2032,-6.1264,-6.1337,-5.9967,-5.911,-5.9194,-5.8411,-5.7836,-5.7669,-5.7881,-5.7826,-5.7332,-5.7768,-5.7826,-5.7303,-5.7303,-5.7303,-5.7303,-5.7303,-5.7303,-5.7303,-5.7303,-5.7303,0.0,0.0,0.0,0.0,0.0,0.0,0.0,0.0,0.0,0.0,0.0,0.0,0.0,0.0,0.0,0.0,0.0,0.0,0.0,0.0,0.0,0.0,0.0,0.0,0.0,0.0,0.0,0.0,0.0,0.0,-7.0051,-6.9991,-6.8776,-6.6247,-6.6066,-6.5136,-6.3258,-6.2893,-6.1908,-6.0406,-6.1284,-6.1541,-6.1253,-6.1224,-6.1253,-6.1313,-6.1253,-6.1224,-6.1224,-6.1134,-6.1104,-6.1044,-6.0386,-6.0146,-6.0206,-6.0236,-6.0236,-6.0326,-6.1014,-6.1224,-6.1164,-6.1194,-6.1583,-6.2061,-6.2121,-6.257,-6.3019,-6.3079,-6.3079,-6.3079,-6.3079,-6.3079,-6.3079,-6.3079,-6.3079,-6.3079,-6.3079,-6.3079,-6.3079,-6.3079,-6.3079,-6.3079,-6.3079,-6.3079,-6.3079,-6.3079,-6.3079,-6.3079,-6.3079,-6.2274,-6.1652,-6.1682,-6.0719,-5.9806,-5.9224,-5.8578,-5.7918,-5.736,-5.7332,-5.7332,-5.7303,-5.7332,-5.7332,-5.7303,-5.7303,-5.7303,-5.7303,-5.7303,-5.7303,-5.7303,-5.7303,-5.7303,0.0,0.0,0.0,0.0,0.0,0.0,0.0,0.0,0.0,0.0,0.0,0.0,0.0,0.0,0.0,0.0,0.0,0.0,0.0,0.0,0.0,0.0,0.0,0.0,0.0,0.0,0.0,0.0,0.0,0.0,-6.9991,-6.8963,-6.7664,-6.607,-6.5378,-6.4308,-6.2776,-6.1408,-6.0881,-6.1077,-6.1013,-6.1032,-6.1104,-6.0655,-6.0446,-6.0416,-5.9997,-6.0057,-6.0416,-5.9997,-5.9817,-5.9787,-5.9548,-5.9458,-5.9518,-5.9937,-5.9817,-5.9608,-6.0715,-6.0535,-5.9967,-6.0835,-6.0685,-6.0326,-6.1194,-6.1642,-6.1912,-6.2331,-6.275,-6.3079,-6.3079,-6.3079,-6.3079,-6.3079,-6.3079,-6.3079,-6.3079,-6.3079,-6.3079,-6.3079,-6.3079,-6.3079,-6.3079,-6.272,-6.245,-6.245,-6.2325,-6.2205,-6.2214,-6.1443,-6.1058,-6.1676,-6.041,-5.9299,-5.8578,-5.798,-5.764,-5.7613,-5.7823,-5.7739,-5.7332,-5.771,-5.7739,-5.7303,-5.7303,-5.7303,-5.7303,-5.7303,-5.7303,-5.7303,-5.7303,-5.7303,-5.7992,0.0,0.0,0.0,0.0,0.0,0.0,0.0,0.0,0.0,0.0,0.0,0.0,0.0,0.0,0.0,0.0,0.0,0.0,0.0,0.0,0.0,0.0,0.0,0.0,0.0,0.0,0.0,0.0,0.0,-6.8877,-6.7668,-6.6224,-6.4587,-6.3696,-6.2608,-6.1321,-6.0412,-6.0227,-6.0624,-6.0499,-6.0403,-6.0416,-5.9967,-5.9757,-5.9727,-5.9279,-5.9338,-5.9727,-5.9279,-5.9099,-5.9099,-5.9099,-5.9099,-5.9159,-5.9608,-5.9488,-5.9249,-6.0116,-5.9847,-5.9249,-6.0146,-6.0146,-5.9937,-6.0835,-6.1433,-6.1852,-6.2301,-6.275,-6.3079,-6.3079,-6.3079,-6.3079,-6.3079,-6.2899,-6.281,-6.3019,-6.3079,-6.3079,-6.3079,-6.2899,-6.281,-6.3049,-6.254,-6.2181,-6.2391,-6.2115,-6.1905,-6.2148,-6.1148,-6.0734,-6.144,-6.0126,-5.8991,-5.8467,-5.7842,-5.7472,-5.7613,-5.7852,-5.7768,-5.7332,-5.7739,-5.7768,-5.7303,-5.7303,-5.7303,-5.7303,-5.7303,-5.7303,-5.7303,-5.7303,-5.7303,0.0,0.0,0.0,0.0,0.0,0.0,0.0,0.0,0.0,0.0,0.0,0.0,0.0,0.0,0.0,0.0,0.0,0.0,0.0,0.0,0.0,0.0,0.0,0.0,0.0,0.0,0.0,0.0,0.0,-6.8555,-6.6624,-6.6136,-6.4617,-6.179,-6.0999,-6.0063,-5.8775,-5.993,-5.9941,-5.8778,-5.9648,-5.9727,-5.9099,-5.9099,-5.9099,-5.9099,-5.9099,-5.9099,-5.9099,-5.9099,-5.9099,-5.9099,-5.9099,-5.9099,-5.9099,-5.9099,-5.9099,-5.9099,-5.9099,-5.9099,-5.9099,-5.9099,-5.9997,-6.1074,-6.1074,-6.2002,-6.3049,-6.3049,-6.3049,-6.3079,-6.3049,-6.3049,-6.3049,-6.3049,-6.257,-6.2271,-6.2929,-6.3079,-6.3079,-6.3079,-6.257,-6.2331,-6.2959,-6.251,-6.2271,-6.2929,-6.245,-6.2265,-6.2882,-6.1559,-6.0711,-6.1032,-5.9951,-5.9056,-5.8803,-5.8161,-5.7669,-5.7303,-5.7303,-5.7303,-5.7303,-5.7303,-5.7303,-5.7303,-5.7303,-5.7303,-5.7303,-5.7303,-5.7303,-5.7303,-5.7303,-5.7303,-5.5598,0.0,0.0,0.0,0.0,0.0,0.0,0.0,0.0,0.0,0.0,0.0,0.0,0.0,0.0,0.0,0.0,0.0,0.0,0.0,0.0,0.0,0.0,0.0,0.0,0.0,0.0,0.0,-6.8247,-6.7826,-6.6565,-6.5278,-6.3705,-6.176,-6.056,-5.9915,-5.9791,-5.9418,-5.9398,-5.9708,-5.9463,-5.9279,-5.9099,-5.9099,-5.9099,-5.9099,-5.9099,-5.9099,-5.9099,-5.9099,-5.9099,-5.9099,-5.9099,-5.9099,-5.9099,-5.9099,-5.9099,-5.9099,-5.9099,-5.9099,-5.9099,-5.9099,-5.9668,-6.0386,-6.0386,-6.1313,-6.2361,-6.2361,-6.272,-6.2959,-6.248,-6.2361,-6.2361,-6.2361,-6.2241,-6.2271,-6.2929,-6.3079,-6.3079,-6.3079,-6.2929,-6.2869,-6.3049,-6.2121,-6.1433,-6.1642,-6.0685,-5.9976,-6.0172,-6.0057,-5.9566,-5.8478,-5.8683,-5.8683,-5.8102,-5.7701,-5.7416,-5.7303,-5.7303,-5.7303,-5.7303,-5.7303,-5.7303,-5.7303,-5.7303,-5.7303,-5.7303,-5.7303,-5.7303,-5.7303,-5.7303,-5.7303,-5.5867,-5.6615,-5.7872,-5.859,0.0,0.0,0.0,-6.2181,0.0,0.0,0.0,0.0,0.0,0.0,0.0,0.0,0.0,0.0,0.0,0.0,0.0,0.0,0.0,0.0,0.0,0.0,0.0,0.0,-6.7319,-6.6721,-6.5164,-6.4062,-6.2762,-6.1146,-6.0439,-5.9905,-5.9599,-5.9105,-5.9145,-5.9668,-5.9279,-5.9099,-5.9099,-5.9099,-5.9099,-5.9099,-5.9099,-5.9099,-5.9099,-5.9099,-5.9099,-5.9099,-5.9099,-5.9099,-5.9099,-5.9099,-5.9099,-5.9099,-5.9099,-5.9099,-5.9099,-5.9099,-5.9727,-6.0446,-6.0176,-6.1044,-6.2032,-6.1762,-6.1972,-6.2181,-6.1792,-6.1882,-6.2091,-6.2091,-6.1882,-6.1882,-6.254,-6.2211,-6.2002,-6.254,-6.245,-6.2271,-6.2271,-6.1403,-6.0775,-6.1074,-6.0096,-5.9478,-5.99,-5.9355,-5.8496,-5.7411,-5.7819,-5.8021,-5.7642,-5.7416,-5.7303,-5.7303,-5.7303,-5.7303,-5.7303,-5.7303,-5.7303,-5.7303,-5.7303,-5.7303,-5.7303,-5.7303,-5.7303,-5.7303,-5.7303,-5.7303,-5.6795,-5.6885,-5.7872,-6.0206,-5.9488,0.0,-6.0954,-6.1104,-6.1164,0.0,0.0,0.0,0.0,0.0,0.0,0.0,0.0,0.0,0.0,0.0,0.0,0.0,0.0,0.0,0.0,0.0,0.0,-6.6698,-6.6213,-6.5164,-6.3207,-6.2731,-6.1821,-6.0229,-6.0395,-5.9912,-5.8694,-5.8936,-5.9099,-5.9099,-5.9099,-5.9099,-5.9099,-5.9099,-5.9099,-5.9099,-5.9099,-5.9099,-5.9099,-5.9099,-5.9099,-5.9099,-5.9099,-5.9099,-5.9099,-5.9099,-5.9099,-5.9099,-5.9099,-5.9099,-5.9099,-5.9099,-5.9967,-6.0894,-6.0266,-6.0984,-6.1852,-6.1283,-6.1104,-6.1104,-6.1014,-6.1433,-6.1882,-6.1882,-6.1433,-6.1194,-6.1852,-6.1044,-6.0535,-6.1642,-6.1463,-6.1104,-6.1104,-6.0535,-6.0241,-6.0839,-6.0138,-5.9844,-6.0685,-5.907,-5.7666,-5.7324,-5.7328,-5.7303,-5.7303,-5.7303,-5.7303,-5.7303,-5.7303,-5.7303,-5.7303,-5.7303,-5.7303,-5.7303,-5.7303,-5.7303,-5.7303,-5.7303,-5.7303,-5.7303,-5.7303,-5.7303,-5.8471,-5.862,-5.871,-5.871,-5.883,0.0,-5.7573,-5.8052,-5.9069,0.0,0.0,0.0,0.0,0.0,0.0,0.0,0.0,0.0,0.0,0.0,0.0,0.0,0.0,0.0,0.0,0.0,-6.6427,-6.4038,-6.3297,-6.3001,-6.3059,-6.2263,-6.1287,-6.02,-5.9951,-5.9466,-5.8694,-5.8936,-5.9099,-5.9099,-5.9099,-5.9099,-5.9099,-5.9099,-5.9099,-5.9099,-5.9099,-5.9099,-5.9099,-5.9099,-5.9099,-5.9099,-5.9099,-5.9099,-5.9099,-5.9099,-5.9099,-5.9099,-5.9099,-5.9099,-5.9099,-5.9099,-5.9638,-6.0266,-6.0116,-6.0655,-6.1283,-6.1164,-6.1104,-6.0984,-6.0446,-6.0386,-6.0475,-6.0475,-6.0386,-6.0475,-6.1164,-6.1104,-6.0835,-6.0535,-6.0835,-6.1104,-6.1104,-6.0369,-5.9815,-5.9934,-5.9122,-5.8545,-5.8726,-5.8209,-5.764,-5.733,-5.7274,-5.7303,-5.7303,-5.7303,-5.7303,-5.7303,-5.7303,-5.7303,-5.7303,-5.7303,-5.7303,-5.7303,-5.7303,-5.7303,-5.7303,-5.7303,-5.7303,-5.7303,-5.7303,-5.7303,-5.889,-5.886,-5.9189,-5.9518,-5.886,0.0,0.0,-5.7124,0.0,0.0,0.0,0.0,0.0,0.0,0.0,0.0,0.0,0.0,0.0,0.0,0.0,0.0,0.0,0.0,0.0,0.0,-6.5112,-6.3476,-6.3032,-6.2913,-6.309,-6.2466,-6.1664,-6.0684,-6.044,-5.9896,-5.8912,-5.9045,-5.9099,-5.9099,-5.9099,-5.9099,-5.9099,-5.9099,-5.9099,-5.9099,-5.9099,-5.9099,-5.9129,-5.9458,-5.9398,-5.9099,-5.9099,-5.9099,-5.9099,-5.9099,-5.9099,-5.9099,-5.9099,-5.9099,-5.9099,-5.9099,-5.9548,-6.0027,-5.9697,-5.9847,-6.0116,-6.0116,-6.0116,-6.0027,-5.9697,-5.9847,-6.0086,-6.0086,-6.0086,-6.0176,-6.0535,-6.0356,-5.9997,-5.9668,-5.9877,-6.0061,-5.9951,-5.9517,-5.9224,-5.9224,-5.8652,-5.8169,-5.8059,-5.7892,-5.7669,-5.736,-5.7303,-5.7303,-5.7303,-5.7303,-5.7303,-5.7303,-5.7303,-5.7303,-5.7303,-5.7303,-5.7303,-5.7303,-5.7303,-5.7303,-5.7303,-5.7303,-5.7303,-5.7303,-5.7303,-5.7303,-5.9997,-5.9847,0.0,0.0,0.0,-5.8411,0.0,0.0,0.0,0.0,0.0,0.0,0.0,0.0,0.0,0.0,0.0,0.0,0.0,0.0,0.0,0.0,0.0,0.0,0.0,0.0,-6.3624,-6.3357,-6.2972,-6.2821,-6.2905,-6.2432,-6.1806,-6.1134,-6.0864,-6.0146,-5.8919,-5.8919,-5.886,-5.871,-5.871,-5.871,-5.871,-5.871,-5.871,-5.871,-5.871,-5.871,-5.877,-5.9279,-5.9189,-5.874,-5.9129,-5.9219,-5.9099,-5.9099,-5.9099,-5.9099,-5.9099,-5.9099,-5.9099,-5.9099,-5.9458,-5.9787,-5.9249,-5.9099,-5.9099,-5.9099,-5.9099,-5.9099,-5.9099,-5.9488,-5.9907,-5.9907,-5.9907,-5.9907,-5.9907,-5.9488,-5.9099,-5.9099,-5.9099,-5.9045,-5.8773,-5.8748,-5.8694,-5.8609,-5.8335,-5.8085,-5.7915,-5.7807,-5.7613,-5.7303,-5.7303,-5.7303,-5.7303,-5.7303,-5.7303,-5.7303,-5.7303,-5.7303,-5.7303,-5.7303,-5.7303,-5.7303,-5.7303,-5.7303,-5.7303,-5.7303,-5.7303,-5.7303,-5.7303,-5.7303,0.0,0.0,0.0,0.0,-6.1762,0.0,0.0,0.0,-5.8022,0.0,0.0,0.0,0.0,0.0,0.0,0.0,0.0,0.0,0.0,0.0,0.0,0.0,0.0,0.0,0.0,0.0,0.0,-6.2204,-6.067,-6.0461,-6.2145,-6.1035,-6.057,-6.1104,-5.9967,-5.8979,-5.8231,-5.8231,-5.7932,-5.7334,-5.7334,-5.7334,-5.7334,-5.7334,-5.7334,-5.7334,-5.7334,-5.7334,-5.7334,-5.7393,-5.7393,-5.7483,-5.9279,-5.9608,-5.9099,-5.9099,-5.9099,-5.9099,-5.9099,-5.9099,-5.9099,-5.9099,-5.9159,-5.9189,-5.9129,-5.9099,-5.9099,-5.9099,-5.9099,-5.9099,-5.9099,-5.9159,-5.9219,-5.9219,-5.9219,-5.9219,-5.9219,-5.9159,-5.9099,-5.9099,-5.9099,-5.9099,-5.9045,-5.8828,-5.8609,-5.8335,-5.8003,-5.7839,-5.7903,-5.7588,-5.736,-5.7303,-5.7303,-5.7303,-5.7303,-5.7303,-5.7303,-5.7303,-5.7303,-5.7303,-5.7303,-5.7303,-5.7303,-5.7303,-5.7303,-5.7303,-5.7303,-5.7303,-5.7303,-5.7303,-5.7303,-5.7303,0.0,0.0,0.0,0.0,0.0,0.0,-5.7962,0.0,-5.6376,0.0,0.0,0.0,0.0,0.0,0.0,0.0,0.0,0.0,0.0,0.0,0.0,0.0,0.0,0.0,0.0,0.0,0.0,0.0,0.0,-5.9889,-6.0889,-6.0011,-5.9638,-5.9937,-5.9039,-5.8201,-5.7543,-5.7513,-5.7393,-5.7094,-5.7094,-5.7094,-5.7094,-5.7094,-5.7094,-5.7094,-5.7094,-5.7094,-5.7124,-5.7513,-5.7453,-5.7214,-5.8471,-5.877,-5.859,-5.8979,-5.9099,-5.9099,-5.9099,-5.9099,-5.9099,-5.9099,-5.9099,-5.9099,-5.9099,-5.9099,-5.9099,-5.9099,-5.9099,-5.9099,-5.9099,-5.9099,-5.9099,-5.9099,-5.9099,-5.9099,-5.9099,-5.9099,-5.9099,-5.9099,-5.9099,-5.9045,-5.8882,-5.8609,-5.839,-5.8195,-5.8003,-5.781,-5.7842,-5.7698,-5.7528,-5.7303,-5.7303,-5.7303,-5.7303,-5.7303,-5.7303,-5.7303,-5.7303,-5.7303,-5.7303,-5.7303,-5.7303,-5.7303,-5.7303,-5.7303,-5.7303,-5.7303,-5.7303,-5.7303,-5.7303,-5.7303,-6.2181,0.0,0.0,0.0,0.0,0.0,0.0,0.0,0.0,0.0,0.0,0.0,0.0,0.0,-5.5628,-5.7603,0.0,0.0,0.0,0.0,0.0,0.0,0.0,0.0,0.0,0.0,0.0,0.0,-5.8817,0.0,-5.917,-5.8776,-5.856,-5.856,-5.8082,-5.7513,-5.6855,-5.6825,-5.6765,-5.6585,-5.6585,-5.6585,-5.6585,-5.6585,-5.6585,-5.6585,-5.6585,-5.6585,-5.6615,-5.7094,-5.7034,-5.6645,-5.7334,-5.7573,-5.7693,-5.853,-5.883,-5.886,-5.9039,-5.9099,-5.9099,-5.9099,-5.9099,-5.9099,-5.9099,-5.9099,-5.9099,-5.9099,-5.9099,-5.9099,-5.9099,-5.9099,-5.9099,-5.9099,-5.9099,-5.9099,-5.9099,-5.9099,-5.9099,-5.9099,-5.9045,-5.8936,-5.8748,-5.85,-5.828,-5.8114,-5.7948,-5.7781,-5.7669,-5.7669,-5.7557,-5.7303,-5.7303,-5.7303,-5.7303,-5.7303,-5.7303,-5.7303,-5.7303,-5.7303,-5.7303,-5.7303,-5.7303,-5.7303,-5.7303,-5.7303,-5.7303,-5.7303,-5.7303,-5.7303,-5.7303,-5.7303,0.0,0.0,0.0,-5.9338,0.0,0.0,0.0,0.0,-5.7842,0.0,0.0,0.0,0.0,-5.8351,-5.7663,-5.9668,-5.8949,0.0,0.0,0.0,0.0,0.0,0.0,0.0,0.0,0.0,0.0,0.0,-5.77,0.0,-5.6822,-5.7027,-5.7154,-5.7154,-5.7124,-5.6825,-5.6248,-5.6248,-5.5897,-5.5239,-5.5239,-5.5239,-5.5239,-5.5239,-5.5239,-5.5239,-5.5239,-5.5239,-5.5239,-5.5269,-5.5269,-5.5329,-5.5987,-5.6278,-5.6376,-5.7693,-5.8141,-5.8231,-5.889,-5.9099,-5.9099,-5.9099,-5.9099,-5.9099,-5.9099,-5.9099,-5.9099,-5.9099,-5.9099,-5.9099,-5.9099,-5.9099,-5.9099,-5.9099,-5.9099,-5.9099,-5.9099,-5.9099,-5.9099,-5.9099,-5.8882,-5.8694,-5.8694,-5.8694,-5.8529,-5.7892,-5.7781,-5.7669,-5.736,-5.7303,-5.7303,-5.7303,-5.7303,-5.7303,-5.7303,-5.7303,-5.7303,-5.7303,-5.7303,-5.7303,-5.7303,-5.7303,-5.7303,-5.7303,-5.7303,-5.7303,-5.7303,-5.7303,-5.7303,-5.7303,-5.7303,-5.7303,0.0,0.0,-6.4784,-6.1044,0.0,0.0,0.0,0.0,0.0,0.0,0.0,0.0,0.0,-5.853,-5.7992,-5.868,-5.8411,-5.7812,0.0,0.0,0.0,0.0,0.0,0.0,0.0,0.0,0.0,-5.6337,-5.5293,-5.4824,0.0,-5.5158,-5.5388,-5.5807,-5.5837,-5.5718,-5.5538,-5.5538,-5.5418,-5.5179,-5.5179,-5.5179,-5.5179,-5.5179,-5.5179,-5.5179,-5.5179,-5.5179,-5.5179,-5.5179,-5.5179,-5.5209,-5.5448,-5.5538,-5.5688,-5.6974,-5.7723,-5.8231,-5.889,-5.883,-5.853,-5.8949,-5.8716,-5.8334,-5.8949,-5.9099,-5.9099,-5.9099,-5.9099,-5.9099,-5.9099,-5.877,-5.856,-5.9009,-5.877,-5.859,-5.9009,-5.9099,-5.9045,-5.8882,-5.8719,-5.8555,-5.8169,-5.8114,-5.8059,-5.7836,-5.7613,-5.7416,-5.7303,-5.7303,-5.7303,-5.7303,-5.7303,-5.7303,-5.7303,-5.7303,-5.7303,-5.7303,-5.7303,-5.7303,-5.7303,-5.7303,-5.7303,-5.7303,-5.7303,-5.7303,-5.7303,-5.7303,-5.7303,-5.7303,-5.7303,-5.7303,-6.3857,-6.4635,0.0,-6.1882,-6.0954,0.0,-5.6944,0.0,0.0,0.0,0.0,0.0,0.0,-5.9787,-5.9189,-5.9189,-5.88,-5.7633,0.0,-5.3416,0.0,0.0,0.0,0.0,0.0,0.0,-5.6409,-5.4188,-5.3624,-5.3208,0.0,0.0,-5.3803,-5.4461,-5.47,-5.497,-5.5179,-5.5179,-5.5179,-5.5179,-5.5179,-5.5179,-5.5179,-5.5179,-5.5179,-5.5179,-5.5179,-5.5179,-5.5179,-5.5179,-5.5179,-5.5179,-5.5179,-5.5179,-5.5329,-5.6376,-5.7184,-5.7872,-5.8787,-5.8607,-5.8015,-5.8291,-5.8321,-5.8374,-5.8907,-5.9093,-5.9099,-5.9099,-5.9099,-5.9099,-5.9099,-5.88,-5.859,-5.9009,-5.877,-5.859,-5.9009,-5.9099,-5.9045,-5.8882,-5.8803,-5.8529,-5.8059,-5.7892,-5.7781,-5.7669,-5.7416,-5.7303,-5.7303,-5.7303,-5.7303,-5.7303,-5.7303,-5.7303,-5.7303,-5.7303,-5.7303,-5.7303,-5.7303,-5.7303,-5.7303,-5.7303,-5.7623,-5.8319,-5.7652,-5.7652,-5.8319,-5.7652,-5.7303,-5.7303,-5.7303,-5.7303]},{"header":{"parameterUnit":"m.s-1","parameterCategory":1,"la1":30.6,"la2":29.2853,"lo1":-89.7004,"lo2":-87.6739,"dy":0.0162,"dx":0.0183,"nx":112,"ny":82,"refTime":"2023-06-12T06:00:00:Z","depth":0,"parameterNumber":3,"parameterNumberName":"V-component_of_WINDS"},"data":[0.0,0.0,0.0,0.0,0.0,0.0,0.0,0.0,0.0,0.0,0.0,0.0,0.0,0.0,0.0,0.0,0.0,0.0,0.0,0.0,0.0,0.0,0.0,0.0,0.0,0.0,0.0,0.0,0.0,0.0,0.0,0.0,0.0,0.0,0.0,0.0,0.0,0.0,0.0,0.0,0.0,0.0,0.0,0.0,0.0,0.0,0.0,0.0,0.0,0.0,0.0,0.0,0.0,0.0,0.0,0.0,0.0,0.0,0.0,0.0,0.0,0.0,0.0,0.0,0.0,0.0,0.0,0.0,0.0,0.0,0.0,0.0,0.0,0.0,0.0,0.0,0.0,0.0,0.0,0.0,0.0,0.0,0.0,0.0,0.0,0.0,0.0,0.0,0.0,0.0,-5.0017,-5.3206,-5.77,-6.0638,-6.114,-6.0663,-5.8027,-5.2678,0.0,0.0,0.0,0.0,0.0,0.0,0.0,0.0,0.0,0.0,0.0,0.0,0.0,0.0,0.0,0.0,0.0,0.0,0.0,0.0,0.0,0.0,0.0,0.0,0.0,0.0,0.0,0.0,0.0,0.0,0.0,0.0,0.0,0.0,0.0,0.0,0.0,0.0,0.0,0.0,0.0,0.0,0.0,0.0,0.0,0.0,0.0,0.0,0.0,0.0,0.0,0.0,0.0,0.0,0.0,0.0,0.0,0.0,0.0,0.0,0.0,0.0,0.0,0.0,0.0,0.0,0.0,0.0,0.0,0.0,0.0,0.0,0.0,0.0,0.0,0.0,0.0,0.0,0.0,0.0,0.0,0.0,0.0,0.0,0.0,0.0,0.0,0.0,0.0,0.0,0.0,0.0,0.0,0.0,0.0,0.0,0.0,0.0,0.0,0.0,0.0,0.0,0.0,0.0,-5.0745,-5.5867,-5.9207,-6.109,-6.1165,-6.0663,-5.8353,-5.3758,0.0,0.0,0.0,0.0,0.0,0.0,0.0,0.0,0.0,0.0,0.0,0.0,0.0,0.0,0.0,0.0,0.0,0.0,0.0,0.0,0.0,0.0,0.0,0.0,0.0,0.0,0.0,0.0,0.0,0.0,0.0,0.0,0.0,0.0,0.0,0.0,0.0,0.0,0.0,0.0,0.0,0.0,0.0,0.0,0.0,0.0,0.0,0.0,0.0,0.0,0.0,0.0,0.0,0.0,0.0,0.0,0.0,0.0,0.0,0.0,0.0,0.0,0.0,0.0,0.0,0.0,0.0,0.0,0.0,0.0,0.0,0.0,0.0,0.0,0.0,0.0,0.0,0.0,0.0,0.0,0.0,0.0,0.0,0.0,0.0,0.0,0.0,0.0,0.0,0.0,0.0,0.0,0.0,0.0,0.0,0.0,0.0,0.0,0.0,0.0,0.0,0.0,0.0,-4.9916,-5.2578,-5.7801,-5.9508,-6.0512,-6.114,-6.0111,-5.77,-5.3532,-5.1724,0.0,0.0,0.0,0.0,0.0,0.0,0.0,0.0,0.0,0.0,0.0,0.0,0.0,0.0,0.0,0.0,0.0,0.0,0.0,0.0,0.0,0.0,0.0,0.0,0.0,0.0,0.0,0.0,0.0,0.0,0.0,0.0,0.0,0.0,0.0,0.0,0.0,0.0,0.0,0.0,0.0,0.0,0.0,0.0,0.0,0.0,0.0,0.0,0.0,0.0,0.0,0.0,0.0,0.0,0.0,0.0,0.0,0.0,0.0,0.0,0.0,0.0,0.0,0.0,0.0,0.0,0.0,0.0,0.0,0.0,0.0,0.0,0.0,0.0,0.0,0.0,0.0,0.0,0.0,0.0,0.0,0.0,0.0,0.0,0.0,0.0,0.0,0.0,0.0,0.0,0.0,0.0,0.0,0.0,0.0,0.0,0.0,0.0,0.0,0.0,0.0,0.0,-5.195,-5.4336,-5.8654,-5.9332,-5.9834,-6.0713,-5.9282,-5.6771,-5.3155,-5.1222,0.0,0.0,0.0,0.0,0.0,0.0,0.0,0.0,0.0,0.0,0.0,0.0,0.0,0.0,0.0,0.0,0.0,0.0,0.0,0.0,0.0,0.0,0.0,0.0,0.0,0.0,0.0,0.0,0.0,0.0,0.0,0.0,0.0,0.0,0.0,0.0,0.0,0.0,0.0,0.0,0.0,0.0,0.0,0.0,0.0,0.0,0.0,0.0,0.0,0.0,0.0,0.0,0.0,0.0,0.0,0.0,0.0,0.0,0.0,0.0,0.0,0.0,0.0,0.0,0.0,0.0,0.0,0.0,0.0,0.0,0.0,0.0,0.0,0.0,0.0,0.0,0.0,0.0,0.0,0.0,0.0,0.0,0.0,0.0,0.0,0.0,0.0,0.0,0.0,0.0,0.0,0.0,0.0,0.0,0.0,0.0,0.0,0.0,0.0,0.0,0.0,0.0,-5.2452,-5.5315,-5.775,-5.8905,-5.9533,-5.9608,-5.8102,-5.5942,-5.3105,-5.087,0.0,0.0,0.0,0.0,0.0,0.0,0.0,0.0,0.0,0.0,0.0,0.0,0.0,0.0,0.0,0.0,0.0,0.0,0.0,0.0,0.0,0.0,0.0,0.0,0.0,0.0,0.0,0.0,0.0,0.0,0.0,0.0,0.0,0.0,0.0,0.0,0.0,0.0,0.0,0.0,0.0,0.0,0.0,0.0,0.0,0.0,0.0,0.0,0.0,0.0,0.0,0.0,0.0,0.0,0.0,0.0,0.0,0.0,0.0,0.0,0.0,0.0,0.0,0.0,0.0,0.0,0.0,0.0,0.0,0.0,0.0,0.0,0.0,0.0,0.0,0.0,0.0,0.0,0.0,0.0,0.0,0.0,0.0,0.0,0.0,0.0,0.0,0.0,0.0,0.0,0.0,0.0,0.0,0.0,0.0,0.0,0.0,0.0,0.0,0.0,0.0,0.0,-5.2126,-5.4913,0.0,-5.9257,-5.9633,-5.9985,-5.8504,-5.6244,-5.313,0.0,0.0,0.0,0.0,0.0,0.0,0.0,0.0,0.0,0.0,0.0,0.0,0.0,0.0,0.0,0.0,0.0,0.0,0.0,0.0,0.0,0.0,0.0,0.0,0.0,0.0,0.0,0.0,0.0,0.0,0.0,0.0,0.0,0.0,0.0,0.0,0.0,0.0,0.0,0.0,0.0,0.0,0.0,0.0,0.0,0.0,0.0,0.0,0.0,0.0,0.0,0.0,0.0,0.0,0.0,0.0,0.0,0.0,0.0,0.0,0.0,0.0,0.0,0.0,0.0,0.0,0.0,0.0,0.0,0.0,0.0,0.0,0.0,0.0,0.0,0.0,0.0,0.0,0.0,0.0,0.0,0.0,0.0,0.0,0.0,0.0,0.0,0.0,0.0,0.0,0.0,0.0,0.0,0.0,0.0,0.0,0.0,0.0,0.0,0.0,0.0,0.0,-5.0042,-5.2201,-5.4863,0.0,-5.9282,-5.9659,-6.001,-5.8077,-5.5641,-5.2829,0.0,0.0,0.0,0.0,0.0,0.0,0.0,0.0,0.0,0.0,0.0,0.0,0.0,0.0,0.0,0.0,0.0,0.0,0.0,0.0,0.0,0.0,0.0,0.0,0.0,0.0,0.0,0.0,0.0,0.0,0.0,0.0,0.0,0.0,0.0,0.0,0.0,0.0,0.0,0.0,0.0,0.0,0.0,0.0,0.0,0.0,0.0,0.0,0.0,0.0,0.0,0.0,0.0,0.0,0.0,0.0,0.0,0.0,0.0,0.0,0.0,0.0,0.0,0.0,0.0,0.0,0.0,0.0,0.0,0.0,0.0,0.0,0.0,0.0,0.0,0.0,0.0,0.0,0.0,0.0,0.0,0.0,0.0,0.0,0.0,0.0,0.0,0.0,0.0,0.0,0.0,0.0,0.0,0.0,0.0,0.0,0.0,0.0,0.0,0.0,0.0,0.0,-5.0142,-5.2854,-5.5415,-5.765,-5.8855,-5.9483,-5.9483,-5.647,-5.3884,0.0,0.0,0.0,0.0,0.0,0.0,0.0,0.0,0.0,0.0,0.0,0.0,0.0,0.0,0.0,0.0,0.0,0.0,0.0,0.0,0.0,0.0,0.0,0.0,0.0,0.0,0.0,0.0,0.0,0.0,0.0,0.0,0.0,0.0,0.0,0.0,0.0,0.0,0.0,0.0,0.0,0.0,0.0,0.0,0.0,0.0,0.0,0.0,0.0,0.0,0.0,0.0,0.0,0.0,0.0,0.0,0.0,0.0,0.0,0.0,0.0,0.0,0.0,0.0,0.0,0.0,0.0,0.0,0.0,0.0,0.0,0.0,0.0,0.0,0.0,0.0,0.0,0.0,0.0,0.0,0.0,0.0,0.0,0.0,0.0,0.0,0.0,0.0,0.0,0.0,0.0,0.0,0.0,0.0,0.0,0.0,0.0,0.0,0.0,0.0,0.0,0.0,0.0,-5.0193,-5.2854,-5.5415,-5.765,-5.8855,-5.9483,-5.9483,-5.7173,-5.4863,-5.2804,0.0,0.0,0.0,0.0,0.0,0.0,0.0,0.0,0.0,0.0,0.0,0.0,0.0,0.0,0.0,0.0,0.0,0.0,0.0,0.0,0.0,0.0,0.0,0.0,0.0,0.0,0.0,0.0,0.0,0.0,0.0,0.0,0.0,0.0,0.0,0.0,0.0,0.0,0.0,0.0,0.0,0.0,0.0,0.0,0.0,0.0,0.0,0.0,0.0,0.0,0.0,0.0,0.0,0.0,0.0,0.0,0.0,0.0,0.0,0.0,0.0,0.0,0.0,0.0,0.0,0.0,0.0,0.0,0.0,0.0,0.0,0.0,0.0,0.0,0.0,0.0,0.0,0.0,0.0,0.0,0.0,0.0,0.0,0.0,0.0,0.0,0.0,0.0,0.0,0.0,0.0,0.0,0.0,0.0,0.0,0.0,0.0,0.0,0.0,0.0,0.0,0.0,-5.0519,-5.298,-5.5415,-5.765,-5.8855,-5.9408,-5.9207,-5.7349,-5.5089,-5.2427,0.0,0.0,0.0,0.0,0.0,0.0,0.0,0.0,0.0,0.0,0.0,0.0,0.0,0.0,0.0,0.0,0.0,0.0,0.0,0.0,0.0,0.0,0.0,0.0,0.0,0.0,0.0,0.0,0.0,0.0,0.0,0.0,0.0,0.0,0.0,0.0,0.0,0.0,0.0,0.0,0.0,0.0,0.0,0.0,0.0,0.0,0.0,0.0,0.0,0.0,0.0,0.0,0.0,0.0,0.0,0.0,0.0,0.0,0.0,0.0,0.0,0.0,0.0,0.0,0.0,0.0,0.0,0.0,0.0,0.0,0.0,0.0,0.0,0.0,0.0,0.0,0.0,0.0,0.0,0.0,0.0,0.0,0.0,0.0,0.0,0.0,0.0,0.0,0.0,0.0,0.0,0.0,0.0,0.0,0.0,0.0,0.0,0.0,0.0,0.0,0.0,0.0,-5.0996,-5.3155,-5.534,-5.7575,-5.873,-5.9156,-5.8679,-5.7097,-5.4762,-5.1548,0.0,0.0,0.0,0.0,0.0,0.0,0.0,0.0,0.0,0.0,0.0,0.0,0.0,0.0,0.0,0.0,0.0,0.0,0.0,0.0,0.0,0.0,0.0,0.0,0.0,0.0,0.0,0.0,0.0,0.0,0.0,0.0,0.0,0.0,0.0,0.0,0.0,0.0,0.0,0.0,0.0,0.0,0.0,0.0,0.0,0.0,0.0,0.0,0.0,0.0,0.0,0.0,0.0,0.0,0.0,0.0,0.0,0.0,0.0,0.0,-4.2094,0.0,0.0,0.0,0.0,0.0,0.0,0.0,0.0,0.0,0.0,0.0,0.0,0.0,0.0,0.0,0.0,0.0,0.0,0.0,0.0,0.0,0.0,0.0,0.0,0.0,0.0,0.0,0.0,0.0,0.0,0.0,0.0,0.0,0.0,0.0,0.0,0.0,0.0,0.0,0.0,0.0,-5.0996,-5.2804,-5.4737,-5.6972,-5.7826,-5.8202,-5.8077,-5.652,-5.4536,-5.2076,-4.9389,0.0,0.0,0.0,0.0,0.0,0.0,0.0,0.0,0.0,0.0,0.0,0.0,0.0,0.0,0.0,0.0,0.0,0.0,0.0,0.0,0.0,0.0,0.0,0.0,0.0,0.0,0.0,0.0,0.0,0.0,0.0,0.0,0.0,0.0,0.0,0.0,0.0,0.0,0.0,0.0,0.0,0.0,0.0,0.0,0.0,0.0,0.0,0.0,0.0,0.0,0.0,0.0,0.0,0.0,0.0,0.0,0.0,0.0,0.0,0.0,-4.3097,0.0,0.0,0.0,0.0,0.0,0.0,0.0,0.0,0.0,0.0,0.0,0.0,0.0,0.0,0.0,0.0,0.0,0.0,0.0,0.0,0.0,0.0,0.0,0.0,0.0,0.0,0.0,0.0,0.0,0.0,0.0,0.0,0.0,0.0,0.0,0.0,0.0,0.0,0.0,0.0,-5.0996,-5.2703,-5.4561,-5.6796,-5.7549,-5.7775,-5.7499,-5.6445,-5.4838,-5.2628,-5.0117,0.0,0.0,0.0,0.0,0.0,0.0,0.0,0.0,0.0,0.0,0.0,0.0,0.0,0.0,0.0,0.0,0.0,0.0,0.0,0.0,0.0,0.0,0.0,0.0,0.0,0.0,0.0,0.0,0.0,0.0,0.0,0.0,0.0,0.0,0.0,0.0,0.0,0.0,0.0,0.0,0.0,0.0,0.0,0.0,0.0,0.0,0.0,0.0,0.0,0.0,0.0,0.0,0.0,-4.3319,-4.5178,-4.9412,-4.5328,-4.6416,-5.1314,-4.6854,-4.5932,-4.7436,0.0,0.0,0.0,0.0,0.0,0.0,0.0,0.0,0.0,0.0,0.0,0.0,0.0,0.0,0.0,0.0,0.0,0.0,0.0,0.0,0.0,0.0,0.0,0.0,0.0,-5.1423,-5.1197,0.0,0.0,0.0,0.0,0.0,0.0,0.0,0.0,0.0,0.0,0.0,0.0,-5.0996,-5.2628,-5.4411,-5.6646,-5.7323,-5.7424,-5.6922,-5.6394,-5.5164,-5.3055,-5.1021,-4.9113,0.0,0.0,0.0,0.0,0.0,0.0,0.0,0.0,0.0,0.0,0.0,0.0,0.0,0.0,0.0,0.0,0.0,0.0,0.0,0.0,0.0,0.0,0.0,0.0,0.0,0.0,0.0,0.0,0.0,0.0,0.0,0.0,-4.2509,-4.2162,0.0,0.0,0.0,0.0,0.0,0.0,0.0,0.0,0.0,0.0,0.0,0.0,0.0,-4.2412,-4.1992,-4.5517,-4.6332,-4.4458,-4.5958,-4.7855,-5.0065,-4.8399,-5.0262,-5.4687,-5.3112,0.0,-5.0158,-4.9236,0.0,0.0,0.0,0.0,0.0,0.0,0.0,0.0,0.0,0.0,0.0,0.0,0.0,0.0,0.0,0.0,0.0,0.0,0.0,0.0,0.0,0.0,-5.19,-5.1975,-5.2,-5.2076,0.0,-5.1398,-5.0117,-4.9088,-4.8887,0.0,0.0,0.0,0.0,0.0,0.0,0.0,-5.0996,-5.2302,-5.3884,-5.6093,-5.6394,-5.6394,-5.6319,-5.5817,-5.4762,-5.303,-5.1749,-5.0092,-4.7908,-4.6627,0.0,0.0,0.0,0.0,0.0,0.0,0.0,0.0,0.0,0.0,0.0,0.0,0.0,0.0,0.0,0.0,0.0,0.0,0.0,0.0,0.0,0.0,0.0,0.0,0.0,0.0,0.0,0.0,0.0,-4.2409,-4.3181,-4.2463,-4.3763,-4.3664,0.0,0.0,0.0,0.0,0.0,0.0,0.0,0.0,0.0,-4.3808,-4.6268,-4.6322,-4.3516,-4.7806,-4.9829,-4.9468,-4.9749,-5.224,-5.659,-5.373,-5.4552,-5.7998,-5.6221,-5.5114,-5.454,-5.2459,-5.0877,-4.966,0.0,0.0,0.0,0.0,-5.1147,-5.1498,-5.2427,-5.2754,0.0,-5.2955,0.0,0.0,0.0,0.0,0.0,0.0,0.0,0.0,0.0,0.0,0.0,-5.426,-5.4411,-5.4386,-5.4336,-5.3482,-5.2327,0.0,-4.9891,-4.9088,-4.8611,0.0,0.0,0.0,0.0,-4.9565,-5.1498,-5.2703,-5.4084,-5.6018,-5.6219,-5.6219,-5.6219,-5.5993,-5.529,-5.3934,-5.2804,-5.1473,-4.9866,-4.7857,-4.6491,0.0,0.0,0.0,0.0,0.0,0.0,0.0,0.0,0.0,0.0,0.0,0.0,0.0,0.0,0.0,0.0,0.0,0.0,0.0,0.0,0.0,0.0,0.0,0.0,0.0,0.0,0.0,0.0,-4.3664,-4.4602,-4.3258,-4.5473,-4.5573,0.0,0.0,0.0,0.0,0.0,0.0,-4.6346,-4.6588,-4.6974,-4.7633,-5.0568,-5.0561,-4.7273,-5.1079,-5.3395,-5.4105,-5.3302,-5.5799,-6.0956,-5.7977,-5.8029,-6.0471,-5.8606,-5.8129,-5.8304,-5.5343,-5.3489,-5.2355,-5.1801,-5.0971,-5.0299,-5.2111,-5.2829,-5.3105,-5.4336,-5.4787,-5.4737,-5.4436,0.0,-5.2553,-5.1548,0.0,0.0,0.0,0.0,-5.2678,-5.3381,-5.426,-5.5239,-5.6194,-5.642,-5.6344,-5.6093,-5.5265,-5.4084,0.0,-5.1096,-5.0092,-4.9665,0.0,0.0,0.0,0.0,-5.0268,-5.2076,-5.313,-5.4336,-5.6043,-5.6219,-5.6219,-5.6219,-5.6068,-5.5591,-5.4637,-5.3658,-5.2628,-5.1548,-4.9238,-4.772,-4.733,0.0,0.0,0.0,0.0,0.0,0.0,0.0,0.0,0.0,0.0,0.0,0.0,0.0,0.0,0.0,0.0,0.0,0.0,0.0,0.0,0.0,0.0,0.0,0.0,0.0,0.0,0.0,0.0,0.0,-4.5181,-4.8367,0.0,0.0,0.0,0.0,-4.4232,-4.5534,-4.7589,-5.0532,-4.976,-5.0893,-5.4491,-5.5017,-5.5121,-5.4914,-5.6404,-5.6807,-5.5922,-5.5875,-5.7,-5.907,-5.9263,-6.0193,-6.1686,-6.1048,-6.0725,-6.0501,-5.8167,-5.6854,-5.6219,-5.5455,-5.5143,-5.5017,-5.4612,-5.4787,-5.5239,-5.5315,-5.534,-5.544,-5.5917,-5.534,-5.4336,-5.3733,-5.3181,0.0,0.0,-5.3582,-5.3884,-5.4988,-5.5691,-5.6269,-5.6846,-5.6997,-5.7123,-5.765,-5.6093,-5.4084,0.0,-5.2026,-5.1473,-4.9866,0.0,-4.9339,-4.8812,-4.9213,-5.0393,-5.2603,-5.3356,-5.4336,-5.6043,-5.6219,-5.6219,-5.6219,-5.5742,-5.5189,-5.4683,-5.4009,-5.3181,-5.2101,-5.0896,-4.9515,-4.7908,-4.625,0.0,0.0,0.0,0.0,0.0,0.0,0.0,0.0,0.0,0.0,0.0,0.0,0.0,0.0,0.0,0.0,0.0,0.0,0.0,0.0,0.0,0.0,0.0,0.0,0.0,0.0,0.0,0.0,-4.8401,-5.1423,0.0,-4.9052,-4.9843,-5.0433,-4.9902,-5.1657,-5.3505,-5.5304,-5.5678,-5.6172,-5.705,-5.8334,-5.797,-5.5881,-5.6574,-5.7447,-5.8435,-5.739,-5.8638,-6.1776,-6.1877,-6.2129,-6.2263,-6.171,-6.105,-6.041,-5.978,-5.8684,-5.749,-5.7525,-5.6646,-5.544,-5.5968,-5.6269,-5.6545,-5.7273,-5.7524,-5.7349,-5.6495,-5.5691,-5.4988,-5.4436,-5.4386,-5.4561,-5.4737,-5.529,-5.6018,-5.6796,-5.7424,-5.7951,-5.8504,-5.8629,-5.8579,-5.8453,-5.7801,-5.6746,-5.5064,-5.3607,-5.2452,-5.185,-5.1448,-5.1147,-5.0946,-5.1373,-5.2277,-5.3783,-5.4461,-5.5164,-5.6118,-5.6219,-5.6219,-5.6219,-5.5717,-5.5139,-5.4587,-5.4009,-5.3231,-5.2151,-5.067,-4.9439,-4.8485,-4.6502,-4.5095,0.0,0.0,0.0,0.0,0.0,0.0,0.0,0.0,0.0,0.0,0.0,0.0,0.0,0.0,0.0,0.0,0.0,0.0,0.0,0.0,0.0,0.0,0.0,0.0,0.0,0.0,-5.168,-5.1299,-5.4475,-5.5673,-5.3054,-5.4255,-5.5121,-5.4928,-5.69,-5.8343,-5.8848,-6.0051,-6.0405,-5.9669,-6.1201,-6.0938,-5.8548,-5.9114,-5.993,-6.0888,-6.0273,-6.1071,-6.3346,-6.3514,-6.3322,-6.2817,-6.2263,-6.1604,-6.099,-6.115,-6.0421,-5.9135,-5.9253,-5.8353,-5.7123,-5.765,-5.7876,-5.7976,-5.873,-5.8855,-5.8504,-5.7424,-5.6696,-5.6168,-5.5792,-5.5942,-5.6269,-5.647,-5.7047,-5.7725,-5.8303,-5.8704,-5.9056,-5.9408,-5.9483,-5.9408,-5.9056,-5.8855,-5.8328,-5.7022,-5.529,-5.3858,-5.3281,-5.2879,-5.2653,-5.2653,-5.2955,-5.3582,-5.4687,-5.5164,-5.5591,-5.6143,-5.6219,-5.6143,-5.5942,-5.544,-5.4787,-5.4059,-5.313,-5.2201,-5.1297,-5.0017,-4.9063,-4.8485,-4.6502,-4.5121,-4.4342,0.0,0.0,0.0,0.0,0.0,0.0,0.0,0.0,0.0,0.0,0.0,0.0,0.0,0.0,0.0,0.0,0.0,0.0,0.0,0.0,0.0,0.0,0.0,-4.8837,-5.2251,-5.4427,-5.3712,-5.7425,-5.8876,-5.5896,-5.7983,-5.9281,-5.8752,-6.0676,-6.1638,-6.1085,-6.2552,-6.3153,-6.2672,-6.3634,-6.3899,-6.3394,-6.4314,-6.4314,-6.3394,-6.4338,-6.429,-6.337,-6.3899,-6.3827,-6.3298,-6.2793,-6.25,-6.2373,-6.2286,-6.1927,-6.1247,-6.063,-6.0362,-6.0261,-5.9709,-5.9508,-5.9483,-5.9483,-5.9156,-5.8755,-5.8755,-5.8378,-5.7951,-5.7951,-5.7951,-5.8052,-5.8604,-5.8755,-5.8855,-5.9357,-5.9483,-5.9483,-5.9483,-5.9483,-5.9483,-5.9483,-5.9106,-5.8579,-5.8027,-5.7047,-5.5742,-5.4034,-5.3758,-5.3758,-5.3758,-5.3758,0.0,-5.5265,-5.544,-5.5641,-5.6168,-5.6219,-5.5993,-5.5465,-5.4888,-5.4084,-5.3005,-5.1322,-5.0142,-4.959,-4.9012,-4.846,-4.7857,-4.6276,-4.492,-4.384,0.0,0.0,0.0,0.0,0.0,0.0,0.0,0.0,0.0,0.0,0.0,0.0,0.0,0.0,0.0,0.0,0.0,0.0,0.0,0.0,0.0,0.0,-5.2026,-5.1825,-5.5114,-5.7824,-5.8586,-6.1055,-6.2274,-6.0737,-6.1614,-6.2047,-6.1542,-6.272,-6.3418,-6.3274,-6.4043,-6.4428,-6.4284,-6.4548,-6.462,-6.4476,-6.3352,-6.3352,-6.4476,-6.3352,-6.3141,-6.3923,-6.4067,-6.3827,-6.3298,-6.2408,-6.2162,-6.2349,-6.1869,-6.1804,-6.195,-6.1657,-6.104,-6.0311,-6.0136,-5.9834,-5.9483,-5.9483,-5.9408,-5.9282,-5.9282,-5.9182,-5.9056,-5.9056,-5.9056,-5.9081,-5.9232,-5.9282,-5.9307,-5.9458,-5.9483,-5.9483,-5.9483,-5.9483,-5.9483,-5.9483,-5.9382,-5.9131,-5.8604,-5.8252,-5.7374,-5.529,-5.4913,-5.4913,-5.4913,-5.5265,0.0,-5.5942,-5.6344,-5.6495,-5.6244,-5.6219,-5.6143,-5.5993,-5.4737,-5.3658,-5.298,-5.0971,-4.9565,-4.9012,-4.8083,-4.733,-4.6753,-4.5497,-4.492,0.0,0.0,0.0,0.0,0.0,0.0,0.0,0.0,0.0,0.0,0.0,0.0,0.0,0.0,0.0,0.0,0.0,0.0,0.0,0.0,0.0,0.0,-5.2879,-5.5666,-5.6294,-5.8151,-6.0084,-6.1777,-6.3093,-6.3846,-6.3603,-6.4019,-6.4115,-6.361,-6.4524,-6.4933,-6.4476,-6.5173,-6.5366,-6.4933,-6.5342,-6.5366,-6.4909,-6.4218,-6.4218,-6.4933,-6.4218,-6.3934,-6.4139,-6.4356,-6.4043,0.0,-6.2696,-6.2514,-6.2654,-6.2296,-6.2257,0.0,0.0,0.0,0.0,0.0,-5.9759,-5.9483,-5.9483,-5.9483,-5.9483,-5.9483,-5.9483,-5.9483,-5.9483,-5.9483,-5.9483,-5.9483,-5.9483,-5.9483,-5.9483,-5.9483,-5.9483,-5.9483,-5.9483,-5.9483,-5.9483,-5.9483,-5.9332,-5.883,0.0,0.0,-5.6696,-5.6244,-5.6068,-5.6068,-5.6344,-5.6646,-5.6897,-5.6972,-5.6922,-5.6595,-5.6344,-5.6118,-5.5892,-5.4536,0.0,0.0,0.0,-4.8535,-4.7757,-4.7129,0.0,0.0,0.0,-4.5372,-4.5497,0.0,0.0,0.0,-4.5699,-4.5875,0.0,0.0,0.0,0.0,0.0,0.0,0.0,0.0,0.0,0.0,0.0,0.0,0.0,0.0,0.0,0.0,-5.6043,-5.8956,-6.1161,-6.1185,-6.1746,-6.3743,-6.4167,-6.4505,-6.4909,-6.5534,-6.5654,-6.5125,-6.6015,-6.6159,-6.5221,0.0,0.0,0.0,0.0,-6.6039,-6.5101,-6.6015,-6.6015,-6.5101,-6.6039,-6.5727,-6.4332,-6.4789,-6.4428,-6.3418,-6.337,-6.3293,-6.3227,-6.3153,-6.2993,-6.2722,-6.1692,-6.124,-6.1065,-5.9985,-5.9533,-5.9483,-5.9483,0.0,0.0,-5.9483,-5.9483,-5.9483,-5.9483,-5.9483,-5.9483,-5.9483,-5.9483,-5.9483,-5.9483,-5.9483,-5.9483,-5.9483,-5.9483,-5.9483,-5.9483,-5.9483,-5.9357,-5.8905,-5.8805,-5.8629,-5.8077,-5.7524,-5.7123,-5.7123,-5.7173,-5.7374,-5.775,-5.7399,-5.7072,-5.6947,0.0,0.0,-5.5516,-5.4336,-5.3181,-5.2176,-4.9464,-4.7456,-4.6451,-4.6401,-4.6426,-4.6476,-4.6426,-4.6175,-4.5673,-4.5673,-4.5899,-4.6301,-4.6301,-4.6541,0.0,0.0,0.0,0.0,0.0,0.0,0.0,0.0,0.0,0.0,0.0,0.0,0.0,0.0,0.0,-5.5039,-5.7976,-6.063,-6.2954,-6.3592,-6.4014,-6.453,-6.5413,-6.5797,-6.5534,-6.6424,-6.6761,-6.6232,-6.6761,-6.7025,-6.6833,-6.6616,0.0,-6.6809,-6.6616,-6.64,-6.6183,-6.64,-6.64,-6.6183,0.0,0.0,-6.539,-6.551,-6.4981,-6.3947,-6.3868,-6.3836,-6.3743,-6.3641,-6.3327,-6.2772,-6.2094,-6.1567,-6.109,-6.0412,-5.9885,-5.9483,-5.9483,-5.9483,-5.9483,-5.9483,-5.9483,-5.9483,-5.9483,-5.9483,0.0,-5.9483,-5.9483,-5.9483,-5.9483,-5.9483,-5.9483,-5.9483,-5.9483,-5.9483,-5.9483,-5.9483,-5.9458,-5.9357,-5.9357,-5.9182,-5.8654,-5.8102,-5.7725,-5.7725,-5.8102,-5.8102,-5.7298,-5.7499,-5.7374,-5.647,-5.6269,-5.6168,-5.6068,-5.4235,-5.2804,-5.2151,-4.9464,-4.7631,-4.6943,-4.6979,-4.7179,-4.7581,-4.7179,-4.6928,-4.6803,-4.6803,-4.6652,-4.6301,-4.6566,-4.684,0.0,0.0,0.0,0.0,0.0,0.0,0.0,0.0,0.0,0.0,0.0,-4.8134,-5.0067,0.0,-5.539,-5.7851,-6.0814,-6.3317,-6.4718,-6.5557,-6.5793,-6.5208,-6.5687,-6.6098,-6.6063,-6.6568,-6.6881,-6.6881,-6.7121,-6.741,-6.7675,-6.7458,-6.729,-6.729,-6.7025,-6.6881,-6.6881,-6.6616,-6.6616,-6.6881,-6.6616,-6.6208,-6.5702,-6.5702,-6.5216,-6.4448,-6.4449,-6.4328,-6.4234,-6.4199,-6.3836,-6.3224,-6.2948,-6.1994,-6.0713,-6.0412,-5.996,-5.9483,-5.9483,-5.9483,-5.9483,-5.9483,-5.9483,-5.9483,-5.9483,-5.9483,-5.9483,-5.9483,-5.9483,-5.9483,-5.9483,-5.9483,-5.9483,-5.9483,-5.9483,-5.9483,-5.9483,-5.9483,-5.9483,-5.9483,-5.9483,-5.9408,-5.9156,-5.888,-5.8604,-5.8353,-5.8554,-5.8604,-5.8303,-5.8303,-5.8001,-5.7148,-5.6796,-5.652,-5.6244,-5.4185,-5.2452,-5.1322,-4.9414,-4.8083,-4.7531,-4.7531,-4.7631,-4.7908,-4.7657,-4.7531,-4.7531,-4.7531,-4.738,-4.7104,-4.7288,-4.7106,0.0,0.0,0.0,0.0,0.0,0.0,0.0,0.0,-4.5999,-4.8661,-5.0017,-5.1498,-5.4059,-5.6445,-5.8654,-6.0512,-6.3249,-6.5273,-6.5753,-6.6597,-6.6856,-6.5736,-6.5808,-6.6039,-6.6448,-6.6592,-6.6833,-6.7242,-6.7386,-6.7675,-6.8252,-6.818,-6.7963,-6.7602,-6.7386,-6.729,-6.729,-6.6761,-6.6713,-6.7121,-6.6688,-6.628,-6.5847,-6.5847,-6.5591,-6.5121,-6.508,-6.4972,-6.4897,-6.4687,-6.4379,-6.3977,-6.3776,-6.2446,-6.0638,-6.0512,-6.0136,-5.9633,-5.9533,-5.9483,-5.9483,-5.9483,-5.9483,-5.9483,-5.9483,-5.9483,-5.9483,-5.9483,-5.9483,-5.9483,-5.9483,-5.9483,-5.9483,-5.9483,-5.9483,-5.9483,-5.9483,-5.9483,-5.9483,-5.9483,-5.9483,-5.9483,-5.9483,-5.9483,-5.9357,-5.893,-5.888,-5.8981,-5.9307,-5.8981,-5.8453,-5.7801,-5.7323,-5.6671,-5.5792,-5.411,-5.2327,-5.0519,-4.959,-4.8837,-4.8259,-4.8234,-4.8234,-4.8234,-4.8234,-4.8184,-4.8083,-4.8083,-4.8008,-4.7908,-4.7908,-4.7442,-4.2534,-4.2213,-4.2866,-4.5171,-4.5472,-4.6376,0.0,0.0,-5.1096,-5.3356,-5.431,-5.529,-5.7097,-5.8077,-5.9458,-6.2119,-6.3676,-6.4678,-6.4864,-6.6266,-6.6798,-6.5813,-6.6087,-6.6424,-6.6472,-6.6929,-6.7218,-6.7266,-6.7747,-6.8252,-6.8781,-6.8372,-6.83,-6.8709,-6.7795,-6.729,-6.729,-6.6761,-6.652,-6.6568,-6.652,-6.6472,-6.64,-6.64,-6.6364,-6.6306,-6.6158,-6.6093,-6.59,-6.5434,-6.5157,-6.5032,-6.4053,-6.2923,-6.1743,-6.1266,-6.0713,-6.0161,-5.9659,-5.9483,-5.9483,-5.9483,-5.9483,-5.9483,-5.9483,-5.9483,-5.9483,-5.9483,-5.9483,-5.9483,-5.9483,-5.9483,-5.9483,-5.9483,-5.9483,-5.9483,-5.9483,-5.9483,-5.9483,-5.9483,-5.9483,-5.9483,-5.9483,-5.9483,-5.9483,-5.9408,-5.9408,-5.9257,-5.8855,-5.8755,-5.8328,-5.7248,-5.7072,-5.6219,-5.416,-5.3758,-5.2703,-5.0544,-5.0293,-4.9992,-4.9414,-4.9414,-4.9414,-4.9414,-4.9414,-4.9163,-4.8686,-4.8686,-4.841,-4.7908,-4.7908,-4.789,-4.4367,-4.4568,0.0,0.0,-4.8058,-4.9565,-5.2302,-5.2804,-5.3306,-5.5541,-5.6696,-5.7801,-5.9508,-6.0512,-6.1692,0.0,-6.4982,-6.6,-6.6043,-6.6706,-6.6849,-6.5762,-6.5609,-6.5943,-6.6857,-6.7145,-6.7554,-6.818,-6.8444,-6.8805,-6.9334,-6.9166,-6.8997,-6.8901,-6.8468,-6.8228,-6.8228,-6.7386,-6.7121,-6.7434,-6.6785,-6.6496,-6.6496,-6.675,-6.7036,-6.7292,-6.6852,-6.6666,-6.6564,-6.6011,-6.5584,-6.5258,-6.4806,-6.3751,-6.237,-6.1492,-6.0613,-5.9809,-5.9583,-5.9483,-5.9483,-5.9483,-5.9483,-5.9483,-5.9483,-5.9483,-5.9483,-5.9483,-5.9483,-5.9483,-5.9483,-5.9483,-5.9483,-5.9483,-5.9483,-5.9483,-5.9483,-5.9483,-5.9483,-5.9483,-5.9483,-5.9483,-5.9483,-5.9483,-5.9483,-5.9483,-5.9483,-5.9408,-5.9207,-5.9182,-5.8755,-5.765,-5.7223,-5.6394,-5.4813,-5.3808,-5.2729,-5.1473,-5.0469,-4.9841,-4.9615,-4.959,-4.959,-4.959,-4.959,-4.949,-4.9264,-4.9264,-4.9138,-4.8887,-4.8887,-4.8838,-4.5472,0.0,0.0,-4.8736,-5.0519,-5.2352,-5.3934,-5.4712,-5.5641,-5.7549,-5.8579,-5.9633,-6.1316,-6.2169,-6.3048,-6.4479,-6.5986,-6.6965,-6.6791,-6.6884,-6.6595,-6.5484,-6.4869,-6.5053,-6.6496,-6.6905,-6.7506,-6.8612,-6.8829,-6.9142,-6.9671,-6.9695,-6.9526,-6.9142,-6.8973,-6.8829,-6.8685,-6.7915,-6.7578,-6.765,-6.7025,-6.664,-6.6496,-6.712,-6.7585,-6.7856,-6.7442,-6.7116,-6.694,-6.6363,-6.5785,-6.5283,-6.5132,-6.4153,-6.2697,-6.1592,-6.0663,-5.996,-5.996,-5.9859,-5.9734,-5.9734,-5.9608,-5.9458,-5.9332,-5.9382,-5.9433,-5.9131,-5.9156,-5.9282,-5.9282,-5.9282,-5.9307,-5.9458,-5.9483,-5.9483,-5.9483,-5.9483,-5.9483,-5.9483,-5.9483,-5.9483,-5.9483,-5.9483,-5.9483,-5.9483,-5.9483,-5.9483,-5.9483,-5.9205,-5.8678,-5.775,-5.7148,-5.642,-5.5465,-5.416,-5.303,-5.2151,-5.082,-4.9916,-4.9615,-4.959,-4.959,-4.959,-4.959,-4.959,-4.959,-4.959,-4.959,-4.959,-4.959,-4.9581,-4.5045,0.0,-4.7845,-5.1172,-5.2804,-5.4361,-5.7123,-5.8177,-5.888,-5.9985,-6.0236,-6.0788,-6.2471,-6.237,-6.2747,-6.4906,-6.6237,-6.6791,-6.6329,-6.6384,-6.5998,-6.4966,-6.3949,-6.3803,0.0,-6.5919,-6.6977,-6.8059,-6.8612,-6.9142,-6.9671,-6.9695,-6.9695,-6.9671,-6.9166,-6.8661,-6.8155,-6.8107,-6.7578,-6.6544,-6.7025,-6.6977,-6.6496,-6.7513,-6.7949,-6.7881,-6.7843,-6.7467,-6.694,-6.6363,-6.5785,-6.5233,-6.4705,-6.3802,-6.2697,-6.1592,-6.1165,-6.114,-6.114,-6.0763,-6.0286,-6.0286,-5.9935,-5.9408,-5.8905,-5.9106,-5.9282,-5.8252,-5.8328,-5.8755,-5.8755,-5.8755,-5.888,-5.9382,-5.9483,-5.9483,-5.9483,-5.9483,-5.9483,-5.9483,-5.9483,-5.9483,-5.9483,-5.9483,-5.9483,-5.9483,-5.9483,-5.9483,-5.9483,-5.8602,-5.77,-5.7073,-5.657,-5.6018,-5.544,-5.4863,-5.3833,-5.2201,-5.1548,-5.0745,-4.964,-4.959,-4.959,-4.959,-4.959,-4.959,-4.959,-4.959,-4.959,-4.959,-4.959,-4.9783,-4.6652,0.0,-5.1147,-5.4084,-5.5666,-5.7022,-5.9031,-5.9659,-5.9885,-6.0236,-6.0035,-5.9935,-6.0512,-6.0763,-6.1492,-6.335,-6.5208,-6.6452,-6.6741,-6.7424,-6.7052,-6.4527,-6.4333,0.0,0.0,0.0,0.0,-6.7987,-6.8276,-6.8757,-6.9647,-6.9695,-6.9695,-6.9695,-6.9526,-6.9502,-6.9695,-6.8997,-6.8636,-6.8612,-6.8006,-6.7864,-6.7971,-6.8362,-6.8428,-6.8329,-6.7956,-6.7493,-6.694,-6.6363,-6.5785,-6.5283,-6.5082,-6.3902,-6.232,-6.2697,-6.1893,-6.0563,-6.0186,-5.9935,-5.9784,-5.9784,-5.9633,-5.9458,-5.9282,-5.9357,-5.9408,-5.9056,-5.9081,-5.9232,-5.9232,-5.9232,-5.9282,-5.9458,-5.9483,-5.9483,-5.9483,-5.9483,-5.9483,-5.9483,-5.9483,-5.9483,-5.9483,-5.9483,-5.9483,-5.9483,-5.9228,-5.8975,-5.9006,-5.8353,-5.7649,-5.7072,-5.6872,-5.6244,-5.4963,-5.431,-5.3457,-5.2176,-5.1222,-5.0544,-5.0167,-4.9791,-4.959,-4.959,-4.959,-4.959,-4.959,-4.959,-4.959,-4.959,-4.9847,-5.0001,-4.8736,-5.0996,-5.3381,-5.6369,-5.7801,-5.8805,-6.0035,-6.0487,-6.0563,-6.0362,-5.9583,-5.9056,-5.9433,-5.9307,-5.9684,-6.1366,-6.3174,-6.4831,-6.6187,-6.6591,-6.6116,-6.4715,-6.445,-6.3923,0.0,0.0,0.0,-6.7386,-6.8083,-6.8685,-6.9382,-6.9598,-6.9695,-6.9695,-6.9695,-6.9767,-6.9911,-6.943,-6.9262,-6.9382,-6.824,-6.7941,-6.8428,-6.8428,-6.84,-6.8296,-6.7744,-6.7317,-6.6915,-6.6137,-6.5484,-6.4982,-6.4781,-6.3601,-6.2069,-6.2596,-6.1743,-6.0337,-6.0387,-6.0136,-5.9784,-5.9784,-5.9659,-5.9458,-5.9282,-5.9357,-5.9382,-5.878,-5.8905,-5.9182,-5.8981,-5.9081,-5.9257,-5.9458,-5.9483,-5.9483,-5.9483,-5.9483,-5.9483,-5.9483,-5.9483,-5.9483,-5.9483,-5.9483,-5.9483,-5.9483,-5.9075,-5.8723,-5.8704,-5.8228,-5.7698,-5.707,-5.687,-5.6319,-5.5239,-5.4637,-5.3833,-5.2754,-5.1624,-5.0845,-5.0444,-4.9891,-4.959,-4.959,-4.959,-4.959,-4.959,-4.959,-4.9654,-4.9783,-5.0001,-5.0168,-5.1197,-5.308,-5.4737,-5.8001,-5.9182,-5.9684,-6.0236,-6.0738,-6.0914,-6.0311,-5.8905,-5.8052,0.0,-5.7951,-5.7524,-5.9156,-6.0537,-6.2345,-6.5032,-6.4293,-6.402,0.0,0.0,0.0,0.0,0.0,0.0,-6.6376,0.0,-6.8829,-6.8901,-6.9406,-6.9695,-6.9695,-6.9695,-6.9478,-6.8997,-6.9454,-6.9431,-6.8841,-6.7771,-6.7543,-6.7956,-6.7956,-6.7901,-6.7769,-6.7241,-6.699,-6.684,-6.5735,-6.4957,-6.4404,-6.3877,-6.2973,-6.1943,-6.1416,-6.0839,-6.0487,-6.1592,-6.1215,-6.0261,-6.0236,-5.9885,-5.9357,-5.883,-5.9031,-5.9106,-5.7549,-5.7901,-5.8604,-5.8102,-5.8378,-5.888,-5.9382,-5.9483,-5.9483,-5.9483,-5.9483,-5.9483,-5.9483,-5.9483,-5.9483,-5.9483,-5.9483,-5.9483,-5.9483,-5.9075,-5.8723,-5.8655,-5.8228,-5.7599,-5.6988,-5.6491,-5.6194,-5.6168,-5.5691,-5.4913,-5.3758,-5.2729,-5.1649,-5.0544,-4.9967,-4.969,-4.969,-4.9665,-4.964,-4.964,-4.9615,-4.9783,-5.0065,-5.0129,-5.0295,-5.3331,-5.5641,-5.7801,-5.9483,-6.001,-6.0261,-6.0839,-6.0412,-5.9659,-5.8704,-5.7198,-5.5616,-5.4235,-5.5315,-5.6821,-5.8102,-6.1642,0.0,-6.689,-6.8232,0.0,-6.6996,0.0,-6.6829,-6.5264,-6.5462,0.0,0.0,-6.7097,-6.7626,-6.8853,-6.9406,-6.9695,-6.9695,-6.9695,-6.9815,-7.0079,-7.0204,-6.9911,-6.9431,-6.9091,-6.8958,-6.907,-6.907,-6.8519,-6.7794,-6.7643,-6.7116,-6.6287,-6.5584,-6.4957,-6.4379,-6.3425,-6.2621,-6.1994,-6.1843,-6.1165,-6.0412,-6.114,-6.0663,-5.9633,-5.9257,-5.9031,-5.8805,-5.8278,-5.8202,-5.8303,-5.8303,-5.8504,-5.878,-5.9031,-5.9182,-5.9332,-5.9458,-5.9483,-5.9483,-5.9483,-5.9483,-5.9483,-5.9483,-5.9483,-5.9483,-5.9483,-5.9483,-5.9483,-5.9483,-5.938,-5.8977,-5.8226,-5.7599,-5.6975,-5.6468,-5.6244,-5.6043,-5.5641,-5.5465,-5.4913,-5.3758,-5.308,-5.2402,-5.1699,-5.1147,-5.0845,-5.0845,-5.0419,-5.0218,-5.0218,-4.9791,-4.9654,-4.9719,-5.0232,-5.0525,-5.5867,-5.7851,-5.9659,-6.0788,-6.1065,-6.0889,-6.0236,-5.9784,-5.8855,-5.652,-5.4938,0.0,-5.2026,-5.3406,-5.5139,0.0,0.0,0.0,-6.7041,-6.8271,-6.8814,0.0,-6.893,0.0,-6.6565,-6.6881,-6.7338,0.0,-6.7578,-6.7939,-6.8853,-6.9406,-6.9695,-6.9695,-6.9695,-6.9936,-7.0421,-7.018,-7.0074,-6.9899,-6.961,-6.9306,-6.9074,-6.8848,-6.8246,-6.7417,0.0,-6.6564,-6.571,-6.5157,-6.4454,-6.3676,-6.2797,-6.1969,-6.1266,-6.1266,-6.0713,-6.001,-6.0337,-6.0035,-5.9433,-5.9156,-5.9056,-5.8956,-5.8428,-5.8428,-5.8579,-5.8403,-5.8704,-5.9081,-5.9131,-5.9332,-5.9483,-5.9483,-5.9483,-5.9483,-5.9483,-5.9483,-5.9483,-5.9483,-5.9483,-5.9483,-5.9483,-5.9483,-5.9483,-5.9483,-5.9483,-5.9205,-5.8399,-5.7775,-5.7274,-5.6994,-5.6518,-5.6093,-5.5767,-5.5742,-5.5265,-5.416,-5.3557,-5.2929,-5.2126,-5.1322,-5.0896,-5.0896,-5.0343,-5.0067,-5.0067,-4.9741,-4.9783,-5.004,-5.0397,-5.0778,-5.8453,-5.9834,-6.0889,-6.1868,-6.2069,-6.1441,-5.9307,-5.888,-5.7901,-5.4235,0.0,-5.1574,-5.0946,-5.1925,-5.3306,-5.4762,0.0,-6.2245,-6.6764,-6.7041,-6.7715,-7.0393,-7.0204,-6.9267,-6.7839,-6.8035,-6.8348,-6.842,-6.8781,-6.8973,-6.8901,-6.9406,-6.9695,-6.9695,-6.9792,-7.0059,-7.0446,-7.0031,-7.0065,-7.0248,-6.9862,-6.9248,-6.8723,-6.817,-6.7618,-6.7066,0.0,0.0,-6.5358,-6.4731,-6.3877,-6.2873,-6.2245,-6.1366,-6.0437,-6.0437,-6.0085,-5.9608,-5.9608,-5.9558,-5.9483,-5.9408,-5.9382,-5.9307,-5.878,-5.893,-5.9106,-5.8252,-5.8679,-5.9307,-5.893,-5.9156,-5.9483,-5.9483,-5.9483,-5.9483,-5.9483,-5.9483,-5.9483,-5.9483,-5.9483,-5.9483,-5.9483,-5.9483,-5.9483,-5.9483,-5.9483,-5.9355,-5.8846,-5.8252,-5.7848,-5.7798,-5.6868,-5.6219,-5.6219,-5.6219,-5.5742,-5.4708,-5.4084,-5.3331,-5.2251,-5.1197,-5.0645,-5.0645,-5.0017,-4.9715,-4.9715,-4.9705,-4.9976,-5.0525,-5.0588,-5.0968,-6.0286,-6.1567,-6.2446,-6.2647,-6.2345,-6.1542,-5.9759,-5.7675,0.0,0.0,-5.1122,-4.9715,-4.8686,-5.0544,-5.3356,-5.6771,0.0,0.0,0.0,0.0,-7.0623,0.0,-7.1257,-7.0585,-6.9937,-6.9648,0.0,0.0,0.0,0.0,-6.8925,-6.9406,-6.9695,-6.9695,-7.0543,-7.0736,-7.0446,-7.0771,-7.07,-7.0248,-7.0255,-6.9837,-6.9275,-6.8723,-6.817,-6.7618,0.0,0.0,-6.5886,-6.4881,-6.4103,-6.345,-6.2395,-6.1617,-6.104,-6.104,-6.0663,-6.0186,-6.0186,-5.9885,-5.9433,-5.9006,-5.8855,-5.8755,-5.8202,-5.8102,-5.8227,-5.8504,-5.8704,-5.893,-5.9282,-5.9433,-5.9483,-5.9483,-5.9483,-5.9483,-5.9483,-5.9483,-5.9483,-5.9483,-5.9483,-5.9483,-5.9483,-5.9483,-5.9483,-5.9483,-5.9483,-5.9483,-5.9355,-5.8479,-5.7747,-5.7222,-5.657,-5.6219,-5.6219,-5.6219,-5.5742,-5.4708,-5.4461,-5.3934,-5.2829,-5.2151,-5.1825,-5.1825,-5.0795,-5.0268,-5.0268,-5.0074,-5.0065,-5.0168,-5.0741,-5.1057,-6.2195,-6.35,-6.4479,-6.4178,-6.3274,-6.1692,-5.8855,0.0,0.0,0.0,-4.9264,-4.8385,-4.728,0.0,0.0,0.0,0.0,0.0,0.0,0.0,0.0,0.0,0.0,0.0,0.0,0.0,0.0,0.0,0.0,0.0,-6.9719,-6.9889,-7.0156,-7.0446,-7.0904,-7.1192,-7.1216,-7.1518,-7.1255,-7.0713,-7.0715,-7.0104,-6.8999,-6.8447,-6.7894,-6.7342,-6.6764,0.0,-6.5183,-6.4404,-6.34,-6.2295,-6.1466,-6.0788,-6.0311,-6.0311,-6.0136,-5.9885,-5.9885,-5.9709,-5.9458,-5.9207,-5.9131,-5.9031,-5.8478,-5.8504,-5.873,-5.873,-5.8905,-5.9106,-5.9106,-5.9282,-5.9433,-5.9156,-5.9307,-5.9483,-5.9483,-5.9483,-5.9483,-5.9483,-5.9483,-5.9483,-5.9483,-5.9483,-5.9483,-5.9483,-5.9483,-5.9483,-5.9483,-5.8806,-5.8127,-5.7524,-5.6721,-5.6219,-5.6219,-5.6219,-5.5742,-5.4708,-5.4285,-5.3758,-5.2955,-5.1825,-5.1373,-5.1674,-5.0569,-4.9992,-4.9992,-4.987,-5.004,-5.0359,-5.0487,-5.0867,-6.3676,-6.5057,-6.6162,-6.5609,-6.4128,-6.1843,-5.8077,-5.5566,0.0,0.0,-4.7807,-4.733,-4.6627,0.0,-5.1147,0.0,0.0,0.0,0.0,0.0,0.0,0.0,0.0,0.0,0.0,0.0,0.0,0.0,0.0,0.0,0.0,-7.0689,-7.0904,-7.1192,-7.1383,-7.167,-7.1981,-7.1952,-7.1687,-7.1083,-7.0958,-7.0104,-6.8597,-6.8045,-6.7493,-6.694,-6.6363,0.0,0.0,-6.4078,-6.2873,-6.1316,-6.0864,-6.0186,-5.9508,-5.9633,-5.9583,-5.9483,-5.9483,-5.9483,-5.9483,-5.9483,-5.9483,-5.9408,-5.9006,-5.9182,-5.9382,-5.8855,-5.9106,-5.9382,-5.8855,-5.9106,-5.9382,-5.8981,-5.9207,-5.9483,-5.9483,-5.9483,-5.9483,-5.9483,-5.9483,-5.9483,-5.9483,-5.9483,-5.9483,-5.9483,-5.9483,-5.9483,-5.9483,-5.9031,-5.8554,-5.8127,-5.7072,-5.6394,-5.6394,-5.6269,-5.5792,-5.4813,-5.421,-5.3607,-5.2955,-5.1423,-5.077,-5.1096,-5.0117,-4.9654,-4.9719,-4.9783,-5.0104,-5.0715,-5.0487,-5.0842,-6.4103,-6.5609,-6.6764,-6.6187,-6.4429,-6.1943,-5.8579,0.0,0.0,-4.9188,-4.7506,-4.6577,-4.6918,-4.7682,-4.9565,0.0,0.0,-5.8102,0.0,0.0,0.0,0.0,0.0,0.0,0.0,0.0,0.0,0.0,0.0,0.0,0.0,-7.1337,-7.1695,-7.1192,-7.2051,-7.2361,-7.1981,-7.1956,-7.1686,-7.1083,-7.0581,-6.9727,-6.8597,-6.8045,-6.7493,-6.694,0.0,0.0,0.0,-6.463,-6.3425,-6.1918,-6.1868,-6.0889,-5.9558,-6.006,-5.9935,-5.9483,-5.9483,-5.9483,-5.9483,-5.9483,-5.9483,-5.9483,-5.9433,-5.9458,-5.9382,-5.8855,-5.9106,-5.9382,-5.8855,-5.9106,-5.9483,-5.9433,-5.9458,-5.9483,-5.9483,-5.9483,-5.9483,-5.9483,-5.9483,-5.9483,-5.9483,-5.9483,-5.9483,-5.9483,-5.9483,-5.9483,-5.9483,-5.9031,-5.8704,-5.8654,-5.7625,-5.6972,-5.6972,-5.6495,-5.5968,-5.534,-5.4787,-5.4009,-5.298,-5.1825,-5.0971,-5.0494,-4.9891,-4.9719,-5.0065,-5.0359,-5.0741,-5.1057,-5.1346,-5.1534,-6.4404,-6.6689,-6.8246,-6.7342,-6.4705,-6.1567,-5.8579,0.0,0.0,-4.8636,-4.7205,-4.6376,-4.6602,-4.7079,-4.8335,0.0,0.0,0.0,0.0,0.0,0.0,0.0,0.0,0.0,0.0,0.0,0.0,0.0,0.0,0.0,0.0,-7.1617,-7.2076,-7.2051,-7.2526,-7.247,-7.1956,-7.1918,-7.146,-7.0581,-7.0355,-6.9501,-6.812,-6.7894,-6.7317,-6.6438,0.0,0.0,0.0,-6.3475,-6.2395,-6.1441,-6.0763,-6.0085,-5.9533,-5.9734,-5.9684,-5.9483,-5.9483,-5.9483,-5.9483,-5.9483,-5.9483,-5.9433,-5.9131,-5.9257,-5.9382,-5.8855,-5.9106,-5.9382,-5.8855,-5.888,-5.9106,-5.9408,-5.9483,-5.9483,-5.9483,-5.9483,-5.9483,-5.9483,-5.9483,-5.9483,-5.9483,-5.9483,-5.9483,-5.9483,-5.9483,-5.9483,-5.9483,-5.9307,-5.9182,-5.9182,-5.8202,-5.7424,-5.7072,-5.6821,-5.6319,-5.544,-5.4536,-5.3708,-5.2955,-5.1523,-5.0645,-5.0419,-4.9866,-4.9783,-5.0129,-5.0232,-5.055,-5.112,-5.1031,-5.122,-6.3651,-6.6589,-6.8723,-6.7794,-6.4756,-6.1291,0.0,0.0,-4.9941,-4.8259,-4.7179,-4.6502,-4.6351,-4.6878,-4.7857,0.0,0.0,-5.1624,0.0,0.0,0.0,0.0,0.0,0.0,0.0,0.0,0.0,0.0,0.0,0.0,0.0,-7.1643,-7.1862,-7.2238,-7.2389,-7.2213,-7.1661,-7.151,-7.0958,-7.0003,-6.9853,-6.8999,-6.7543,-6.7543,-6.7041,-6.6086,0.0,0.0,0.0,-6.2797,-6.1718,-6.0839,-6.0035,-5.9633,-5.9483,-5.9483,-5.9483,-5.9483,-5.9483,-5.9382,-5.9282,-5.9433,-5.9382,-5.9156,-5.8629,-5.8855,-5.9182,-5.883,-5.8981,-5.9207,-5.9006,-5.8956,-5.9031,-5.9408,-5.9483,-5.9483,-5.9483,-5.9483,-5.9483,-5.9483,-5.9483,-5.9483,-5.9483,-5.9483,-5.9483,-5.9483,-5.9483,-5.9483,-5.9483,-5.9483,-5.9483,-5.9483,-5.883,-5.8077,-5.7349,-5.7123,-5.662,-5.5691,-5.4587,-5.3658,-5.2955,-5.1473,-5.0519,-5.0167,-4.9791,-4.9783,-5.0129,-5.0129,-5.0423,-5.112,-5.0867,-5.1031,-6.1592,-6.4856,-6.7693,-6.7116,-6.4479,-6.1291,0.0,0.0,-4.9941,-4.8259,-4.7481,-4.6954,-4.6401,-4.7179,-4.8284,-4.9414,0.0,0.0,0.0,0.0,0.0,0.0,0.0,0.0,0.0,0.0,0.0,0.0,0.0,0.0,0.0,0.0,-7.1108,-7.1108,-7.1636,-7.1661,-7.1108,-7.0556,-7.0003,-6.9361,-6.8899,-6.8045,-6.699,-6.699,-6.6664,0.0,0.0,0.0,0.0,-6.3073,-6.1843,-6.0337,-6.0311,-5.9985,-5.9483,-5.9483,-5.9483,-5.9483,-5.9483,-5.9156,-5.8805,-5.9332,-5.9156,-5.8629,-5.8077,-5.8303,-5.873,-5.873,-5.873,-5.8855,-5.9357,-5.9483,-5.9483,-5.9483,-5.9483,-5.9483,-5.9483,-5.9483,-5.9483,-5.9483,-5.9483,-5.9483,-5.9483,-5.9483,-5.9483,-5.9483,-5.9483,-5.9483,-5.9483,-5.9483,-5.9483,-5.9483,-5.9483,-5.9056,-5.7976,-5.7374,-5.6796,-5.6244,-5.5164,-5.4059,-5.298,-5.1875,-5.0745,-4.9615,-4.959,-4.9783,-5.0129,-5.0129,-5.0423,-5.112,-5.112,-5.1309,-5.7951,-6.0889,-6.3048,-6.2094,-6.0236,-5.8077,-5.6068,0.0,-5.0042,-4.8761,-4.8058,-4.7606,-4.7431,-4.7682,-4.8535,-5.0444,-5.0896,0.0,0.0,0.0,0.0,0.0,0.0,0.0,0.0,0.0,0.0,0.0,0.0,0.0,0.0,0.0,-7.0706,-7.1083,-7.1259,-7.1083,-7.0531,-6.9978,-6.9426,-6.8874,-6.8321,-6.7668,-6.6965,-6.6965,0.0,0.0,0.0,0.0,0.0,-6.1517,-6.0788,-6.0286,-5.991,-5.9659,-5.9458,-5.9106,-5.8956,-5.8905,-5.8529,-5.8554,-5.8755,-5.8905,-5.8855,-5.8679,-5.8504,-5.8579,-5.873,-5.873,-5.8981,-5.9282,-5.9458,-5.9483,-5.9483,-5.9483,-5.9483,-5.9483,-5.9483,-5.9483,-5.9483,-5.9483,-5.9483,-5.9483,-5.9483,-5.9207,-5.8954,-5.8923,-5.8952,-5.8954,-5.8923,-5.9253,-5.9483,-5.9483,-5.9483,-5.9056,-5.8001,-5.7725,-5.7223,-5.6269,-5.5164,-5.4235,-5.3482,-5.2427,-5.1498,-5.077,-5.0368,-5.0298,-5.0623,-5.0474,-5.0804,-5.1408,-5.1408,-5.1471,0.0,-5.8127,-6.0111,-5.9633,-5.8102,0.0,0.0,0.0,-4.9841,-4.8962,-4.8485,-4.8159,-4.7958,-4.8259,-4.9012,-5.0419,0.0,0.0,0.0,0.0,0.0,0.0,0.0,0.0,0.0,0.0,0.0,0.0,0.0,0.0,0.0,0.0,-7.0104,-7.0455,-7.0656,-7.0506,-6.9953,-6.9401,-6.8848,-6.8296,-6.7744,-6.7091,-6.6338,-6.6338,0.0,0.0,0.0,0.0,0.0,-6.0713,-6.0186,-5.996,-5.9633,-5.9483,-5.9433,-5.8905,-5.873,-5.8629,-5.8102,-5.7976,-5.8127,-5.8328,-5.8252,-5.8077,-5.8077,-5.8227,-5.8403,-5.8403,-5.8805,-5.9257,-5.9433,-5.9483,-5.9433,-5.9257,-5.9357,-5.9433,-5.9257,-5.9357,-5.9483,-5.9483,-5.9332,-5.9207,-5.9207,-5.8755,-5.8402,-5.8425,-5.8552,-5.8677,-5.8669,-5.9203,-5.9483,-5.9483,-5.9332,-5.8855,-5.7976,-5.7901,-5.7424,-5.6269,-5.5365,-5.4511,-5.3733,-5.2879,-5.2051,-5.1297,-5.072,-5.0484,-5.068,-5.0614,-5.0905,-5.1408,-5.1534,-5.1596,0.0,-5.6093,0.0,0.0,0.0,0.0,0.0,-5.1875,0.0,-4.8937,-4.8837,-4.8686,-4.8184,-4.8912,-4.964,-4.9816,0.0,0.0,0.0,0.0,0.0,0.0,0.0,0.0,0.0,0.0,0.0,0.0,0.0,0.0,0.0,0.0,0.0,-6.9361,-6.9903,-6.9903,-6.9401,-6.8798,-6.8246,-6.7744,-6.7141,-6.6312,-6.5283,-6.5208,0.0,0.0,0.0,0.0,0.0,-6.0487,-5.996,-5.9483,-5.9483,-5.9483,-5.9433,-5.8855,-5.8654,-5.8579,-5.7976,-5.7449,-5.7123,-5.765,-5.7474,-5.7022,-5.6972,-5.7374,-5.7851,-5.7851,-5.8227,-5.878,-5.9307,-5.9408,-5.9282,-5.888,-5.9106,-5.9307,-5.888,-5.9131,-5.9433,-5.9433,-5.9006,-5.8654,-5.8654,-5.8202,-5.7851,-5.7876,-5.8328,-5.8627,-5.8644,-5.9125,-5.9483,-5.9483,-5.9031,-5.8504,-5.7951,-5.7851,-5.7374,-5.6269,-5.5691,-5.4888,-5.3808,-5.3256,-5.2477,-5.1423,-5.0795,-5.0509,-5.0409,-5.0589,-5.0804,-5.112,-5.1471,-5.1596,-4.959,0.0,-5.2377,-5.2528,-5.2503,-5.2251,0.0,-5.0795,-5.0067,-4.9515,-4.9389,-4.949,-4.9766,-4.969,-5.0142,0.0,0.0,0.0,0.0,0.0,0.0,0.0,0.0,0.0,0.0,0.0,0.0,0.0,0.0,0.0,0.0,0.0,0.0,-6.9361,-6.915,-6.8949,-6.8823,-6.7844,-6.7292,-6.7166,-6.6162,-6.5534,-6.5258,-6.4429,0.0,0.0,0.0,0.0,-5.9885,-5.9734,-5.9608,-5.9483,-5.9483,-5.9483,-5.9382,-5.8453,-5.8102,-5.7951,-5.6947,-5.6796,-5.6973,-5.7198,-5.7148,-5.6947,-5.652,-5.6796,-5.7248,-5.7248,-5.765,-5.8227,-5.8755,-5.8579,-5.8453,-5.9156,-5.9106,-5.8981,-5.9257,-5.9106,-5.8905,-5.8905,-5.8453,-5.8102,-5.8102,-5.7625,-5.7174,-5.7199,-5.7725,-5.8075,-5.8086,-5.8948,-5.9483,-5.9483,-5.9031,-5.8504,-5.7951,-5.7499,-5.6947,-5.6244,-5.5691,-5.5089,-5.4386,-5.3808,-5.3206,-5.2553,-5.1816,-5.1274,-5.0946,-5.0982,-5.1183,-5.1471,-5.1534,-5.1596,-4.8083,-4.9364,-5.0544,-5.1071,-5.1247,-5.1197,-5.0896,0.0,-4.9967,-4.9665,-4.959,-4.9766,-5.0318,-5.0167,0.0,0.0,0.0,0.0,0.0,0.0,0.0,0.0,0.0,0.0,0.0,0.0,0.0,0.0,0.0,0.0,0.0,0.0,0.0,0.0,-6.8673,-6.8371,-6.8622,-6.7518,-6.684,-6.6564,-6.571,-6.5032,-6.453,-6.3676,0.0,0.0,0.0,0.0,-5.9483,-5.9483,-5.9483,-5.9483,-5.9483,-5.9357,-5.9031,-5.8202,-5.7725,-5.7374,-5.652,-5.657,-5.7022,-5.7022,-5.7022,-5.6972,-5.6671,-5.662,-5.6721,-5.6972,-5.7273,-5.7625,-5.8202,-5.8127,-5.7976,-5.8303,-5.8554,-5.873,-5.8755,-5.873,-5.873,-5.873,-5.8052,-5.7499,-5.7499,-5.7022,-5.6647,-5.66,-5.7399,-5.7776,-5.7519,-5.8475,-5.9158,-5.9131,-5.8428,-5.7926,-5.7901,-5.6897,-5.6143,-5.5842,-5.5315,-5.4762,-5.4185,-5.3858,-5.3275,-5.2379,-5.2016,-5.1546,-5.112,-5.112,-5.1309,-5.1596,-5.1596,-5.1596,-4.7757,-4.9339,-5.0845,-5.1548,-5.1423,-5.1122,-5.1046,0.0,0.0,0.0,0.0,0.0,0.0,-5.0695,0.0,0.0,0.0,0.0,0.0,0.0,0.0,0.0,0.0,0.0,0.0,0.0,0.0,0.0,0.0,0.0,0.0,0.0,0.0,0.0,-6.8346,-6.797,-6.8371,-6.7367,-6.6513,-6.586,-6.5308,-6.4479,-6.3425,-6.2847,-6.2019,0.0,0.0,0.0,-5.9483,-5.9483,-5.9483,-5.9483,-5.9483,-5.9182,-5.8654,-5.8102,-5.7524,-5.6947,-5.6394,-5.657,-5.7022,-5.7022,-5.7022,-5.7022,-5.7022,-5.6646,-5.6319,-5.6771,-5.6922,-5.7047,-5.7625,-5.77,-5.7549,-5.7248,-5.7826,-5.8353,-5.7976,-5.8202,-5.8453,-5.8453,-5.7625,-5.6922,-5.6922,-5.652,-5.6219,-5.6219,-5.7095,-5.7574,-5.71,-5.7926,-5.858,-5.8579,-5.765,-5.7223,-5.7725,-5.6294,-5.5365,-5.5265,-5.4813,-5.431,-5.3733,-5.3602,-5.2959,-5.1804,-5.1743,-5.1535,-5.112,-5.112,-5.1309,-5.1596,-5.1596,-5.1596,-4.8335,-5.0218,-5.1548,-5.0293,-5.0268,-5.0419,-4.9967,0.0,0.0,0.0,0.0,0.0,0.0,-5.19,0.0,0.0,0.0,0.0,0.0,0.0,0.0,0.0,0.0,0.0,0.0,0.0,0.0,0.0,0.0,0.0,0.0,0.0,0.0,0.0,0.0,-6.7618,-6.7241,-6.6589,-6.5735,-6.4705,-6.4178,-6.335,-6.2245,-6.1692,-6.109,0.0,0.0,-6.001,-5.9483,-5.9483,-5.9483,-5.9483,-5.9483,-5.9182,-5.8654,-5.8102,-5.7524,-5.6947,-5.6394,-5.657,-5.7022,-5.7022,-5.7022,-5.7022,-5.7022,-5.6646,-5.6219,-5.6319,-5.6344,-5.647,-5.7022,-5.6821,-5.6696,-5.7549,-5.7524,-5.7399,-5.7801,-5.7575,-5.7298,-5.7298,-5.6771,-5.6344,-5.6344,-5.6269,-5.6219,-5.6219,-5.6722,-5.7099,-5.7025,-5.7574,-5.8,-5.8001,-5.7424,-5.7072,-5.7148,-5.6068,-5.5189,-5.4712,-5.4612,-5.431,-5.3733,-5.3078,-5.2447,-5.1778,-5.1558,-5.1319,-5.112,-5.112,-5.1309,-5.1596,-5.1596,-5.1596,-4.8083,-4.9715,-5.1147,-5.0996,-5.1574,-5.1975,-5.1147,-5.072,0.0,0.0,0.0,0.0,0.0,0.0,0.0,0.0,0.0,0.0,0.0,0.0,0.0,0.0,0.0,0.0,0.0,0.0,0.0,0.0,0.0,0.0,0.0,0.0,0.0,0.0,0.0,-6.6614,-6.6061,-6.5233,-6.4555,-6.4028,-6.3199,-6.2345,-6.1542,-6.0964,-6.0563,-6.0311,0.0,-5.9734,-5.9483,-5.9483,-5.9483,-5.9483,-5.9483,-5.9182,-5.8604,-5.775,-5.7072,-5.6545,-5.6294,-5.6771,-5.7499,-5.7499,-5.7499,-5.7499,-5.7499,-5.6897,-5.6219,-5.6219,-5.6219,-5.6269,-5.652,-5.6394,-5.6344,-5.6872,-5.7022,-5.7097,-5.7374,-5.7223,-5.7022,-5.7022,-5.6595,-5.6219,-5.6219,-5.6219,-5.6219,-5.6219,-5.6644,-5.6996,-5.6999,-5.7499,-5.7926,-5.7901,-5.7374,-5.7022,-5.7022,-5.6018,-5.5013,-5.416,-5.3833,-5.3557,-5.3306,-5.2639,-5.2228,-5.2068,-5.1611,-5.1408,-5.1346,-5.1346,-5.1471,-5.1596,-5.1596,-5.1596,-4.8159,-4.954,-5.1021,-5.1875,-5.2729,-5.3281,-5.3105,-5.2553,-5.2151,-5.2553,0.0,0.0,0.0,0.0,0.0,0.0,0.0,0.0,0.0,0.0,0.0,0.0,0.0,0.0,0.0,0.0,0.0,0.0,0.0,0.0,0.0,0.0,0.0,0.0,-6.6564,-6.5735,-6.4931,-6.3852,-6.3224,-6.3099,-6.222,-6.1441,-6.0788,-6.0462,-6.0236,-6.0111,-5.9809,-5.9608,-5.9483,-5.9483,-5.9483,-5.9483,-5.9483,-5.9106,-5.8378,-5.7248,-5.657,-5.6219,-5.6369,-5.7072,-5.7901,-5.7901,-5.7901,-5.7876,-5.7725,-5.6997,-5.6219,-5.6219,-5.6219,-5.6219,-5.6219,-5.6219,-5.6219,-5.6219,-5.652,-5.6846,-5.6846,-5.6846,-5.6846,-5.6846,-5.6495,-5.6219,-5.6219,-5.6219,-5.6219,-5.6219,-5.6564,-5.6889,-5.6972,-5.74,-5.7649,-5.7675,-5.7323,-5.6922,-5.6671,-5.5767,-5.4762,-5.3758,-5.3206,-5.2879,-5.2729,-5.2337,-5.2117,-5.1995,-5.1536,-5.1407,-5.1471,-5.1471,-5.1534,-5.1596,-5.1596,-5.1596,-4.9314,-5.0695,-5.2,-5.2076,-5.2176,-5.2879,-5.534,-5.5089,-5.4762,-5.6294,-5.7047,0.0,0.0,0.0,0.0,0.0,0.0,0.0,0.0,0.0,0.0,0.0,0.0,0.0,0.0,0.0,0.0,0.0,0.0,0.0,0.0,0.0,0.0,0.0,0.0,-6.5358,-6.3827,-6.2697,-6.1868,-6.1366,-6.1291,-6.0663,-5.9633,-6.0111,-6.0035,-5.9583,-6.006,-5.996,-5.9483,-5.9483,-5.9483,-5.9483,-5.9483,-5.8855,-5.7826,-5.6696,-5.6244,-5.6294,-5.6796,-5.7374,-5.7901,-5.7901,-5.7901,-5.7801,-5.7248,-5.6671,-5.6219,-5.6219,-5.6219,-5.6219,-5.6219,-5.6219,-5.6219,-5.6219,-5.6244,-5.6269,-5.6269,-5.6269,-5.6269,-5.6269,-5.6244,-5.6219,-5.6219,-5.6219,-5.6219,-5.6219,-5.6219,-5.6465,-5.6937,-5.7073,-5.7062,-5.71,-5.7048,-5.662,-5.5591,-5.4963,-5.4361,-5.3733,-5.3206,-5.2703,-5.2176,-5.2225,-5.1838,-5.1017,-5.11,-5.1109,-5.112,-5.112,-5.1309,-5.1596,-5.1596,-5.1596,-4.9038,-5.082,-5.2628,-5.2628,-5.3381,-5.4612,-5.6319,-5.6671,-5.6997,-5.8303,-5.9583,-6.0261,0.0,0.0,0.0,0.0,0.0,0.0,0.0,0.0,0.0,0.0,0.0,0.0,0.0,0.0,0.0,0.0,0.0,0.0,0.0,0.0,0.0,0.0,0.0,-6.4304,-6.2672,-6.1868,-6.104,-6.0136,-6.0136,-5.991,-5.9508,-5.9709,-5.9684,-5.9508,-5.9709,-5.9684,-5.9483,-5.9483,-5.9483,-5.9458,-5.9131,-5.8554,-5.7801,-5.7022,-5.652,-5.6244,-5.6445,-5.7123,-5.7851,-5.7474,-5.76,-5.7801,-5.7198,-5.6646,-5.6219,-5.6219,-5.6219,-5.6219,-5.6219,-5.6219,-5.6219,-5.6219,-5.6219,-5.6219,-5.6219,-5.6219,-5.6219,-5.6219,-5.6219,-5.6219,-5.6219,-5.6219,-5.6219,-5.6219,-5.6219,-5.6271,-5.6474,-5.68,-5.6844,-5.6523,-5.6501,-5.6219,-5.544,-5.4888,-5.431,-5.3733,-5.3206,-5.2678,-5.2126,-5.2016,-5.1762,-5.1201,-5.1151,-5.1183,-5.1408,-5.1408,-5.1471,-5.1596,-5.1596,-5.1596,-4.8862,-5.0419,-5.2226,-5.2578,0.0,-5.5942,-5.8102,-5.878,-5.9483,-6.1441,-6.2069,-6.237,-6.2722,0.0,0.0,0.0,0.0,0.0,0.0,0.0,0.0,0.0,0.0,0.0,0.0,0.0,0.0,0.0,0.0,0.0,0.0,0.0,0.0,0.0,0.0,0.0,-6.1768,-6.119,-6.0437,-5.9483,-5.9483,-5.9483,-5.9483,-5.9483,-5.9483,-5.9483,-5.9483,-5.9408,-5.9257,-5.9257,-5.9257,-5.9182,-5.8478,-5.8077,-5.7801,-5.7047,-5.6545,-5.6244,-5.642,-5.7097,-5.7826,-5.7424,-5.7575,-5.7801,-5.7198,-5.6646,-5.6219,-5.6219,-5.6219,-5.6219,-5.6219,-5.6219,-5.6219,-5.6219,-5.6219,-5.6219,-5.6219,-5.6219,-5.6219,-5.6219,-5.6219,-5.6219,-5.6219,-5.6219,-5.6219,-5.6219,-5.6043,-5.6045,-5.6375,-5.65,-5.6377,-5.6005,-5.5778,-5.5465,-5.4913,-5.4511,-5.413,-5.3646,-5.3268,-5.2815,-5.2261,-5.2149,-5.1958,-5.1589,-5.1405,-5.1346,-5.1596,-5.1596,-5.1596,-5.1596,-5.1596,-5.1596,-4.9088,-4.959,-5.072,-5.1825,0.0,0.0,-6.1014,-6.1592,-6.2295,-6.6187,-6.4806,-6.3199,-6.4304,-6.4078,0.0,0.0,0.0,0.0,0.0,0.0,0.0,0.0,0.0,0.0,0.0,0.0,0.0,0.0,0.0,0.0,0.0,0.0,0.0,0.0,0.0,0.0,-6.119,-6.0613,-6.0035,-5.9483,-5.9483,-5.9483,-5.9483,-5.9483,-5.9483,-5.9483,-5.9483,-5.9207,-5.873,-5.8704,-5.8704,-5.8604,-5.7474,-5.7399,-5.775,-5.662,-5.6219,-5.6294,-5.6846,-5.7399,-5.7901,-5.7876,-5.7901,-5.7775,-5.7198,-5.6646,-5.6219,-5.6219,-5.6219,-5.6219,-5.6219,-5.6219,-5.6219,-5.6219,-5.6219,-5.6219,-5.6219,-5.6219,-5.6219,-5.6219,-5.6219,-5.6219,-5.6219,-5.6219,-5.6219,-5.6219,-5.5739,-5.5757,-5.6858,-5.6056,-5.5408,-5.5365,-5.4888,-5.4336,-5.3758,-5.3708,-5.3621,-5.3503,-5.3478,-5.3199,-5.2615,-5.2719,-5.2544,-5.2038,-5.1695,-5.1596,-5.1596,-5.1596,-5.1596,-5.1596,-5.1596,-5.1596,-4.954,-5.0745,0.0,-5.3055,0.0,0.0,0.0,-6.2446,0.0,0.0,-6.7442,-6.6538,-6.7267,0.0,0.0,0.0,0.0,0.0,0.0,0.0,0.0,0.0,0.0,0.0,0.0,0.0,0.0,0.0,0.0,0.0,0.0,0.0,0.0,0.0,0.0,0.0,-6.0588,-6.0412,-6.0035,-5.9483,-5.9483,-5.9483,-5.9483,-5.9483,-5.9483,-5.9483,-5.9483,-5.9207,-5.8679,-5.8303,-5.8152,-5.8077,-5.7323,-5.7148,-5.7198,-5.647,-5.6219,-5.6244,-5.6394,-5.6821,-5.7223,-5.6846,-5.6972,-5.7173,-5.662,-5.6344,-5.6219,-5.6219,-5.6219,-5.6219,-5.6219,-5.6219,-5.6219,-5.6219,-5.6219,-5.6219,-5.6219,-5.6219,-5.6219,-5.6219,-5.6219,-5.6219,-5.6219,-5.6219,-5.6219,-5.6219,-5.5739,-5.5379,-5.532,-5.4663,-5.4365,-5.4808,-5.4662,-5.4336,-5.3758,-5.3356,-5.3067,-5.2894,-5.2715,-5.2608,-5.2363,-5.2645,-5.2362,-5.1405,-5.1512,-5.1596,-5.1596,-5.1596,-5.1596,-5.1596,-5.1596,-5.1596,-4.9941,-5.1398,0.0,-5.4411,-5.7223,-6.0487,-6.345,0.0,0.0,0.0,0.0,-6.8698,-6.9451,0.0,0.0,0.0,0.0,0.0,0.0,0.0,0.0,0.0,0.0,0.0,0.0,0.0,0.0,0.0,0.0,0.0,0.0,0.0,0.0,0.0,0.0,0.0,-6.0337,-6.0111,-5.9834,-5.9483,-5.9282,-5.9182,-5.9207,-5.9408,-5.9382,-5.9156,-5.8704,-5.8328,-5.8001,-5.7449,-5.7349,-5.7499,-5.6922,-5.6846,-5.6972,-5.642,-5.6068,-5.5917,-5.6143,-5.642,-5.6696,-5.657,-5.6771,-5.6972,-5.6646,-5.6394,-5.6219,-5.6219,-5.6219,-5.6219,-5.6219,-5.6043,-5.5942,-5.6168,-5.6219,-5.6219,-5.6219,-5.6219,-5.6219,-5.6219,-5.6219,-5.6219,-5.6219,-5.6018,-5.5892,-5.5892,-5.5437,-5.4804,-5.4043,-5.3803,-5.3778,-5.3928,-5.3909,-5.3783,-5.3432,-5.2904,-5.2589,-5.2641,-5.2414,-5.2268,-5.2167,-5.2492,-5.2348,-5.1673,-5.1601,-5.1596,-5.1596,-5.1596,-5.1596,-5.1596,-5.1596,-5.1596,-5.0343,0.0,0.0,-5.5942,-5.9131,0.0,-6.5634,-6.8371,-7.038,-7.0832,0.0,0.0,0.0,0.0,0.0,0.0,0.0,0.0,0.0,0.0,0.0,0.0,0.0,0.0,0.0,0.0,0.0,0.0,0.0,0.0,0.0,0.0,0.0,0.0,0.0,0.0,-6.0236,-5.9734,-5.9483,0.0,-5.8956,-5.8704,-5.8654,-5.9131,-5.9106,-5.8579,-5.7499,-5.6923,-5.6922,-5.642,-5.647,-5.6846,-5.6394,-5.652,-5.6897,-5.6394,-5.5892,-5.5541,-5.5968,-5.6168,-5.6269,-5.6671,-5.6872,-5.6947,-5.6897,-5.652,-5.6143,-5.6143,-5.6093,-5.6068,-5.6068,-5.5691,-5.544,-5.5942,-5.6093,-5.6143,-5.6143,-5.6143,-5.6143,-5.6194,-5.6168,-5.6143,-5.6143,-5.5717,-5.534,-5.5239,-5.4838,-5.4135,-5.3055,-5.3312,-5.3431,-5.2955,-5.2929,-5.2929,-5.2929,-5.2377,-5.2228,-5.2539,-5.2353,-5.2116,-5.196,-5.2331,-5.2459,-5.2406,-5.1884,-5.1596,-5.1596,-5.1596,-5.1596,-5.1596,-5.1596,-5.1596,0.0,0.0,0.0,0.0,0.0,-6.6137,-6.7719,-6.92,-7.0179,0.0,0.0,0.0,0.0,0.0,0.0,0.0,0.0,0.0,0.0,0.0,0.0,0.0,0.0,0.0,0.0,0.0,0.0,0.0,0.0,0.0,0.0,0.0,0.0,0.0,0.0,-5.9684,-5.9684,-5.9558,-5.9282,0.0,-5.878,-5.8504,-5.8077,-5.8202,-5.8177,-5.8027,-5.7323,-5.6796,-5.6369,-5.6269,-5.6018,-5.5767,-5.6093,-5.6294,-5.6369,-5.6244,-5.6143,-5.5993,-5.5666,-5.5842,-5.6093,-5.534,-5.5691,-5.6319,-5.5867,-5.5666,-5.5566,-5.5566,-5.5265,-5.4913,-5.4913,-5.4838,-5.4762,-5.4888,-5.5239,-5.5566,-5.5566,-5.5566,-5.5691,-5.6118,-5.5867,-5.5566,-5.5566,-5.5465,-5.5089,-5.421,-5.3973,-5.3678,-5.2986,-5.298,-5.3048,-5.2929,-5.2929,-5.2929,-5.2929,-5.227,-5.2022,-5.2353,-5.173,-5.1494,-5.1654,-5.2186,-5.2276,-5.1805,-5.1675,-5.1596,-5.1596,-5.1596,-5.1596,-5.1596,-5.1596,-5.1596,0.0,0.0,0.0,0.0,0.0,0.0,0.0,0.0,0.0,0.0,0.0,0.0,0.0,0.0,0.0,0.0,0.0,0.0,0.0,0.0,0.0,0.0,0.0,0.0,0.0,0.0,0.0,0.0,0.0,0.0,0.0,0.0,0.0,0.0,-5.9814,-5.9691,-5.9413,-5.9566,-5.9364,-5.8832,-5.8428,-5.7649,-5.6721,-5.7248,-5.7474,-5.7449,-5.6595,-5.6093,-5.5792,-5.5541,-5.5265,-5.5013,-5.5315,-5.5591,-5.5817,-5.5817,-5.5817,-5.5767,-5.5491,-5.539,-5.534,-5.4762,-5.4963,-5.5365,-5.5089,-5.4988,-5.4988,-5.4988,-5.4787,-5.4561,-5.4561,-5.4361,-5.416,-5.416,-5.4587,-5.4988,-5.4988,-5.4988,-5.5089,-5.5365,-5.5189,-5.4988,-5.4988,-5.4762,-5.431,-5.3457,-5.3343,-5.3223,-5.2911,-5.2689,-5.2589,-5.2879,-5.2452,-5.2319,-5.2707,-5.1899,-5.1503,-5.183,-5.1421,-5.1183,-5.1346,-5.1847,-5.191,-5.1596,-5.1596,-5.1596,-5.1596,-5.1596,-5.1596,-5.1596,-5.1596,-5.1596,0.0,0.0,0.0,0.0,0.0,0.0,0.0,0.0,0.0,0.0,0.0,0.0,0.0,0.0,0.0,0.0,0.0,0.0,0.0,0.0,0.0,0.0,0.0,0.0,0.0,0.0,0.0,0.0,0.0,0.0,0.0,0.0,-5.9935,-5.9434,-5.9819,-5.9693,-5.9236,-5.951,-5.9327,-5.8689,-5.7658,-5.6507,-5.529,-5.6194,-5.662,-5.657,-5.5641,-5.5189,-5.5064,-5.4712,-5.4511,-5.4411,-5.4411,-5.4687,-5.5089,-5.5089,-5.5089,-5.5089,-5.5089,-5.4863,-5.4607,-5.4336,-5.4411,-5.4536,-5.4436,-5.4411,-5.4411,-5.4411,-5.4361,-5.4285,-5.4285,-5.3934,-5.3557,-5.3557,-5.3934,-5.431,-5.4386,-5.4411,-5.4436,-5.4536,-5.4486,-5.4411,-5.4411,-5.3934,-5.3432,-5.3005,-5.2929,-5.2929,-5.2929,-5.2422,-5.2253,-5.275,-5.1909,-5.1582,-5.2438,-5.1524,-5.1136,-5.1498,-5.1304,-5.1183,-5.1183,-5.1471,-5.1596,-5.1596,-5.1596,-5.1596,-5.1596,-5.1596,-5.1596,-5.1596,-5.1596,-5.1596,0.0,0.0,0.0,0.0,0.0,0.0,0.0,0.0,0.0,0.0,0.0,0.0,0.0,0.0,0.0,0.0,0.0,0.0,0.0,0.0,0.0,0.0,0.0,0.0,0.0,0.0,0.0,0.0,0.0,0.0,0.0,-5.9558,-5.9511,-5.9338,-5.9389,-5.9286,-5.9025,-5.8613,-5.8148,-5.7487,-5.6107,-5.5193,-5.4687,-5.4838,-5.4888,-5.4888,-5.4737,-5.4386,-5.3959,-5.4386,-5.426,-5.3808,-5.3808,-5.3858,-5.3934,-5.3934,-5.3934,-5.3934,-5.3934,-5.421,-5.4411,-5.3457,-5.3783,-5.4461,-5.3959,-5.3808,-5.3808,-5.3808,-5.3507,-5.3155,-5.3155,-5.308,-5.303,-5.303,-5.308,-5.3281,-5.3708,-5.3808,-5.3959,-5.4461,-5.416,-5.3808,-5.3808,-5.3381,-5.3005,-5.2929,-5.2929,-5.2929,-5.2929,-5.2422,-5.2114,-5.2179,-5.1677,-5.1431,-5.188,-5.1558,-5.1524,-5.1872,-5.1684,-5.1534,-5.1534,-5.1596,-5.1596,-5.1596,-5.1596,-5.1596,-5.1596,-5.1596,-5.1596,-5.1596,-5.1596,-5.1596,0.0,0.0,0.0,0.0,0.0,0.0,0.0,0.0,0.0,0.0,0.0,0.0,0.0,0.0,0.0,0.0,0.0,0.0,0.0,0.0,0.0,0.0,0.0,0.0,0.0,0.0,0.0,0.0,0.0,0.0,-5.9508,-5.9437,-5.9389,-5.9313,-5.9434,0.0,-5.8414,-5.8373,-5.7733,-5.6431,-5.5733,-5.4975,-5.4084,-5.3783,-5.3984,-5.4536,-5.3909,-5.3507,-5.3231,-5.2879,-5.2578,-5.2352,-5.2352,-5.2528,-5.2854,-5.3155,-5.3281,-5.3306,-5.3607,-5.3482,-5.3155,-5.298,-5.2829,-5.2804,-5.3155,-5.3055,-5.2879,-5.3181,-5.3105,-5.2929,-5.2929,-5.2929,-5.2929,-5.2929,-5.2929,-5.298,-5.3231,-5.3281,-5.3331,-5.3607,-5.3432,-5.3281,-5.3281,-5.308,-5.2929,-5.2929,-5.2929,-5.2929,-5.2929,-5.2186,-5.1864,-5.2342,-5.1336,-5.0927,-5.1532,-5.137,-5.1317,-5.1508,-5.1877,-5.1936,-5.1622,-5.191,-5.1936,-5.1596,-5.1596,-5.1596,-5.1596,-5.1596,-5.1596,-5.1596,-5.1596,-5.1596,0.0,0.0,0.0,0.0,0.0,0.0,0.0,0.0,0.0,0.0,0.0,0.0,0.0,0.0,0.0,0.0,0.0,0.0,0.0,0.0,0.0,0.0,0.0,0.0,0.0,0.0,0.0,0.0,0.0,0.0,-5.9307,-5.9211,-5.9034,-5.8779,-5.8914,-5.858,-5.7655,-5.764,-5.6729,-5.4842,-5.4927,-5.4257,-5.308,-5.2678,-5.2955,-5.3683,-5.2854,-5.2503,-5.2452,-5.1624,-5.1272,-5.1272,-5.1122,-5.1322,-5.1724,-5.2126,-5.2277,-5.2377,-5.2904,-5.2553,-5.1975,-5.2377,-5.2051,-5.1649,-5.2477,-5.2528,-5.2402,-5.2804,-5.2929,-5.2929,-5.2929,-5.2929,-5.2929,-5.2929,-5.2929,-5.2929,-5.2929,-5.2929,-5.2929,-5.2929,-5.2929,-5.2929,-5.2929,-5.2929,-5.2929,-5.2929,-5.2929,-5.2929,-5.2929,-5.2051,-5.1749,-5.2387,-5.1104,-5.0484,-5.1344,-5.1113,-5.1057,-5.1246,-5.1888,-5.2067,-5.1622,-5.2014,-5.2067,-5.1596,-5.1596,-5.1596,-5.1596,-5.1596,-5.1596,-5.1596,-5.1596,-5.1596,0.0,0.0,0.0,0.0,0.0,0.0,0.0,0.0,0.0,0.0,0.0,0.0,0.0,0.0,0.0,0.0,0.0,0.0,0.0,0.0,0.0,0.0,0.0,0.0,0.0,0.0,0.0,0.0,0.0,0.0,-5.878,-5.873,-5.8352,-5.7461,-5.7431,-5.7249,-5.6833,-5.6011,-5.4531,-5.251,-5.2689,-5.2329,-5.1398,-5.1373,-5.1398,-5.1448,-5.1398,-5.1373,-5.1373,-5.1297,-5.1272,-5.1222,-5.067,-5.0469,-5.0519,-5.0544,-5.0544,-5.0619,-5.1197,-5.1373,-5.1322,-5.1348,-5.1674,-5.2076,-5.2126,-5.2503,-5.2879,-5.2929,-5.2929,-5.2929,-5.2929,-5.2929,-5.2929,-5.2929,-5.2929,-5.2929,-5.2929,-5.2929,-5.2929,-5.2929,-5.2929,-5.2929,-5.2929,-5.2929,-5.2929,-5.2929,-5.2929,-5.2929,-5.2929,-5.237,-5.2077,-5.2102,-5.1062,-5.063,-5.1369,-5.0921,-5.0905,-5.1534,-5.1622,-5.1622,-5.1596,-5.1622,-5.1622,-5.1596,-5.1596,-5.1596,-5.1596,-5.1596,-5.1596,-5.1596,-5.1596,-5.1596,0.0,0.0,0.0,0.0,0.0,0.0,0.0,0.0,0.0,0.0,0.0,0.0,0.0,0.0,0.0,0.0,0.0,0.0,0.0,0.0,0.0,0.0,0.0,0.0,0.0,0.0,0.0,0.0,0.0,0.0,-5.873,-5.8253,-5.7791,-5.7307,-5.7209,-5.677,-5.5907,-5.4448,-5.3274,-5.2511,-5.2225,-5.1782,-5.1272,-5.0896,-5.072,-5.0695,-5.0343,-5.0393,-5.0695,-5.0343,-5.0193,-5.0167,-4.9967,-4.9891,-4.9941,-5.0293,-5.0193,-5.0017,-5.0946,-5.0795,-5.0318,-5.1046,-5.0921,-5.0619,-5.1348,-5.1724,-5.195,-5.2302,-5.2653,-5.2929,-5.2929,-5.2929,-5.2929,-5.2929,-5.2929,-5.2929,-5.2929,-5.2929,-5.2929,-5.2929,-5.2929,-5.2929,-5.2929,-5.2628,-5.2402,-5.2402,-5.2065,-5.1965,-5.2319,-5.19,-5.169,-5.1867,-5.1367,-5.0983,-5.0921,-5.1071,-5.122,-5.1309,-5.1836,-5.1988,-5.1622,-5.1962,-5.1988,-5.1596,-5.1596,-5.1596,-5.1596,-5.1596,-5.1596,-5.1596,-5.1596,-5.1596,-4.8661,0.0,0.0,0.0,0.0,0.0,0.0,0.0,0.0,0.0,0.0,0.0,0.0,0.0,0.0,0.0,0.0,0.0,0.0,0.0,0.0,0.0,0.0,0.0,0.0,0.0,0.0,0.0,0.0,0.0,-5.8051,-5.7666,-5.7189,-5.6393,-5.6106,-5.5391,-5.4252,-5.3097,-5.224,-5.1778,-5.1443,-5.1135,-5.0695,-5.0318,-5.0142,-5.0117,-4.9741,-4.9791,-5.0117,-4.9741,-4.959,-4.959,-4.959,-4.959,-4.964,-5.0017,-4.9916,-4.9715,-5.0444,-5.0218,-4.9715,-5.0469,-5.0469,-5.0293,-5.1046,-5.1548,-5.19,-5.2277,-5.2653,-5.2929,-5.2929,-5.2929,-5.2929,-5.2929,-5.2779,-5.2703,-5.2879,-5.2929,-5.2929,-5.2929,-5.2779,-5.2703,-5.2904,-5.2477,-5.2176,-5.2352,-5.189,-5.1715,-5.2033,-5.1766,-5.1529,-5.1783,-5.158,-5.128,-5.1049,-5.1287,-5.1408,-5.1309,-5.1862,-5.2014,-5.1622,-5.1988,-5.2014,-5.1596,-5.1596,-5.1596,-5.1596,-5.1596,-5.1596,-5.1596,-5.1596,-5.1596,0.0,0.0,0.0,0.0,0.0,0.0,0.0,0.0,0.0,0.0,0.0,0.0,0.0,0.0,0.0,0.0,0.0,0.0,0.0,0.0,0.0,0.0,0.0,0.0,0.0,0.0,0.0,0.0,0.0,-5.8552,-5.6903,-5.7112,-5.6419,-5.4547,-5.3967,-5.3139,-5.2,-5.1867,-5.1195,-5.009,-5.0273,-5.0117,-4.959,-4.959,-4.959,-4.959,-4.959,-4.959,-4.959,-4.959,-4.959,-4.959,-4.959,-4.959,-4.959,-4.959,-4.959,-4.959,-4.959,-4.959,-4.959,-4.959,-5.0343,-5.1247,-5.1247,-5.2026,-5.2904,-5.2904,-5.2904,-5.2929,-5.2904,-5.2904,-5.2904,-5.2904,-5.2503,-5.2251,-5.2804,-5.2929,-5.2929,-5.2929,-5.2503,-5.2302,-5.2829,-5.2452,-5.2251,-5.2804,-5.2402,-5.2015,-5.2067,-5.1884,-5.1737,-5.1782,-5.1543,-5.1563,-5.191,-5.1456,-5.1246,-5.1596,-5.1596,-5.1596,-5.1596,-5.1596,-5.1596,-5.1596,-5.1596,-5.1596,-5.1596,-5.1596,-5.1596,-5.1596,-5.1596,-5.1596,-4.6652,0.0,0.0,0.0,0.0,0.0,0.0,0.0,0.0,0.0,0.0,0.0,0.0,0.0,0.0,0.0,0.0,0.0,0.0,0.0,0.0,0.0,0.0,0.0,0.0,0.0,0.0,0.0,-5.7648,-5.7419,-5.6852,-5.6372,-5.5622,-5.4521,-5.3579,-5.2775,-5.2205,-5.1085,-5.0507,-5.0323,-5.0006,-4.9741,-4.959,-4.959,-4.959,-4.959,-4.959,-4.959,-4.959,-4.959,-4.959,-4.959,-4.959,-4.959,-4.959,-4.959,-4.959,-4.959,-4.959,-4.959,-4.959,-4.959,-5.0067,-5.067,-5.067,-5.1448,-5.2327,-5.2327,-5.2628,-5.2829,-5.2427,-5.2327,-5.2327,-5.2327,-5.2226,-5.2251,-5.2804,-5.2929,-5.2929,-5.2929,-5.2804,-5.2754,-5.2904,-5.2126,-5.1548,-5.1724,-5.0921,-5.055,-5.1165,-5.118,-5.1212,-5.151,-5.1691,-5.1691,-5.1405,-5.1387,-5.1471,-5.1596,-5.1596,-5.1596,-5.1596,-5.1596,-5.1596,-5.1596,-5.1596,-5.1596,-5.1596,-5.1596,-5.1596,-5.1596,-5.1596,-5.1596,-4.6878,-4.7506,-4.856,-4.9163,0.0,0.0,0.0,-5.2176,0.0,0.0,0.0,0.0,0.0,0.0,0.0,0.0,0.0,0.0,0.0,0.0,0.0,0.0,0.0,0.0,0.0,0.0,0.0,0.0,-5.699,-5.6609,-5.6025,-5.5688,-5.492,-5.3623,-5.277,-5.2075,-5.1354,-5.0369,-4.996,-5.0067,-4.9741,-4.959,-4.959,-4.959,-4.959,-4.959,-4.959,-4.959,-4.959,-4.959,-4.959,-4.959,-4.959,-4.959,-4.959,-4.959,-4.959,-4.959,-4.959,-4.959,-4.959,-4.959,-5.0117,-5.072,-5.0494,-5.1222,-5.2051,-5.1825,-5.2,-5.2176,-5.185,-5.1925,-5.2101,-5.2101,-5.1925,-5.1925,-5.2477,-5.2201,-5.2026,-5.2477,-5.2402,-5.2251,-5.2251,-5.1523,-5.0996,-5.1247,-5.065,-5.0352,-5.0821,-5.0918,-5.1075,-5.1242,-5.1606,-5.1673,-5.1335,-5.1471,-5.1596,-5.1596,-5.1596,-5.1596,-5.1596,-5.1596,-5.1596,-5.1596,-5.1596,-5.1596,-5.1596,-5.1596,-5.1596,-5.1596,-5.1596,-5.1596,-4.7657,-4.7732,-4.856,-5.0519,-4.9916,0.0,-5.1147,-5.1272,-5.1322,0.0,0.0,0.0,0.0,0.0,0.0,0.0,0.0,0.0,0.0,0.0,0.0,0.0,0.0,0.0,0.0,0.0,0.0,-5.6091,-5.6302,-5.6025,-5.4945,-5.5014,-5.4216,-5.2356,-5.1925,-5.1169,-5.0129,-4.9783,-4.959,-4.959,-4.959,-4.959,-4.959,-4.959,-4.959,-4.959,-4.959,-4.959,-4.959,-4.959,-4.959,-4.959,-4.959,-4.959,-4.959,-4.959,-4.959,-4.959,-4.959,-4.959,-4.959,-4.959,-5.0318,-5.1096,-5.0569,-5.1172,-5.19,-5.1423,-5.1272,-5.1272,-5.1197,-5.1548,-5.1925,-5.1925,-5.1548,-5.1348,-5.19,-5.1222,-5.0795,-5.1724,-5.1574,-5.1272,-5.1272,-5.0795,-5.066,-5.1163,-5.1023,-5.0887,-5.0921,-5.101,-5.1131,-5.1164,-5.1393,-5.1596,-5.1596,-5.1596,-5.1596,-5.1596,-5.1596,-5.1596,-5.1596,-5.1596,-5.1596,-5.1596,-5.1596,-5.1596,-5.1596,-5.1596,-5.1596,-5.1596,-5.1596,-5.1596,-4.9063,-4.9188,-4.9264,-4.9264,-4.9364,0.0,-4.8309,-4.8711,-4.9565,0.0,0.0,0.0,0.0,0.0,0.0,0.0,0.0,0.0,0.0,0.0,0.0,0.0,0.0,0.0,0.0,0.0,-5.611,-5.5178,-5.4781,-5.4645,-5.4817,-5.3768,-5.2925,-5.2331,-5.1543,-5.0789,-5.0129,-4.9783,-4.959,-4.959,-4.959,-4.959,-4.959,-4.959,-4.959,-4.959,-4.959,-4.959,-4.959,-4.959,-4.959,-4.959,-4.959,-4.959,-4.959,-4.959,-4.959,-4.959,-4.959,-4.959,-4.959,-4.959,-5.0042,-5.0569,-5.0444,-5.0896,-5.1423,-5.1322,-5.1272,-5.1172,-5.072,-5.067,-5.0745,-5.0745,-5.067,-5.0745,-5.1322,-5.1272,-5.1046,-5.0795,-5.1046,-5.1272,-5.1272,-5.0993,-5.0861,-5.0963,-5.083,-5.0781,-5.1049,-5.1048,-5.122,-5.1507,-5.157,-5.1596,-5.1596,-5.1596,-5.1596,-5.1596,-5.1596,-5.1596,-5.1596,-5.1596,-5.1596,-5.1596,-5.1596,-5.1596,-5.1596,-5.1596,-5.1596,-5.1596,-5.1596,-5.1596,-4.9414,-4.9389,-4.9665,-4.9941,-4.9389,0.0,0.0,-4.7933,0.0,0.0,0.0,0.0,0.0,0.0,0.0,0.0,0.0,0.0,0.0,0.0,0.0,0.0,0.0,0.0,0.0,0.0,-5.5365,-5.4574,-5.4312,-5.409,-5.3884,-5.3351,-5.2666,-5.1829,-5.1393,-5.0705,-4.9873,-4.9654,-4.959,-4.959,-4.959,-4.959,-4.959,-4.959,-4.959,-4.959,-4.959,-4.959,-4.9615,-4.9891,-4.9841,-4.959,-4.959,-4.959,-4.959,-4.959,-4.959,-4.959,-4.959,-4.959,-4.959,-4.959,-4.9967,-5.0368,-5.0092,-5.0218,-5.0444,-5.0444,-5.0444,-5.0368,-5.0092,-5.0218,-5.0419,-5.0419,-5.0419,-5.0494,-5.0795,-5.0645,-5.0343,-5.0067,-5.0243,-5.0509,-5.064,-5.0608,-5.047,-5.047,-5.0538,-5.0677,-5.0804,-5.0994,-5.1246,-5.1534,-5.1596,-5.1596,-5.1596,-5.1596,-5.1596,-5.1596,-5.1596,-5.1596,-5.1596,-5.1596,-5.1596,-5.1596,-5.1596,-5.1596,-5.1596,-5.1596,-5.1596,-5.1596,-5.1596,-5.1596,-5.0343,-5.0218,0.0,0.0,0.0,-4.9012,0.0,0.0,0.0,0.0,0.0,0.0,0.0,0.0,0.0,0.0,0.0,0.0,0.0,0.0,0.0,0.0,0.0,0.0,0.0,0.0,-5.4461,-5.4232,-5.3902,-5.3536,-5.3136,-5.2969,-5.2439,-5.1297,-5.1071,-5.0469,-4.9439,-4.9439,-4.9389,-4.9264,-4.9264,-4.9264,-4.9264,-4.9264,-4.9264,-4.9264,-4.9264,-4.9264,-4.9314,-4.9741,-4.9665,-4.9289,-4.9615,-4.969,-4.959,-4.959,-4.959,-4.959,-4.959,-4.959,-4.959,-4.959,-4.9891,-5.0167,-4.9715,-4.959,-4.959,-4.959,-4.959,-4.959,-4.959,-4.9916,-5.0268,-5.0268,-5.0268,-5.0268,-5.0268,-4.9916,-4.959,-4.959,-4.959,-4.9654,-4.9976,-5.0065,-5.0129,-5.0168,-5.0487,-5.0715,-5.079,-5.1031,-5.1309,-5.1596,-5.1596,-5.1596,-5.1596,-5.1596,-5.1596,-5.1596,-5.1596,-5.1596,-5.1596,-5.1596,-5.1596,-5.1596,-5.1596,-5.1596,-5.1596,-5.1596,-5.1596,-5.1596,-5.1596,-5.1596,0.0,0.0,0.0,0.0,-5.1825,0.0,0.0,0.0,-4.8686,0.0,0.0,0.0,0.0,0.0,0.0,0.0,0.0,0.0,0.0,0.0,0.0,0.0,0.0,0.0,0.0,0.0,0.0,-5.3954,-5.2623,-5.2327,-5.3784,-5.1899,-5.0937,-5.1272,-5.0318,-4.949,-4.8862,-4.8862,-4.8611,-4.8109,-4.8109,-4.8109,-4.8109,-4.8109,-4.8109,-4.8109,-4.8109,-4.8109,-4.8109,-4.8159,-4.8159,-4.8234,-4.9741,-5.0017,-4.959,-4.959,-4.959,-4.959,-4.959,-4.959,-4.959,-4.959,-4.964,-4.9665,-4.9615,-4.959,-4.959,-4.959,-4.959,-4.959,-4.959,-4.964,-4.969,-4.969,-4.969,-4.969,-4.969,-4.964,-4.959,-4.959,-4.959,-4.959,-4.9654,-4.9912,-5.0168,-5.0487,-5.0867,-5.1172,-5.1454,-5.1512,-5.1534,-5.1596,-5.1596,-5.1596,-5.1596,-5.1596,-5.1596,-5.1596,-5.1596,-5.1596,-5.1596,-5.1596,-5.1596,-5.1596,-5.1596,-5.1596,-5.1596,-5.1596,-5.1596,-5.1596,-5.1596,-5.1596,0.0,0.0,0.0,0.0,0.0,0.0,-4.8636,0.0,-4.7305,0.0,0.0,0.0,0.0,0.0,0.0,0.0,0.0,0.0,0.0,0.0,0.0,0.0,0.0,0.0,0.0,0.0,0.0,0.0,0.0,-5.1376,-5.1889,-5.0691,-5.0042,-5.0293,-4.954,-4.8837,-4.8284,-4.8259,-4.8159,-4.7908,-4.7908,-4.7908,-4.7908,-4.7908,-4.7908,-4.7908,-4.7908,-4.7908,-4.7933,-4.8259,-4.8209,-4.8008,-4.9063,-4.9314,-4.9163,-4.949,-4.959,-4.959,-4.959,-4.959,-4.959,-4.959,-4.959,-4.959,-4.959,-4.959,-4.959,-4.959,-4.959,-4.959,-4.959,-4.959,-4.959,-4.959,-4.959,-4.959,-4.959,-4.959,-4.959,-4.959,-4.959,-4.9654,-4.9847,-5.0168,-5.0423,-5.0588,-5.0867,-5.1146,-5.1287,-5.1272,-5.1346,-5.1596,-5.1596,-5.1596,-5.1596,-5.1596,-5.1596,-5.1596,-5.1596,-5.1596,-5.1596,-5.1596,-5.1596,-5.1596,-5.1596,-5.1596,-5.1596,-5.1596,-5.1596,-5.1596,-5.1596,-5.1596,-5.2176,0.0,0.0,0.0,0.0,0.0,0.0,0.0,0.0,0.0,0.0,0.0,0.0,0.0,-4.6677,-4.8335,0.0,0.0,0.0,0.0,0.0,0.0,0.0,0.0,0.0,0.0,0.0,0.0,-5.0346,0.0,-4.987,-4.9428,-4.9138,-4.9138,-4.8736,-4.8259,-4.7707,-4.7682,-4.7631,-4.7481,-4.7481,-4.7481,-4.7481,-4.7481,-4.7481,-4.7481,-4.7481,-4.7481,-4.7506,-4.7908,-4.7857,-4.7531,-4.8109,-4.8309,-4.841,-4.9113,-4.9364,-4.9389,-4.954,-4.959,-4.959,-4.959,-4.959,-4.959,-4.959,-4.959,-4.959,-4.959,-4.959,-4.959,-4.959,-4.959,-4.959,-4.959,-4.959,-4.959,-4.959,-4.959,-4.959,-4.959,-4.9654,-4.9783,-5.0065,-5.0295,-5.055,-5.0741,-5.0931,-5.112,-5.1246,-5.1246,-5.1372,-5.1596,-5.1596,-5.1596,-5.1596,-5.1596,-5.1596,-5.1596,-5.1596,-5.1596,-5.1596,-5.1596,-5.1596,-5.1596,-5.1596,-5.1596,-5.1596,-5.1596,-5.1596,-5.1596,-5.1596,-5.1596,0.0,0.0,0.0,-4.9791,0.0,0.0,0.0,0.0,-4.8535,0.0,0.0,0.0,0.0,-4.8962,-4.8385,-5.0067,-4.9464,0.0,0.0,0.0,0.0,0.0,0.0,0.0,0.0,0.0,0.0,0.0,-4.9608,0.0,-4.8531,-4.817,-4.7958,-4.7958,-4.7933,-4.7682,-4.7093,-4.7093,-4.6903,-4.6351,-4.6351,-4.6351,-4.6351,-4.6351,-4.6351,-4.6351,-4.6351,-4.6351,-4.6351,-4.6376,-4.6376,-4.6426,-4.6979,-4.7118,-4.7305,-4.841,-4.8786,-4.8862,-4.9414,-4.959,-4.959,-4.959,-4.959,-4.959,-4.959,-4.959,-4.959,-4.959,-4.959,-4.959,-4.959,-4.959,-4.959,-4.959,-4.959,-4.959,-4.959,-4.959,-4.959,-4.959,-4.9847,-5.0129,-5.0129,-5.0129,-5.0321,-5.0994,-5.112,-5.1246,-5.1534,-5.1596,-5.1596,-5.1596,-5.1596,-5.1596,-5.1596,-5.1596,-5.1596,-5.1596,-5.1596,-5.1596,-5.1596,-5.1596,-5.1596,-5.1596,-5.1596,-5.1596,-5.1596,-5.1596,-5.1596,-5.1596,-5.1596,-5.1596,0.0,0.0,-5.4361,-5.1222,0.0,0.0,0.0,0.0,0.0,0.0,0.0,0.0,0.0,-4.9113,-4.8661,-4.9238,-4.9012,-4.851,0.0,0.0,0.0,0.0,0.0,0.0,0.0,0.0,0.0,-4.8436,-4.7434,-4.6721,0.0,-4.6386,-4.6476,-4.6828,-4.6853,-4.6753,-4.6602,-4.6602,-4.6502,-4.6301,-4.6301,-4.6301,-4.6301,-4.6301,-4.6301,-4.6301,-4.6301,-4.6301,-4.6301,-4.6301,-4.6301,-4.6326,-4.6527,-4.6602,-4.6728,-4.7807,-4.8435,-4.8862,-4.9414,-4.9364,-4.9113,-4.9464,-4.9378,-4.9165,-4.9464,-4.959,-4.959,-4.959,-4.959,-4.959,-4.959,-4.9314,-4.9138,-4.9515,-4.9314,-4.9163,-4.9515,-4.959,-4.9654,-4.9847,-5.004,-5.0232,-5.0677,-5.0741,-5.0804,-5.1057,-5.1309,-5.1471,-5.1596,-5.1596,-5.1596,-5.1596,-5.1596,-5.1596,-5.1596,-5.1596,-5.1596,-5.1596,-5.1596,-5.1596,-5.1596,-5.1596,-5.1596,-5.1596,-5.1596,-5.1596,-5.1596,-5.1596,-5.1596,-5.1596,-5.1596,-5.1596,-5.3582,-5.4235,0.0,-5.1925,-5.1147,0.0,-4.7782,0.0,0.0,0.0,0.0,0.0,0.0,-5.0167,-4.9665,-4.9665,-4.9339,-4.836,0.0,-4.512,0.0,0.0,0.0,0.0,0.0,0.0,-4.8712,-4.6383,-4.59,-4.5244,0.0,0.0,-4.5146,-4.5698,-4.5899,-4.6125,-4.6301,-4.6301,-4.6301,-4.6301,-4.6301,-4.6301,-4.6301,-4.6301,-4.6301,-4.6301,-4.6301,-4.6301,-4.6301,-4.6301,-4.6301,-4.6301,-4.6301,-4.6301,-4.6426,-4.7305,-4.7983,-4.856,-4.911,-4.896,-4.8573,-4.8912,-4.8937,-4.8873,-4.921,-4.9475,-4.959,-4.959,-4.959,-4.959,-4.959,-4.9339,-4.9163,-4.9515,-4.9314,-4.9163,-4.9515,-4.959,-4.9654,-4.9847,-5.0001,-5.0321,-5.0804,-5.0994,-5.112,-5.1246,-5.1471,-5.1596,-5.1596,-5.1596,-5.1596,-5.1596,-5.1596,-5.1596,-5.1596,-5.1596,-5.1596,-5.1596,-5.1596,-5.1596,-5.1596,-5.1596,-5.1884,-5.2511,-5.191,-5.191,-5.2511,-5.191,-5.1596,-5.1596,-5.1596,-5.1596]}]]